[[{"header":{"parameterUnit":"m.s-1","parameterCategory":1,"la1":30.6,"la2":29.2853,"lo1":-89.7004,"lo2":-87.6739,"dy":0.0162,"dx":0.0183,"nx":112,"ny":82,"refTime":"2026-05-18T00:00:00:Z","depth":0,"parameterNumber":2,"parameterNumberName":"U-component_of_WINDS"},"data":[0.0,0.0,0.0,0.0,0.0,0.0,0.0,0.0,0.0,0.0,0.0,0.0,0.0,0.0,0.0,0.0,0.0,0.0,0.0,0.0,0.0,0.0,0.0,0.0,0.0,0.0,0.0,0.0,0.0,0.0,0.0,0.0,0.0,0.0,0.0,0.0,0.0,0.0,0.0,0.0,0.0,0.0,0.0,0.0,0.0,0.0,0.0,0.0,0.0,0.0,0.0,0.0,0.0,0.0,0.0,0.0,0.0,0.0,0.0,0.0,0.0,0.0,0.0,0.0,0.0,0.0,0.0,0.0,0.0,0.0,0.0,0.0,0.0,0.0,0.0,0.0,0.0,0.0,0.0,0.0,0.0,0.0,0.0,0.0,0.0,0.0,0.0,0.0,0.0,0.0,0.0,-1.9581,-2.0432,-2.0479,-1.9484,-1.8372,-1.7074,-1.5581,0.0,0.0,0.0,0.0,0.0,0.0,0.0,0.0,0.0,0.0,0.0,0.0,0.0,0.0,0.0,0.0,0.0,0.0,0.0,0.0,0.0,0.0,0.0,0.0,0.0,0.0,0.0,0.0,0.0,0.0,0.0,0.0,0.0,0.0,0.0,0.0,0.0,0.0,0.0,0.0,0.0,0.0,0.0,0.0,0.0,0.0,0.0,0.0,0.0,0.0,0.0,0.0,0.0,0.0,0.0,0.0,0.0,0.0,0.0,0.0,0.0,0.0,0.0,0.0,0.0,0.0,0.0,0.0,0.0,0.0,0.0,0.0,0.0,0.0,0.0,0.0,0.0,0.0,0.0,0.0,0.0,0.0,0.0,0.0,0.0,0.0,0.0,0.0,0.0,0.0,0.0,0.0,0.0,0.0,0.0,0.0,0.0,0.0,0.0,0.0,0.0,0.0,0.0,0.0,-2.0024,-2.1286,-2.1323,-2.0905,-1.9894,-1.8931,-1.7499,-1.5472,0.0,0.0,0.0,0.0,0.0,0.0,0.0,0.0,0.0,0.0,0.0,0.0,0.0,0.0,0.0,0.0,0.0,0.0,0.0,0.0,0.0,0.0,0.0,0.0,0.0,0.0,0.0,0.0,0.0,0.0,0.0,0.0,0.0,0.0,0.0,0.0,0.0,0.0,0.0,0.0,0.0,0.0,0.0,0.0,0.0,0.0,0.0,0.0,0.0,0.0,0.0,0.0,0.0,0.0,0.0,0.0,0.0,0.0,0.0,0.0,0.0,0.0,0.0,0.0,0.0,0.0,0.0,0.0,0.0,0.0,0.0,0.0,0.0,0.0,0.0,0.0,0.0,0.0,0.0,0.0,0.0,0.0,0.0,0.0,0.0,0.0,0.0,0.0,0.0,0.0,0.0,0.0,0.0,0.0,0.0,0.0,0.0,0.0,0.0,0.0,0.0,0.0,0.0,-1.9812,-2.0628,-2.1962,-2.1906,-2.1379,-2.0303,-1.9393,-1.7986,-1.5823,-1.4137,0.0,0.0,0.0,0.0,0.0,0.0,0.0,0.0,0.0,0.0,0.0,0.0,0.0,0.0,0.0,0.0,0.0,0.0,0.0,0.0,0.0,0.0,0.0,0.0,0.0,0.0,0.0,0.0,0.0,0.0,0.0,0.0,0.0,0.0,0.0,0.0,0.0,0.0,0.0,0.0,0.0,0.0,0.0,0.0,0.0,0.0,0.0,0.0,0.0,0.0,0.0,0.0,0.0,0.0,0.0,0.0,0.0,0.0,0.0,0.0,0.0,0.0,0.0,0.0,0.0,0.0,0.0,0.0,0.0,0.0,0.0,0.0,0.0,0.0,0.0,0.0,0.0,0.0,0.0,0.0,0.0,0.0,0.0,0.0,0.0,0.0,0.0,0.0,0.0,0.0,0.0,0.0,0.0,0.0,0.0,0.0,0.0,0.0,0.0,0.0,0.0,0.0,-2.0745,-2.1278,-2.2389,-2.2262,-2.1666,-2.0651,-1.9592,-1.8151,-1.6152,-1.4445,0.0,0.0,0.0,0.0,0.0,0.0,0.0,0.0,0.0,0.0,0.0,0.0,0.0,0.0,0.0,0.0,0.0,0.0,0.0,0.0,0.0,0.0,0.0,0.0,0.0,0.0,0.0,0.0,0.0,0.0,0.0,0.0,0.0,0.0,0.0,0.0,0.0,0.0,0.0,0.0,0.0,0.0,0.0,0.0,0.0,0.0,0.0,0.0,0.0,0.0,0.0,0.0,0.0,0.0,0.0,0.0,0.0,0.0,0.0,0.0,0.0,0.0,0.0,0.0,0.0,0.0,0.0,0.0,0.0,0.0,0.0,0.0,0.0,0.0,0.0,0.0,0.0,0.0,0.0,0.0,0.0,0.0,0.0,0.0,0.0,0.0,0.0,0.0,0.0,0.0,0.0,0.0,0.0,0.0,0.0,0.0,0.0,0.0,0.0,0.0,0.0,0.0,-2.1939,-2.2476,-2.2833,-2.2417,-2.1731,-2.0754,-1.9333,-1.7779,-1.6215,-1.4361,0.0,0.0,0.0,0.0,0.0,0.0,0.0,0.0,0.0,0.0,0.0,0.0,0.0,0.0,0.0,0.0,0.0,0.0,0.0,0.0,0.0,0.0,0.0,0.0,0.0,0.0,0.0,0.0,0.0,0.0,0.0,0.0,0.0,0.0,0.0,0.0,0.0,0.0,0.0,0.0,0.0,0.0,0.0,0.0,0.0,0.0,0.0,0.0,0.0,0.0,0.0,0.0,0.0,0.0,0.0,0.0,0.0,0.0,0.0,0.0,0.0,0.0,0.0,0.0,0.0,0.0,0.0,0.0,0.0,0.0,0.0,0.0,0.0,0.0,0.0,0.0,0.0,0.0,0.0,0.0,0.0,0.0,0.0,0.0,0.0,0.0,0.0,0.0,0.0,0.0,0.0,0.0,0.0,0.0,0.0,0.0,0.0,0.0,0.0,0.0,0.0,0.0,-2.2457,-2.2877,0.0,-2.2493,-2.1844,-2.0882,-1.9387,-1.7813,-1.6308,0.0,0.0,0.0,0.0,0.0,0.0,0.0,0.0,0.0,0.0,0.0,0.0,0.0,0.0,0.0,0.0,0.0,0.0,0.0,0.0,0.0,0.0,0.0,0.0,0.0,0.0,0.0,0.0,0.0,0.0,0.0,0.0,0.0,0.0,0.0,0.0,0.0,0.0,0.0,0.0,0.0,0.0,0.0,0.0,0.0,0.0,0.0,0.0,0.0,0.0,0.0,0.0,0.0,0.0,0.0,0.0,0.0,0.0,0.0,0.0,0.0,0.0,0.0,0.0,0.0,0.0,0.0,0.0,0.0,0.0,0.0,0.0,0.0,0.0,0.0,0.0,0.0,0.0,0.0,0.0,0.0,0.0,0.0,0.0,0.0,0.0,0.0,0.0,0.0,0.0,0.0,0.0,0.0,0.0,0.0,0.0,0.0,0.0,0.0,0.0,0.0,0.0,-2.2619,-2.3022,-2.324,0.0,-2.2768,-2.2097,-2.1357,-1.9792,-1.8196,-1.6563,0.0,0.0,0.0,0.0,0.0,0.0,0.0,0.0,0.0,0.0,0.0,0.0,0.0,0.0,0.0,0.0,0.0,0.0,0.0,0.0,0.0,0.0,0.0,0.0,0.0,0.0,0.0,0.0,0.0,0.0,0.0,0.0,0.0,0.0,0.0,0.0,0.0,0.0,0.0,0.0,0.0,0.0,0.0,0.0,0.0,0.0,0.0,0.0,0.0,0.0,0.0,0.0,0.0,0.0,0.0,0.0,0.0,0.0,0.0,0.0,0.0,0.0,0.0,0.0,0.0,0.0,0.0,0.0,0.0,0.0,0.0,0.0,0.0,0.0,0.0,0.0,0.0,0.0,0.0,0.0,0.0,0.0,0.0,0.0,0.0,0.0,0.0,0.0,0.0,0.0,0.0,0.0,0.0,0.0,0.0,0.0,0.0,0.0,0.0,0.0,0.0,0.0,-2.3954,-2.3699,-2.3586,-2.4055,-2.3288,-2.2594,-2.2245,-2.0633,-1.8818,0.0,0.0,0.0,0.0,0.0,0.0,0.0,0.0,0.0,0.0,0.0,0.0,0.0,0.0,0.0,0.0,0.0,0.0,0.0,0.0,0.0,0.0,0.0,0.0,0.0,0.0,0.0,0.0,0.0,0.0,0.0,0.0,0.0,0.0,0.0,0.0,0.0,0.0,0.0,0.0,0.0,0.0,0.0,0.0,0.0,0.0,0.0,0.0,0.0,0.0,0.0,0.0,0.0,0.0,0.0,0.0,0.0,0.0,0.0,0.0,0.0,0.0,0.0,0.0,0.0,0.0,0.0,0.0,0.0,0.0,0.0,0.0,0.0,0.0,0.0,0.0,0.0,0.0,0.0,0.0,0.0,0.0,0.0,0.0,0.0,0.0,0.0,0.0,0.0,0.0,0.0,0.0,0.0,0.0,0.0,0.0,0.0,0.0,0.0,0.0,0.0,0.0,0.0,-2.4652,-2.4941,-2.4986,-2.4963,-2.4335,-2.3644,-2.2943,-2.1204,-1.9462,-1.7819,0.0,0.0,0.0,0.0,0.0,0.0,0.0,0.0,0.0,0.0,0.0,0.0,0.0,0.0,0.0,0.0,0.0,0.0,0.0,0.0,0.0,0.0,0.0,0.0,0.0,0.0,0.0,0.0,0.0,0.0,0.0,0.0,0.0,0.0,0.0,0.0,0.0,0.0,0.0,0.0,0.0,0.0,0.0,0.0,0.0,0.0,0.0,0.0,0.0,0.0,0.0,0.0,0.0,0.0,0.0,0.0,0.0,0.0,0.0,0.0,0.0,0.0,0.0,0.0,0.0,0.0,0.0,0.0,0.0,0.0,0.0,0.0,0.0,0.0,0.0,0.0,0.0,0.0,0.0,0.0,0.0,0.0,0.0,0.0,0.0,0.0,0.0,0.0,0.0,0.0,0.0,0.0,0.0,0.0,0.0,0.0,0.0,0.0,0.0,0.0,0.0,0.0,-2.563,-2.5779,-2.584,-2.6172,-2.5478,-2.4781,-2.4108,-2.2467,-2.0639,-1.8778,0.0,0.0,0.0,0.0,0.0,0.0,0.0,0.0,0.0,0.0,0.0,0.0,0.0,0.0,0.0,0.0,0.0,0.0,0.0,0.0,0.0,0.0,0.0,0.0,0.0,0.0,0.0,0.0,0.0,0.0,0.0,0.0,0.0,0.0,0.0,0.0,0.0,0.0,0.0,0.0,0.0,0.0,0.0,0.0,0.0,0.0,0.0,0.0,0.0,0.0,0.0,0.0,0.0,0.0,0.0,0.0,0.0,0.0,0.0,0.0,0.0,0.0,0.0,0.0,0.0,0.0,0.0,0.0,0.0,0.0,0.0,0.0,0.0,0.0,0.0,0.0,0.0,0.0,0.0,0.0,0.0,0.0,0.0,0.0,0.0,0.0,0.0,0.0,0.0,0.0,0.0,0.0,0.0,0.0,0.0,0.0,0.0,0.0,0.0,0.0,0.0,0.0,-2.6651,-2.6377,-2.6389,-2.7471,-2.6741,-2.5982,-2.5615,-2.4087,-2.2189,-1.993,0.0,0.0,0.0,0.0,0.0,0.0,0.0,0.0,0.0,0.0,0.0,0.0,0.0,0.0,0.0,0.0,0.0,0.0,0.0,0.0,0.0,0.0,0.0,0.0,0.0,0.0,0.0,0.0,0.0,0.0,0.0,0.0,0.0,0.0,0.0,0.0,0.0,0.0,0.0,0.0,0.0,0.0,0.0,0.0,0.0,0.0,0.0,0.0,0.0,0.0,0.0,0.0,0.0,0.0,0.0,0.0,0.0,0.0,0.0,0.0,-2.4449,0.0,0.0,0.0,0.0,0.0,0.0,0.0,0.0,0.0,0.0,0.0,0.0,0.0,0.0,0.0,0.0,0.0,0.0,0.0,0.0,0.0,0.0,0.0,0.0,0.0,0.0,0.0,0.0,0.0,0.0,0.0,0.0,0.0,0.0,0.0,0.0,0.0,0.0,0.0,0.0,0.0,-2.6989,-2.7235,-2.7516,-2.8266,-2.7774,-2.7321,-2.7021,-2.5328,-2.3551,-2.1881,-1.9385,0.0,0.0,0.0,0.0,0.0,0.0,0.0,0.0,0.0,0.0,0.0,0.0,0.0,0.0,0.0,0.0,0.0,0.0,0.0,0.0,0.0,0.0,0.0,0.0,0.0,0.0,0.0,0.0,0.0,0.0,0.0,0.0,0.0,0.0,0.0,0.0,0.0,0.0,0.0,0.0,0.0,0.0,0.0,0.0,0.0,0.0,0.0,0.0,0.0,0.0,0.0,0.0,0.0,0.0,0.0,0.0,0.0,0.0,0.0,-2.7679,-2.5711,0.0,0.0,0.0,0.0,0.0,0.0,0.0,0.0,0.0,0.0,0.0,0.0,0.0,0.0,0.0,0.0,0.0,0.0,0.0,0.0,0.0,0.0,0.0,0.0,0.0,0.0,0.0,0.0,0.0,0.0,0.0,0.0,0.0,0.0,0.0,0.0,0.0,0.0,0.0,0.0,-2.7533,-2.8029,-2.8583,-2.9539,-2.9034,-2.8551,-2.8293,-2.6512,-2.4771,-2.342,-2.0789,0.0,0.0,0.0,0.0,0.0,0.0,0.0,0.0,0.0,0.0,0.0,0.0,0.0,0.0,0.0,0.0,0.0,0.0,0.0,0.0,0.0,0.0,0.0,0.0,0.0,0.0,0.0,0.0,0.0,0.0,0.0,0.0,0.0,0.0,0.0,0.0,0.0,0.0,0.0,0.0,0.0,0.0,0.0,0.0,0.0,0.0,0.0,0.0,0.0,0.0,0.0,0.0,0.0,-3.3799,-3.4043,-3.4161,-3.336,-3.3197,-3.3388,-3.0953,-2.9124,-2.7726,-2.6381,0.0,0.0,0.0,0.0,0.0,0.0,0.0,0.0,0.0,0.0,0.0,0.0,0.0,0.0,0.0,0.0,0.0,0.0,0.0,0.0,0.0,0.0,-2.7042,-2.706,-2.7268,-2.6966,-2.4914,0.0,0.0,0.0,0.0,0.0,0.0,0.0,0.0,0.0,0.0,0.0,-2.8177,-2.8778,-2.9454,-3.0591,-3.0015,-2.9465,-2.9326,-2.7493,-2.5843,-2.459,-2.2311,-2.0201,0.0,0.0,0.0,0.0,0.0,0.0,0.0,0.0,0.0,0.0,0.0,0.0,0.0,0.0,0.0,0.0,0.0,0.0,0.0,0.0,0.0,0.0,0.0,0.0,0.0,0.0,0.0,0.0,0.0,0.0,0.0,0.0,-2.8362,-2.8115,0.0,0.0,0.0,0.0,0.0,0.0,0.0,0.0,0.0,0.0,0.0,0.0,0.0,-3.3993,-3.4459,-3.4794,-3.4952,-3.5015,-3.5089,-3.5436,-3.5929,-3.5355,-3.5152,-3.5157,-3.4595,0.0,-3.0235,-2.8929,0.0,0.0,0.0,0.0,0.0,0.0,0.0,0.0,0.0,0.0,0.0,0.0,0.0,0.0,0.0,0.0,0.0,0.0,0.0,0.0,0.0,0.0,-2.8482,-2.943,-2.9614,-2.957,-2.9488,-2.7143,-2.4798,-2.3768,-2.3456,0.0,0.0,0.0,0.0,0.0,0.0,0.0,-2.8607,-2.9188,-2.9766,-3.0772,-2.9997,-2.9519,-2.9715,-2.8172,-2.6617,-2.5352,-2.3903,-2.2236,-2.0251,-1.8884,0.0,0.0,0.0,0.0,0.0,0.0,0.0,0.0,0.0,0.0,0.0,0.0,0.0,0.0,0.0,0.0,0.0,0.0,0.0,0.0,0.0,0.0,0.0,0.0,0.0,0.0,0.0,0.0,0.0,-2.995,-3.0848,-2.9797,-3.0089,-3.01,0.0,0.0,0.0,0.0,0.0,0.0,0.0,0.0,0.0,-3.5303,-3.5277,-3.5358,-3.5621,-3.6053,-3.6253,-3.6279,-3.6625,-3.6934,-3.7164,-3.6975,-3.6935,-3.6887,-3.6646,-3.5563,-3.3801,-3.1888,-3.0295,-2.8987,0.0,0.0,0.0,0.0,-2.6943,-2.6675,-2.7244,-2.7334,-2.7254,-2.7371,0.0,0.0,0.0,0.0,0.0,0.0,0.0,-2.854,-2.9715,-3.0189,-3.0483,-3.0806,-3.0937,-3.1028,-3.0975,-2.9829,-2.8366,0.0,-2.5617,-2.4934,-2.4658,0.0,0.0,0.0,0.0,-2.8565,-2.9483,-3.0002,-3.0445,-3.0984,-3.0163,-2.9699,-2.9884,-2.8496,-2.7285,-2.6499,-2.4666,-2.312,-2.2205,-2.0265,-1.8434,0.0,0.0,0.0,0.0,0.0,0.0,0.0,0.0,0.0,0.0,0.0,0.0,0.0,0.0,0.0,0.0,0.0,0.0,0.0,0.0,0.0,0.0,0.0,0.0,0.0,0.0,0.0,0.0,-3.205,-3.2791,-3.1405,-3.2176,-3.2343,0.0,0.0,0.0,0.0,0.0,0.0,-3.495,-3.5262,-3.5706,-3.6416,-3.6709,-3.682,-3.6776,-3.7377,-3.7665,-3.7691,-3.8011,-3.8188,-3.8341,-3.8287,-3.8166,-3.8066,-3.7842,-3.7245,-3.6333,-3.436,-3.2795,-3.1649,-3.1428,-3.0778,-2.9959,-3.0121,-2.9959,-2.9759,-3.0434,-3.0664,-3.072,-3.0767,-3.0629,-3.0284,-2.9459,0.0,0.0,0.0,0.0,-3.0853,-3.1273,-3.1717,-3.1998,-3.1816,-3.1906,-3.1989,-3.1878,-3.1685,-3.1016,0.0,-2.7973,-2.721,-2.6967,0.0,0.0,0.0,0.0,-2.9839,-3.0295,-3.0629,-3.0893,-3.1131,-3.0378,-2.9943,-3.0016,-2.8813,-2.7868,-2.7377,-2.5396,-2.4143,-2.3849,-2.1679,-1.9863,-1.8653,0.0,0.0,0.0,0.0,0.0,0.0,0.0,0.0,0.0,0.0,0.0,0.0,0.0,0.0,0.0,0.0,0.0,0.0,0.0,0.0,0.0,0.0,0.0,0.0,0.0,0.0,0.0,0.0,0.0,-3.3366,-3.4045,0.0,0.0,0.0,0.0,-3.5321,-3.5468,-3.591,-3.682,-3.7103,-3.7437,-3.7789,-3.855,-3.8839,-3.8579,-3.9181,-3.9468,-3.9468,-3.8965,-3.903,-3.9493,-3.9045,-3.8692,-3.8363,-3.8158,-3.7557,-3.6743,-3.5887,-3.4847,-3.3839,-3.3883,-3.3693,-3.3387,-3.3643,-3.3588,-3.3392,-3.3684,-3.3508,-3.3227,-3.3912,-3.3677,-3.3086,-3.3043,-3.2476,0.0,0.0,-3.3005,-3.2307,-3.2845,-3.2716,-3.2482,-3.2482,-3.2559,-3.2721,-3.3063,-3.2482,-3.1601,0.0,-3.0452,-3.0363,-2.9291,0.0,-2.9787,-2.9859,-2.9859,-3.0105,-3.0662,-3.069,-3.0809,-3.1245,-3.064,-3.015,-3.0,-2.927,-2.8439,-2.7476,-2.6555,-2.5689,-2.4771,-2.3157,-2.1926,-2.1142,-1.9829,0.0,0.0,0.0,0.0,0.0,0.0,0.0,0.0,0.0,0.0,0.0,0.0,0.0,0.0,0.0,0.0,0.0,0.0,0.0,0.0,0.0,0.0,0.0,0.0,0.0,0.0,0.0,0.0,-3.5556,-3.5859,0.0,-3.4868,-3.5163,-3.592,-3.6988,-3.7543,-3.8187,-3.8912,-3.9011,-3.9137,-3.928,-3.937,-3.938,-3.9285,-3.9494,-3.9599,-3.9625,-3.9404,-3.9415,-3.9596,-3.9474,-3.9345,-3.9217,-3.8985,-3.8551,-3.8044,-3.7591,-3.6684,-3.5519,-3.5183,-3.4984,-3.4893,-3.4625,-3.4439,-3.4411,-3.449,-3.4411,-3.428,-3.4567,-3.4469,-3.4205,-3.4079,-3.3953,-3.3871,-3.4194,-3.4005,-3.3785,-3.382,-3.3732,-3.36,-3.3407,-3.3247,-3.3198,-3.3314,-3.2867,-3.2339,-3.1952,-3.1353,-3.0792,-3.043,-3.0717,-3.1018,-3.1016,-3.1278,-3.1467,-3.1455,-3.1217,-3.105,-3.1034,-3.0526,-3.0194,-3.0094,-2.9391,-2.8641,-2.7999,-2.6945,-2.6008,-2.5333,-2.391,-2.2821,-2.2178,-2.1174,-1.9815,0.0,0.0,0.0,0.0,0.0,0.0,0.0,0.0,0.0,0.0,0.0,0.0,0.0,0.0,0.0,0.0,0.0,0.0,0.0,0.0,0.0,0.0,0.0,0.0,0.0,0.0,-3.6739,-3.6743,-3.719,-3.7207,-3.6508,-3.6981,-3.7798,-3.8912,-3.9269,-3.9685,-4.0245,-4.006,-3.9907,-3.9886,-4.0022,-4.0031,-3.9886,-4.0166,-4.0271,-4.02,-3.9997,-3.9927,-3.9903,-3.9955,-3.9869,-3.9661,-3.9677,-3.9459,-3.9062,-3.8655,-3.8012,-3.7128,-3.6407,-3.6189,-3.6165,-3.5662,-3.5437,-3.5409,-3.5335,-3.531,-3.529,-3.529,-3.529,-3.529,-3.5108,-3.5184,-3.5283,-3.526,-3.521,-3.5067,-3.4858,-3.4653,-3.4434,-3.4006,-3.3647,-3.3427,-3.3505,-3.3095,-3.2768,-3.3028,-3.2333,-3.1628,-3.1517,-3.1896,-3.2081,-3.1855,-3.2121,-3.2133,-3.1672,-3.1441,-3.1228,-3.0957,-3.0605,-3.0371,-3.0215,-2.9414,-2.875,-2.832,-2.7175,-2.6286,-2.5906,-2.456,-2.3651,-2.3162,-2.2095,-2.0692,-1.8973,0.0,0.0,0.0,0.0,0.0,0.0,0.0,0.0,0.0,0.0,0.0,0.0,0.0,0.0,0.0,0.0,0.0,0.0,0.0,0.0,0.0,0.0,0.0,-3.6058,-3.6633,-3.6948,-3.6976,-3.793,-3.8479,-3.8182,-3.8743,-3.97,-4.1133,-4.0489,-4.0245,-4.0826,-4.0298,-3.9864,-3.9651,-4.0658,-4.0949,-4.0435,-4.1258,-4.1547,-4.1274,-4.0744,-4.0517,-4.0466,-4.051,-4.0184,-3.9623,-4.0217,-4.0111,-3.9537,-3.9032,-3.8815,-3.8719,-3.7661,-3.7332,-3.7467,-3.6957,-3.6737,-3.6708,-3.6459,-3.634,-3.6378,-3.6378,-3.6378,-3.6378,-3.6378,-3.6355,-3.6424,-3.6874,-3.6543,-3.6049,-3.5909,-3.5423,-3.488,-3.4289,-3.3779,-3.3526,-3.378,-3.3252,-3.2929,-3.3654,-3.3518,-3.311,-3.2747,-3.2976,-3.3012,-3.242,-3.2305,0.0,-3.1383,-3.1325,-3.1208,-3.0957,-3.0898,-3.0703,-3.0254,-2.9434,-2.8769,-2.8359,-2.7278,-2.657,-2.6465,-2.5225,-2.4447,-2.4277,-2.2685,-2.106,-1.9584,0.0,0.0,0.0,0.0,0.0,0.0,0.0,0.0,0.0,0.0,0.0,0.0,0.0,0.0,0.0,0.0,0.0,0.0,0.0,0.0,0.0,-3.4901,-3.6128,-3.7194,-3.7724,-3.8156,-3.8592,-3.8772,-3.8953,-3.9311,-3.936,-3.9981,-4.1394,-4.1101,-4.1239,-4.1972,-4.1497,-4.1271,-4.1417,-4.1331,-4.1311,-4.136,-4.1369,-4.1248,-4.0997,-4.0846,-4.0491,-3.9955,-4.0132,-4.0019,-3.9574,-3.9618,-3.9505,-3.931,-3.9164,-3.8954,-3.8737,-3.8263,-3.809,-3.8114,-3.7918,-3.7739,-3.7519,-3.7382,-3.7376,-3.7379,-3.7379,-3.7379,-3.7379,-3.7379,-3.7017,-3.6626,-3.6765,-3.6118,-3.539,-3.5568,-3.5334,-3.5035,-3.5029,-3.4442,-3.4028,-3.444,-3.382,-3.3385,-3.39,-3.4077,-3.3926,-3.3323,-3.2991,-3.2784,-3.2612,-3.219,0.0,-3.1672,-3.1286,-3.0995,-3.0898,-3.0898,-3.084,-3.0703,-3.0176,-2.9668,-2.9238,-2.8276,-2.7634,-2.7425,-2.6252,-2.5176,-2.4345,-2.3095,-2.2005,0.0,0.0,0.0,0.0,0.0,0.0,0.0,0.0,0.0,0.0,0.0,0.0,0.0,0.0,0.0,0.0,0.0,0.0,0.0,0.0,0.0,0.0,-3.6252,-3.7426,-3.8324,-3.8385,-3.8722,-3.959,-3.951,-3.9771,-4.0634,-4.0622,-4.0979,-4.2037,-4.178,-4.1768,-4.2338,-4.1796,-4.1647,-4.1944,-4.1498,-4.1374,-4.1547,-4.1248,-4.0997,-4.0744,-4.0643,-4.0338,-3.9903,-4.0357,-4.0367,-3.9942,-4.0306,-4.0335,-4.0055,-3.9812,-3.963,-3.9441,0.0,0.0,0.0,0.0,-3.8233,-3.7976,-3.7864,-3.7778,-3.7793,-3.7793,-3.7793,-3.7793,-3.7793,-3.7492,-3.722,-3.7451,-3.675,-3.5967,-3.6241,-3.5865,-3.543,-3.5567,-3.4819,-3.4316,-3.5014,-3.4268,-3.3634,-3.4396,-3.4435,0.0,-3.4028,-3.3547,-3.3012,-3.2576,-3.2248,-3.1903,-3.1614,-3.1286,-3.0995,-3.0898,-3.0898,-3.0898,-3.0898,-3.0312,0.0,0.0,0.0,-2.7858,-2.746,-2.6555,0.0,0.0,0.0,0.0,0.0,0.0,0.0,0.0,-1.9513,-1.9307,0.0,0.0,0.0,0.0,0.0,0.0,0.0,0.0,0.0,0.0,0.0,0.0,0.0,0.0,0.0,0.0,-3.7791,-3.8896,-3.9363,-3.902,-3.9074,-4.0078,-4.0241,-4.073,-4.1896,-4.2005,-4.2249,-4.2846,-4.2387,-4.2065,-4.2065,-4.1597,0.0,0.0,0.0,-4.1352,-4.1352,-4.1152,-4.0874,-4.0645,-4.0415,-4.0261,-4.0183,-4.093,-4.0977,-4.0477,-4.1464,-4.1542,-4.1052,-4.0595,-4.0427,-4.0379,-3.9564,-3.9418,-3.958,-3.9009,-3.8593,-3.8288,-3.8067,0.0,0.0,-3.7953,-3.7953,-3.7953,-3.7953,-3.7941,-3.7941,-3.8424,-3.7811,-3.7074,-3.7301,-3.6695,-3.5947,-3.5949,-3.5098,-3.4497,-3.5438,-3.455,-3.39,-3.5014,-3.4666,-3.4341,-3.4754,-3.4247,-3.3439,-3.2564,-3.2346,-3.2018,-3.1441,-3.1267,-3.117,-3.0957,0.0,0.0,-3.0898,-3.0176,-2.9614,-2.9332,-2.8631,-2.7936,-2.7157,-2.6608,-2.5956,-2.5289,-2.4721,-2.4152,-2.3583,-2.4036,-2.4228,-2.4105,-2.1872,-2.1292,0.0,0.0,0.0,0.0,0.0,0.0,0.0,0.0,0.0,0.0,0.0,0.0,0.0,0.0,0.0,-3.6222,-3.793,-3.939,-3.9943,-4.035,-4.0485,-4.0214,-4.0621,-4.1218,-4.1924,-4.2005,-4.2249,-4.2846,-4.2387,-4.2065,-4.2065,-4.1597,-4.1324,-4.1374,-4.1539,-4.162,-4.162,-4.1775,-4.1744,-4.148,-4.1639,0.0,-4.0736,-4.1121,-4.1092,-4.0689,-4.047,-4.0474,-4.0547,-4.0427,-4.0643,-4.0956,-4.0081,-3.9911,-4.004,-3.9682,-3.9383,-3.9105,-3.9047,-3.8976,-3.901,-3.901,-3.901,-3.901,-3.901,-3.8608,0.0,-3.8248,-3.7524,-3.6828,-3.7277,-3.6834,-3.6245,-3.6421,-3.5699,-3.5098,-3.5374,-3.5001,-3.4712,-3.5251,-3.5231,-3.5066,-3.4857,-3.4049,-3.3406,-3.3207,-3.2415,-3.1845,-3.173,-3.1286,-3.0957,-3.0898,-3.0898,-3.0898,-3.0898,-3.0742,-3.0644,-3.0587,-3.0142,-2.9451,-2.8408,-2.7772,-2.7216,-2.6774,-2.5883,-2.52,-2.4774,-2.5112,-2.504,-2.4456,-2.3514,-2.3289,0.0,0.0,0.0,0.0,0.0,0.0,0.0,0.0,0.0,0.0,0.0,-3.2712,-3.3847,0.0,-3.6404,-3.7207,-3.833,-3.9375,-4.0106,-4.061,-4.097,-4.1082,-4.1381,-4.1788,-4.2385,-4.2439,-4.2575,-4.2873,-4.2387,-4.2065,-4.2065,-4.1597,-4.1324,-4.1324,-4.1414,-4.1492,-4.1492,-4.1637,-4.1651,-4.149,-4.149,-4.1275,-4.0898,-4.1196,-4.1139,-4.0804,-4.0804,-4.0805,-4.0787,-4.0787,-4.0956,-4.1148,-4.054,-4.0358,-4.0421,-4.013,-3.9779,-3.9544,-3.9367,-3.9308,-3.9308,-3.9308,-3.9308,-3.9308,-3.9308,-3.9058,-3.8782,-3.8782,-3.8126,-3.7497,-3.7632,-3.7008,-3.6362,-3.6501,-3.571,-3.5123,-3.5581,-3.5188,-3.49,-3.5335,-3.5418,-3.5355,-3.5128,-3.4527,-3.3906,-3.3451,-3.2476,-3.1787,-3.1787,-3.1286,-3.0898,-3.0898,-3.0898,-3.0898,-3.0898,-3.0587,-3.047,-3.0645,-3.0216,-2.9674,-2.9143,-2.8386,-2.773,-2.7246,-2.6369,-2.5754,-2.5395,-2.5883,-2.5936,-2.5576,-2.5308,-2.488,0.0,0.0,0.0,0.0,0.0,0.0,0.0,0.0,-3.0983,-3.3146,-3.3473,-3.3852,-3.5479,-3.6459,-3.7277,-3.8125,-3.8728,-3.933,-4.0177,-4.0634,-4.116,-4.1944,-4.212,-4.231,-4.2701,-4.2776,-4.2776,-4.2728,-4.2289,-4.2043,-4.2043,-4.1498,-4.1198,-4.1174,-4.1312,-4.136,-4.1307,-4.1544,-4.1601,-4.1547,-4.133,-4.1166,-4.1112,-4.1305,-4.1198,-4.0974,-4.1355,-4.1402,-4.1172,-4.1172,-4.1172,-4.1081,-4.0792,-4.0677,-4.0537,-4.0246,-3.9954,-3.9684,-3.9367,-3.9308,-3.9308,-3.9308,-3.9308,-3.9308,-3.9308,-3.9308,-3.9308,-3.9308,-3.8834,-3.8298,-3.8058,-3.7275,-3.6484,-3.6423,-3.5699,-3.5166,-3.5725,-3.5332,-3.4983,-3.5355,-3.5418,-3.5418,-3.5418,-3.5045,-3.4567,-3.3762,-3.2659,-3.1928,-3.1928,-3.1346,-3.0898,-3.0898,-3.0898,-3.0898,-3.0898,-3.0411,-3.0157,-3.0392,-2.9922,-2.9627,-2.9568,-2.8799,-2.8122,-2.7607,-2.6808,-2.6299,-2.6079,-2.661,-2.6846,-2.6772,-2.6846,-2.6227,-2.6447,-2.7635,-2.917,-3.0238,-3.0356,-3.0945,0.0,0.0,-3.3651,-3.5365,-3.573,-3.5783,-3.6009,-3.6735,-3.7422,-3.774,-3.8854,-3.993,-4.0568,-4.116,-4.1657,-4.2052,-4.2523,-4.2674,-4.2213,-4.2387,-4.2462,-4.2239,-4.1895,-4.1746,-4.1746,-4.1248,-4.0846,-4.0593,-4.1255,-4.1549,-4.1307,-4.2283,-4.2674,-4.2395,-4.2339,-4.2171,-4.197,-4.168,-4.1566,-4.1509,-4.132,-4.123,-4.1172,-4.1172,-4.1,-4.0735,-4.0735,-4.0537,-4.0223,-3.9978,-3.9626,-3.9367,-3.9308,-3.9308,-3.9308,-3.9308,-3.9308,-3.9308,-3.9308,-3.9308,-3.9308,-3.9308,-3.8834,-3.838,-3.838,-3.7599,-3.6789,-3.6484,-3.6074,-3.5746,-3.5479,-3.5376,-3.5355,-3.5418,-3.5418,-3.5418,-3.5418,-3.5045,-3.4774,-3.4671,-3.3391,-3.245,-3.245,-3.1524,-3.0898,-3.0898,-3.0898,-3.0898,-3.0898,-3.082,-3.0704,-3.045,-3.0333,-3.0157,-2.9863,-2.9119,-2.8702,-2.8644,-2.7865,-2.7456,-2.7382,-2.7696,-2.7672,-2.7333,-2.7691,-2.7306,-2.879,-3.0318,-3.1603,0.0,-3.2368,-3.3034,-3.4207,-3.4009,-3.4125,-3.5956,-3.621,-3.6454,-3.7637,-3.7878,-3.8172,0.0,-3.9329,-3.9754,-4.0849,-4.0808,-4.0824,-4.1263,-4.1828,-4.2156,-4.2088,-4.2338,-4.2387,-4.2115,-4.1845,-4.1647,-4.1448,-4.1097,-4.0848,-4.0772,-4.1074,-4.142,-4.1806,-4.2093,-4.2326,-4.2513,-4.2118,-4.1891,-4.1802,-4.1516,-4.1402,-4.1344,-4.123,-4.1172,-4.1172,-4.1024,-4.085,-4.0677,-4.0479,-4.0246,-3.9954,-3.9861,-3.9684,-3.9544,-3.9367,-3.9308,-3.9308,-3.9308,-3.9308,-3.9308,-3.9308,-3.9308,-3.9249,-3.9049,-3.8812,-3.8537,-3.8178,-3.7637,-3.7093,-3.6545,-3.6178,-3.5809,-3.5479,-3.5418,-3.5418,-3.5418,-3.5418,-3.5356,-3.517,-3.4964,-3.478,-3.4595,-3.3376,-3.2392,-3.2215,-3.1446,-3.0898,-3.0898,-3.0898,-3.0898,-3.0898,-3.0704,-3.0645,-3.0704,-3.0509,-3.0274,-2.9922,-2.9389,-2.8989,-2.8816,-2.8086,-2.7921,-2.8258,-2.8127,-2.8052,-2.7883,-2.8052,-2.7809,-3.0248,0.0,0.0,-3.312,-3.386,-3.4675,-3.4737,-3.4522,-3.4779,-3.6525,-3.6752,-3.703,-3.8497,-3.8438,-3.8556,-3.9887,-3.9608,-3.9694,-4.1101,-4.0611,-4.0288,-4.0724,-4.1165,-4.1469,-4.1603,-4.2084,-4.2239,-4.1895,-4.1696,-4.1448,-4.1198,-4.1102,-4.0952,-4.0895,-4.1147,-4.149,-4.2048,-4.1977,-4.2004,-4.2231,-4.1834,-4.1549,-4.1492,-4.1287,-4.1172,-4.1172,-4.1172,-4.1172,-4.1172,-4.085,-4.0677,-4.0537,-4.0246,-3.9896,-3.9684,-3.9684,-3.9684,-3.9626,-3.9367,-3.9308,-3.9308,-3.9308,-3.9308,-3.9308,-3.919,-3.9167,-3.9131,-3.8752,-3.8633,-3.8455,-3.7998,-3.7577,-3.7154,-3.6667,-3.6239,-3.5849,-3.5603,-3.5479,-3.5418,-3.5418,-3.5356,-3.5129,-3.482,-3.4676,-3.449,-3.4117,-3.3215,-3.2475,-3.2237,-3.1466,-3.0898,-3.0898,-3.0898,-3.0879,-3.0762,-3.0509,-3.045,-3.0587,-3.0392,-3.0157,-2.9922,-2.9619,-2.9332,-2.9119,-2.8592,-2.8558,-2.9012,-2.8729,-2.8615,-2.8559,-2.8502,-2.8295,0.0,0.0,-3.4226,-3.4082,-3.4689,-3.5547,-3.6645,-3.6436,-3.6384,-3.7586,-3.7848,-3.7874,-3.7926,-3.79,-3.8267,-3.9355,-3.9481,-3.9974,-4.1361,-4.0849,-4.0431,-4.0773,-4.0777,-4.0728,0.0,-4.1452,-4.1895,-4.1374,-4.1324,-4.1198,-4.0946,-4.1158,-4.1155,-4.0895,-4.1692,-4.1998,-4.1693,-4.2239,-4.2206,-4.1606,-4.1606,-4.1435,-4.1172,-4.1172,-4.1172,-4.1172,-4.1172,-4.1172,-4.1172,-4.085,-4.0537,-4.0165,-3.9919,-3.9626,-3.9308,-3.9308,-3.9308,-3.9308,-3.9308,-3.9308,-3.9308,-3.9308,-3.9308,-3.9249,-3.893,-3.8812,-3.8752,-3.8477,-3.8201,-3.7938,-3.7878,-3.7396,-3.6911,-3.6871,-3.6361,-3.5932,-3.587,-3.5603,-3.5418,-3.5418,-3.5108,-3.4799,-3.4371,-3.4044,-3.3738,-3.3369,-3.2991,-3.2693,-3.2693,-3.1643,-3.0898,-3.0898,-3.0898,-3.0762,-3.045,-3.0392,-3.0274,-2.9922,-2.9922,-2.9922,-2.9922,-2.9922,-2.9903,-2.9844,-2.9795,-2.9757,-2.9757,-2.9757,-2.9697,-2.957,-2.9234,-2.9003,-3.1712,0.0,-3.5109,-3.5192,-3.5686,-3.6145,-3.6171,-3.5729,-3.5669,-3.7019,-3.6698,-3.6541,-3.7691,-3.7586,-3.7789,-3.9339,-3.9549,-3.9991,-4.1248,-4.0807,-4.0394,-4.0507,-4.068,0.0,0.0,0.0,0.0,-4.1597,-4.1547,-4.1631,-4.1745,-4.1441,-4.136,-4.1478,-4.1591,-4.1618,-4.1693,-4.1669,-4.1661,-4.1606,-4.1459,-4.1287,-4.1172,-4.1172,-4.1172,-4.1196,-4.0966,-4.085,-4.085,-4.0328,-4.0036,-3.9896,-3.9603,-3.9426,-3.9308,-3.9308,-3.9308,-3.9308,-3.9308,-3.9167,-3.899,-3.899,-3.8834,-3.8679,-3.8537,-3.8537,-3.8477,-3.8178,-3.7998,-3.7878,-3.7637,-3.7396,-3.7154,-3.6911,-3.6545,-3.6178,-3.5932,-3.5603,-3.5356,-3.5108,-3.4759,-3.4329,-3.3738,-3.3294,-3.2833,-3.2234,-3.2252,-3.2252,-3.1957,-3.1309,-3.0898,-3.0898,-3.0898,-3.0762,-3.045,-3.0392,-3.0274,-2.9922,-3.0098,-3.0039,-2.9627,-2.9804,-2.9804,-2.9627,-2.9613,-2.983,-3.018,-3.018,-3.0026,-2.9716,-2.9602,-2.9236,-3.2159,-3.3745,-3.5002,-3.5399,-3.5745,-3.5978,-3.5911,-3.5375,-3.5245,-3.6356,-3.5921,-3.5773,-3.7098,-3.7092,-3.7417,-3.905,-3.9564,-4.0132,-4.1127,-4.0867,-4.0533,-4.0533,-4.0631,-4.0533,0.0,0.0,0.0,-4.1547,-4.1547,-4.1555,-4.1593,-4.1389,-4.1307,-4.1294,-4.143,-4.138,-4.1255,-4.1373,-4.1403,-4.1435,-4.1287,-4.1172,-4.1172,-4.1172,-4.1115,-4.1024,-4.0792,-4.0595,-4.0479,-3.9978,-3.9802,-3.9743,-3.9426,-3.9308,-3.9308,-3.919,-3.9108,-3.9108,-3.9108,-3.899,-3.8812,-3.8693,-3.8537,-3.838,-3.8261,-3.8201,-3.8141,-3.7818,-3.7698,-3.7698,-3.7435,-3.7374,-3.7314,-3.7154,-3.6728,-3.6361,-3.6116,-3.5726,-3.5294,-3.4984,-3.4513,-3.3902,-3.3212,-3.2632,-3.2076,-3.1562,-3.1758,-3.1777,-3.1348,-3.1055,-3.0898,-3.0898,-3.0762,-3.0587,-3.0274,-3.0157,-2.9981,-2.9745,-2.9981,-2.9981,-2.9686,-2.9804,-2.9804,-2.9627,-2.9627,-2.9922,-3.0392,-3.0238,-3.0084,-2.9929,-2.9619,-2.9194,-3.1571,-3.2791,-3.4073,-3.4753,-3.4926,-3.5098,-3.5861,-3.5418,-3.5011,-3.5598,-3.5569,-3.5519,0.0,0.0,-3.7079,-3.8428,-3.937,-4.0288,-4.1063,-4.0949,-4.0803,0.0,0.0,0.0,0.0,0.0,0.0,-4.13,0.0,-4.1073,-4.0593,-4.1055,-4.1025,-4.0526,-4.1309,-4.128,-4.0488,-4.1208,-4.1435,-4.1172,-4.1172,-4.1172,-4.1172,-4.1172,-4.1024,-4.0735,-4.0677,-4.0479,-4.0165,-3.9919,-3.9743,-3.9743,-3.9426,-3.9308,-3.9249,-3.893,-3.8812,-3.8812,-3.8752,-3.8752,-3.8693,-3.8477,-3.838,-3.832,-3.7938,-3.7878,-3.7818,-3.7495,-3.7374,-3.7374,-3.7374,-3.7374,-3.7374,-3.7374,-3.6911,-3.6423,-3.638,-3.5849,-3.5294,-3.4901,-3.4226,-3.3476,-3.2713,-3.1997,-3.1484,-3.1484,-3.1484,-3.1348,-3.0976,-3.0898,-3.0898,-3.0898,-3.0567,-3.0274,-2.9922,-2.9627,-2.9509,-2.9509,-2.9509,-2.9627,-2.9863,-2.9863,-2.9863,-2.9863,-2.9863,-3.002,-3.0353,-2.9969,-2.991,-3.0117,-2.9297,-2.8906,-3.2785,-3.3758,-3.4525,-3.4958,-3.506,-3.5041,-3.5054,-3.4584,-3.4312,-3.4914,-3.4312,-3.3864,0.0,0.0,0.0,-3.7598,-3.8872,0.0,-4.1156,-4.0795,0.0,-4.1136,0.0,-4.0543,-4.0937,-4.1169,0.0,0.0,-4.123,-4.1229,-4.1722,-4.1312,-4.0868,-4.0528,-4.1284,-4.117,-4.0135,-4.0926,-4.1287,-4.1172,-4.1172,-4.1172,-4.1196,-4.0966,-4.0792,-4.0677,-4.0211,-3.9978,-3.9919,-3.9544,-3.9426,-3.9426,-3.9308,-3.9167,-3.893,-3.8812,-3.8633,-3.8477,-3.8238,-3.8118,-3.8118,-3.8058,-3.7878,-3.7637,-3.7555,-3.7495,-3.7495,-3.7435,-3.7374,-3.7374,-3.7374,-3.7374,-3.7374,-3.7374,-3.6911,-3.6316,-3.5976,-3.5435,-3.482,-3.4185,-3.3293,-3.2332,-3.1525,-3.1192,-3.1055,-3.1055,-3.1055,-3.0996,-3.1012,-3.0957,-3.082,-3.0567,-3.045,-3.0274,-2.9922,-2.9627,-2.939,-2.9153,-2.939,-2.945,-2.9213,-2.945,-2.9627,-2.9627,-2.9627,-2.9712,-2.993,-2.9872,-2.96,-2.9238,-2.9023,-2.875,-3.2947,-3.3477,-3.3813,-3.4142,-3.3953,-3.3614,-3.3363,-3.2975,-3.2764,-3.3107,-3.2642,0.0,0.0,0.0,0.0,0.0,0.0,0.0,-4.0435,-4.0697,-4.0932,0.0,-4.101,0.0,-4.1486,-4.1386,-4.1466,0.0,-4.1311,-4.1078,-4.1595,-4.0926,-4.0485,-4.0317,-4.0844,-4.0924,-4.0563,-4.0757,-4.0956,-4.1172,-4.1081,-4.0966,-4.0942,-4.0653,-4.0421,-4.027,-3.9919,-3.9743,-3.9567,-3.9367,-3.9308,-3.9308,-3.9108,-3.899,-3.8752,-3.8514,-3.8298,-3.8118,-3.7818,-3.7698,-3.7698,-3.7698,-3.7555,-3.7374,-3.7374,-3.7374,-3.7374,-3.7374,-3.7374,-3.7374,-3.7374,-3.7374,-3.7374,-3.7374,-3.6911,-3.6234,-3.5646,-3.5063,-3.4329,-3.3195,-3.2552,-3.1894,-3.1035,-3.0898,-3.0898,-3.0898,-3.0898,-3.0859,-3.0759,-3.0722,-3.0645,-3.045,-3.0274,-3.0039,-2.9745,-2.9568,-2.9331,-2.9035,-2.9153,-2.9213,-2.8993,-2.9153,-2.9272,-2.9272,-2.945,-2.9538,-2.9604,-2.9527,-2.9198,-2.8707,-2.8676,-2.8354,-3.2642,-3.2723,-3.2742,-3.2882,-3.2379,-3.1754,-3.1339,-3.1116,-3.0935,-3.0861,0.0,-3.1433,-3.2216,-3.3202,-3.4209,-3.5144,0.0,-3.8851,-3.9577,-4.0517,-4.1219,-4.1298,-4.1246,-4.1354,-4.1827,-4.1544,-4.1619,-4.2234,-4.1518,-4.0978,-4.0869,-4.0463,-4.0253,-4.0277,-4.037,-4.0665,-4.1172,-4.0739,-4.0739,-4.1172,-4.085,-4.0735,-4.0677,-4.0305,-4.0013,-3.9802,-3.9743,-3.9579,-3.9252,-3.9285,-3.9262,-3.9216,-3.8908,-3.8812,-3.8693,-3.8118,-3.7878,-3.7818,-3.7495,-3.7374,-3.7374,-3.7314,-3.7374,-3.7374,-3.7314,-3.7314,-3.7314,-3.7253,-3.7314,-3.7314,-3.7314,-3.7374,-3.7374,-3.7374,-3.6911,-3.6234,-3.5465,-3.4653,-3.3619,-3.2197,-3.1997,-3.1836,-3.1035,-3.0898,-3.0898,-3.0898,-3.0898,-3.0762,-3.0509,-3.045,-3.045,-3.0392,-3.0098,-2.9804,-2.9568,-2.9509,-2.9272,-2.8934,-2.8975,-2.8975,-2.8934,-2.8975,-2.9035,-2.9035,-2.9331,-2.9343,-2.924,-2.9088,-2.8836,-2.841,-2.8315,-2.796,-3.2957,-3.2853,-3.2599,-3.2194,-3.1851,-3.1361,-3.0163,-3.0104,0.0,0.0,-3.05,-3.1301,-3.1385,-3.2828,-3.4297,-3.5382,0.0,0.0,0.0,0.0,-4.0749,0.0,0.0,0.0,0.0,0.0,0.0,0.0,-4.2047,-4.1353,-4.092,-4.1011,-4.1089,-4.1114,-4.0658,-4.066,-4.1172,-4.11,-4.11,-4.1172,-4.085,-4.0735,-4.0677,-4.0153,-3.9861,-3.9802,-3.9508,-3.9231,-3.9036,-3.9242,-3.9231,-3.9059,-3.8889,-3.8633,-3.8418,-3.8058,-3.7698,-3.7495,-3.7435,-3.7374,-3.7314,-3.7093,-3.7154,-3.7314,-3.6728,-3.6789,-3.6911,-3.6667,-3.6789,-3.6972,-3.6972,-3.7214,-3.7374,-3.7374,-3.7093,-3.6539,-3.5444,-3.3962,-3.2654,-3.174,-3.1642,-3.1484,-3.0976,-3.0898,-3.0898,-3.0898,-3.0898,-3.0898,-3.082,-3.082,-3.0704,-3.045,-3.0098,-2.9863,-2.9804,-2.939,-2.8916,-2.8636,-2.8874,-2.8874,-2.8576,-2.8874,-2.9153,-2.939,-2.9213,-2.896,-2.8786,-2.871,-2.846,-2.8022,-2.7999,-2.7906,-3.2723,-3.2524,-3.2184,-3.1851,-3.1146,-3.0219,-2.9011,0.0,0.0,0.0,0.0,-3.0048,-3.0548,0.0,0.0,0.0,0.0,0.0,0.0,0.0,0.0,0.0,0.0,0.0,0.0,0.0,0.0,-4.3387,-4.2772,-4.2149,-4.1594,-4.1414,-4.1225,-4.1052,-4.087,-4.0932,-4.1172,-4.1172,-4.1172,-4.1172,-4.0653,-4.0421,-4.0421,-3.9779,-3.9567,-3.9544,-3.9367,-3.9229,-3.9139,-3.9075,-3.8971,-3.8882,-3.8484,-3.8238,-3.8118,-3.7758,-3.7555,-3.7374,-3.7374,-3.7374,-3.7314,-3.6789,-3.685,-3.7093,-3.6728,-3.6667,-3.6606,-3.6423,-3.6545,-3.6606,-3.6606,-3.6789,-3.6911,-3.7093,-3.6474,-3.5634,-3.4918,-3.3478,-3.2271,-3.1955,-3.168,-3.1445,-3.125,-3.1035,-3.082,-3.0704,-3.0762,-3.084,-3.0645,-3.0762,-3.0762,-3.045,-3.0098,-2.9863,-2.9686,-2.945,-2.9035,-2.8517,-2.8636,-2.8696,-2.8517,-2.8498,-2.8737,-2.9213,-2.8891,-2.8602,-2.8446,-2.8351,-2.8102,-2.7638,-2.7638,-2.7584,-3.237,-3.208,-3.1687,-3.1477,-3.0416,-2.9141,-2.7995,-2.7813,0.0,0.0,-2.8199,-2.8967,-2.9738,0.0,0.0,0.0,0.0,0.0,0.0,0.0,0.0,0.0,0.0,0.0,0.0,0.0,0.0,-4.3687,-4.3209,-4.273,-4.2304,-4.1571,-4.1101,-4.0974,-4.1127,-4.1172,-4.1172,-4.1139,-4.1081,-4.1057,-4.0421,-4.013,-4.013,-3.9544,-3.9308,-3.9308,-3.9308,-3.9298,-3.9206,-3.9003,-3.8862,-3.8653,-3.8194,-3.7938,-3.7878,-3.7495,-3.7374,-3.7374,-3.7374,-3.7314,-3.7214,-3.6667,-3.6667,-3.685,-3.6667,-3.6423,-3.63,-3.6239,-3.6239,-3.63,-3.63,-3.6361,-3.6484,-3.6728,-3.5903,-3.4879,-3.4411,-3.3396,-3.2429,-3.2131,-3.1756,-3.1482,-3.1287,-3.0995,-3.0742,-3.045,-3.0587,-3.0645,-3.045,-3.0587,-3.0587,-3.0333,-3.0039,-2.9804,-2.9627,-2.945,-2.9094,-2.8457,-2.8457,-2.8457,-2.8277,-2.814,-2.8319,-2.8874,-2.859,-2.8302,-2.8106,-2.8033,-2.7729,-2.7314,-2.7314,-2.7206,-3.2062,-3.1808,-3.1117,-3.0951,-2.987,-2.8585,-2.7427,0.0,0.0,-2.6837,-2.8016,-2.8986,-2.8868,-3.0358,-3.1837,0.0,0.0,-3.5787,0.0,0.0,0.0,0.0,0.0,0.0,0.0,0.0,0.0,-4.336,-4.2905,-4.2488,-4.2494,-4.1464,-4.1079,-4.1509,-4.132,-4.1172,-4.1172,-4.0908,-4.0735,-4.0735,-4.0153,-3.9861,-3.9802,-3.9485,-3.9308,-3.9308,-3.9308,-3.9208,-3.9047,-3.916,-3.8974,-3.8491,-3.8379,-3.8201,-3.7878,-3.7495,-3.7374,-3.7374,-3.7374,-3.7214,-3.6911,-3.685,-3.6871,-3.6728,-3.5788,-3.5726,-3.5849,-3.5603,-3.5726,-3.5932,-3.5932,-3.6178,-3.6423,-3.6423,-3.6135,-3.5498,-3.4533,-3.3984,-3.3234,-3.1838,-3.1554,-3.1353,-3.0643,-3.0501,-3.0536,-3.0391,-3.0157,-3.0098,-3.0392,-3.0157,-2.9981,-2.9922,-2.9922,-2.9863,-2.9863,-2.9331,-2.8737,-2.808,-2.8337,-2.8217,-2.7642,-2.814,-2.8457,-2.8517,-2.8432,-2.8187,-2.7822,-2.7716,-2.7454,-2.7043,-2.7043,-2.7043,-3.0609,-3.0785,-3.0733,-3.0408,-2.941,-2.8276,-2.7345,0.0,-2.6939,-2.7002,-2.776,-2.8474,-2.8816,-2.9917,-3.1043,-3.1886,-3.2751,-3.3987,0.0,0.0,0.0,0.0,0.0,0.0,0.0,0.0,-4.19,-4.2354,-4.209,-4.1801,-4.1482,-4.133,-4.1331,-4.1344,-4.123,-4.1139,-4.0908,-4.0792,-4.0595,-4.0421,-3.9978,-3.9802,-3.9802,-3.9426,-3.9308,-3.9308,-3.9308,-3.9091,-3.877,-3.8748,-3.8422,-3.7956,-3.7858,-3.7698,-3.7555,-3.7435,-3.7253,-3.7093,-3.7093,-3.685,-3.6545,-3.6361,-3.63,-3.6239,-3.5809,-3.5665,-3.5541,-3.5418,-3.5479,-3.5603,-3.5603,-3.5849,-3.6116,-3.6116,-3.5849,-3.5438,-3.4821,-3.4022,-3.325,-3.2405,-3.1689,-3.1161,-3.0815,-3.0403,-3.0052,-2.9882,-2.9863,-2.9863,-2.9863,-2.9863,-2.9922,-2.9922,-2.9745,-2.9686,-2.9686,-2.9035,-2.8517,-2.802,-2.796,-2.7762,-2.7521,-2.7762,-2.7973,-2.8156,-2.7875,-2.7648,-2.7416,-2.7124,-2.7012,-2.6989,-2.6845,-2.6845,-2.9329,-2.968,-2.993,-2.9756,-2.8855,-2.7888,0.0,0.0,-2.7009,-2.7093,-2.7534,-2.8039,-2.8491,-2.9397,-3.0374,-3.1244,-3.1918,-3.3048,-3.503,0.0,0.0,0.0,0.0,0.0,0.0,-4.1875,-4.1798,-4.1472,-4.1516,-4.1306,-4.074,-4.1201,-4.1402,-4.1172,-4.1172,-4.1024,-4.0735,-4.0595,-4.0363,-4.0071,-3.9779,-3.9684,-3.9626,-3.9426,-3.9216,-3.9101,-3.9121,-3.8882,-3.8355,-3.8408,-3.8067,-3.7605,-3.756,-3.7495,-3.7374,-3.7275,-3.7093,-3.6871,-3.681,-3.6545,-3.6239,-3.5993,-3.5849,-3.5726,-3.5603,-3.5479,-3.5418,-3.5418,-3.5418,-3.5418,-3.5418,-3.5603,-3.5726,-3.5726,-3.5665,-3.5418,-3.4859,-3.4244,-3.353,-3.2656,-3.178,-3.1076,-3.0653,-3.0146,-2.9758,-2.9527,-2.9568,-2.9627,-2.9509,-2.9568,-2.9627,-2.9627,-2.939,-2.9272,-2.9509,-2.8874,-2.8337,-2.802,-2.7702,-2.7461,-2.7401,-2.7521,-2.7705,-2.7746,-2.7467,-2.7241,-2.7048,-2.6555,-2.6409,-2.6609,-2.6518,-2.6627,-2.833,-2.8675,-2.8603,-2.8944,-2.8195,-2.7341,0.0,-2.6818,-2.6747,-2.6871,-2.7435,-2.7841,-2.7574,-2.8952,-3.0212,-3.0568,-3.2079,-3.3736,-3.5286,0.0,0.0,0.0,0.0,0.0,0.0,-4.1867,-4.1984,-4.0908,-4.129,0.0,-4.0427,-4.0884,-4.1172,-4.1172,-4.1172,-4.1024,-4.0735,-4.0363,-4.0071,-3.9802,-3.9485,-3.9308,-3.9308,-3.9308,-3.9055,-3.8619,-3.8726,-3.842,-3.7828,-3.8272,-3.8067,-3.7582,-3.7799,-3.7698,-3.7374,-3.7032,-3.6932,-3.6871,-3.6545,-3.6178,-3.5932,-3.5932,-3.5665,-3.5356,-3.4984,-3.5108,-3.5418,-3.5418,-3.5418,-3.5418,-3.5418,-3.5418,-3.5418,-3.5418,-3.5665,-3.5603,-3.461,-3.4673,-3.4223,-3.2099,-3.1741,-3.1299,-2.9774,-2.9545,-2.9554,-2.9505,-2.9213,-2.9153,-2.945,-2.9213,-2.8975,-2.8975,-2.8696,-2.8755,-2.945,-2.8874,-2.8337,-2.802,-2.7702,-2.7401,-2.7133,-2.7659,-2.7842,-2.7393,-2.7351,-2.711,-2.6713,-2.604,-2.5734,-2.5734,-2.5953,-2.63,-2.6576,-2.7074,-2.7248,-2.7221,-2.6931,-2.6566,-2.6245,-2.6422,-2.6787,-2.7052,-2.7534,-2.7921,-2.7978,-2.875,-2.9738,-3.0906,-3.185,-3.3093,0.0,0.0,0.0,0.0,0.0,0.0,0.0,0.0,-4.1614,-4.0852,-4.1144,-4.0932,-4.012,-4.0263,-4.064,-4.1172,-4.0966,-4.0711,-4.0363,-4.0071,-3.9779,-3.9426,-3.9367,-3.9167,-3.893,-3.893,-3.8803,-3.8453,-3.8529,-3.8354,-3.802,-3.803,-3.7888,-3.7605,-3.756,-3.7335,-3.7032,-3.6911,-3.6606,-3.6178,-3.6116,-3.587,-3.5541,-3.5294,-3.517,-3.4984,-3.4673,-3.4922,-3.5418,-3.5418,-3.5232,-3.5108,-3.5356,-3.5418,-3.5418,-3.5418,-3.5479,-3.5418,-3.4859,-3.4485,-3.3789,-3.2324,-3.1531,-3.0752,-2.9658,-2.9324,-2.9182,-2.9172,-2.9035,-2.9035,-2.9153,-2.9035,-2.8916,-2.8696,-2.8576,-2.8696,-2.9094,-2.8319,-2.79,-2.802,-2.7539,-2.7194,-2.7073,-2.7414,-2.7376,-2.6986,-2.6939,-2.6713,-2.6316,-2.608,-2.6081,-2.63,-2.6409,-2.6482,-2.4891,-2.5723,-2.6153,-2.5939,-2.5885,-2.5761,-2.5492,-2.6052,-2.6592,-2.6531,-2.7155,-2.7695,-2.7695,-2.8338,-2.934,-3.0525,-3.1539,-3.2779,0.0,0.0,0.0,0.0,0.0,0.0,0.0,-4.1233,-4.1185,-4.0951,-4.0925,-4.0697,-4.0211,-4.0235,-4.0435,-4.0803,-4.0463,-4.0174,-4.0071,-3.9861,-3.9626,-3.9308,-3.9308,-3.9108,-3.8812,-3.8812,-3.8543,-3.8089,-3.8171,-3.7977,0.0,-3.765,-3.7531,-3.7229,-3.7199,-3.7032,-3.6667,-3.6545,-3.6178,-3.5665,-3.5541,-3.5294,-3.4984,-3.4797,-3.461,-3.4485,-3.4423,-3.4673,-3.5046,-3.517,-3.4984,-3.4797,-3.5294,-3.5294,-3.5232,-3.5356,-3.5418,-3.5294,-3.4797,-3.4298,-3.3477,-3.208,-3.1233,-3.0419,-2.948,-2.9153,-2.8975,-2.8975,-2.8975,-2.8975,-2.8975,-2.8975,-2.8801,-2.83,-2.8307,-2.8385,-2.8578,-2.8051,-2.7762,-2.796,-2.7539,-2.7194,-2.7073,-2.7309,-2.714,-2.6677,-2.6685,-2.6459,-2.5953,-2.5953,-2.6136,-2.6409,-2.6409,-2.6482,0.0,-2.4556,-2.517,-2.4998,-2.5004,-2.4988,-2.4792,-2.5605,0.0,-2.5581,-2.6481,-2.7301,-2.7002,-2.7973,-2.9109,-2.9846,-3.1307,-3.2749,0.0,0.0,0.0,0.0,0.0,0.0,-4.0748,-4.0796,-4.0902,-4.1148,-4.0715,-4.0497,-4.0653,-4.0571,-4.0455,-4.0165,-3.9695,-3.9556,-3.9802,-3.9802,-3.9626,-3.9308,-3.9308,-3.9108,-3.8752,-3.8752,-3.8326,-3.7627,-3.7799,-3.7525,-3.692,-3.7242,-3.7112,-3.6643,-3.6859,-3.6667,-3.6361,-3.5993,-3.5665,-3.5294,-3.4984,-3.4673,-3.4423,-3.436,-3.411,-3.3922,-3.4235,-3.436,-3.4423,-3.4797,-3.461,-3.4548,-3.517,-3.5108,-3.4922,-3.5232,-3.5356,-3.517,-3.4548,-3.4173,-3.3414,-3.1631,-3.0987,-3.0358,-2.9182,-2.8975,-2.8975,-2.8975,-2.8975,-2.8975,-2.8975,-2.8975,-2.871,-2.7993,-2.7985,-2.7997,-2.7917,-2.7926,-2.796,-2.802,-2.7702,-2.7401,-2.7099,-2.7257,-2.7047,-2.6411,-2.6575,-2.6367,-2.5734,-2.5734,-2.5844,-2.6136,-2.6136,-2.63,-2.2112,0.0,-2.3481,-2.3653,-2.4015,-2.4266,0.0,-2.4815,-2.5734,-2.5944,-2.6635,-2.7435,-2.8319,-2.8865,-2.9704,-3.1307,-3.224,-3.3179,0.0,0.0,0.0,-3.9526,-4.0275,-4.0716,-4.1046,-4.1094,-4.1052,-4.0826,-4.0731,-4.0419,-4.0036,-3.9639,-3.9418,-3.9521,-3.9059,-3.9117,-3.9802,-3.9544,-3.9367,-3.9308,-3.9308,-3.9012,-3.8477,-3.8477,-3.8111,-3.7462,-3.7774,-3.7805,-3.7666,-3.773,-3.7572,-3.7161,-3.6989,-3.6545,-3.5993,-3.5932,-3.5541,-3.4984,-3.4922,-3.4673,-3.436,-3.411,-3.3796,-3.3544,-3.3607,-3.3796,-3.411,-3.4423,-3.4485,-3.4423,-3.461,-3.461,-3.4548,-3.461,-3.4859,-3.4984,-3.4797,-3.4548,-3.3851,-3.2285,-3.1459,-3.0663,-2.9241,-2.8975,-2.8975,-2.8975,-2.8975,-2.8975,-2.8975,-2.8975,-2.876,-2.8075,-2.7966,-2.7984,-2.8015,-2.7769,-2.7702,-2.796,-2.7702,-2.7262,-2.6628,-2.6836,-2.6756,-2.631,-2.6238,-2.6153,-2.6026,-2.6026,-2.619,-2.6482,-2.6482,-2.6537,-2.1901,-2.2831,-2.3397,-2.3743,-2.412,-2.4382,-2.4266,-2.4915,-2.5588,0.0,0.0,-2.7662,-2.8268,-2.9176,-3.0236,-3.1544,-3.2592,0.0,0.0,0.0,0.0,0.0,-4.0013,-4.0322,0.0,-4.0583,-4.0564,-4.0455,-4.0266,-4.0069,-3.9802,-3.9523,-3.9383,-3.9285,-3.9055,-3.9114,-3.9567,-3.9367,-3.9308,-3.9308,-3.9108,-3.8834,-3.838,-3.8261,-3.7878,-3.7435,-3.7515,-3.75,-3.7435,-3.7336,-3.7057,-3.6707,-3.6484,-3.6116,-3.5665,-3.5479,-3.5108,-3.4673,-3.4485,-3.4235,-3.3922,-3.3733,-3.3544,-3.3418,-3.3418,-3.3544,-3.3796,-3.4235,-3.4173,-3.4047,-3.4485,-3.4423,-3.4235,-3.436,-3.4548,-3.461,-3.4485,-3.4298,-3.3726,-3.2244,-3.1539,-3.0785,-2.948,-2.9094,-2.8975,-2.8975,-2.8975,-2.8975,-2.8975,-2.8975,-2.8664,-2.789,-2.7913,-2.7949,-2.7771,-2.7734,-2.79,-2.8217,-2.79,-2.7494,-2.6986,-2.7035,-2.6907,-2.6507,-2.6113,-2.6081,-2.6354,-2.6354,-2.6409,-2.6591,-2.6591,-2.6591,-2.2196,-2.3352,-2.415,-2.4371,-2.4652,-2.4915,-2.4954,0.0,0.0,0.0,0.0,0.0,-2.8075,-2.9475,0.0,0.0,0.0,0.0,0.0,0.0,0.0,-3.8946,-3.9509,0.0,-3.9855,-3.9902,-3.9969,-4.0141,-3.9719,-3.9475,-3.972,-3.9684,-3.9485,-3.9249,-3.919,-3.9131,-3.9131,-3.919,-3.919,-3.9131,-3.8871,-3.8596,-3.832,-3.7998,-3.7698,-3.7413,-3.7257,-3.7084,-3.6889,-3.678,-3.6402,-3.5932,-3.5932,-3.5665,-3.5294,-3.4984,-3.4673,-3.4298,-3.3922,-3.3607,-3.3418,-3.3418,-3.3418,-3.3418,-3.3418,-3.3355,-3.3481,-3.411,-3.3859,-3.3607,-3.4485,-3.4298,-3.3922,-3.4173,-3.4298,-3.4235,-3.3985,-3.3922,-3.3539,-3.208,-3.16,-3.1028,-2.9699,-2.9272,-2.9094,-2.8975,-2.8975,-2.8975,-2.8975,-2.8975,-2.861,-2.7677,-2.7884,-2.7937,-2.76,-2.7825,-2.814,-2.8576,-2.8146,-2.7699,-2.726,-2.7147,-2.6907,-2.6623,-2.6022,-2.6026,-2.6591,-2.6537,-2.6537,-2.6591,-2.6591,-2.6591,-2.2338,-2.3963,-2.5015,-2.4725,-2.4997,-2.536,-2.5577,-2.5568,0.0,0.0,0.0,0.0,0.0,-3.1029,-3.1837,0.0,0.0,-3.5065,0.0,0.0,-3.7998,-3.8773,0.0,-4.0194,-3.9902,-3.9983,-3.9911,-3.9873,-3.9349,-3.9163,-3.9403,-3.9108,-3.893,-3.8871,-3.8656,-3.8559,-3.8559,-3.8752,-3.8752,-3.8559,-3.85,-3.8298,-3.7998,-3.7938,-3.7698,-3.7435,-3.767,-3.7451,-3.6911,-3.7188,-3.6703,-3.5932,-3.5932,-3.5541,-3.4984,-3.4922,-3.4485,-3.3922,-3.3607,-3.3418,-3.3418,-3.3418,-3.3418,-3.3418,-3.3418,-3.3165,-3.3102,-3.3796,-3.367,-3.3481,-3.3922,-3.3796,-3.3481,-3.3544,-3.3796,-3.3985,-3.3922,-3.411,-3.3913,-3.2385,-3.227,-3.1735,-2.9817,-2.9627,-2.9568,-2.9094,-2.8975,-2.8975,-2.8975,-2.8975,-2.8719,-2.7991,-2.8224,-2.8301,-2.7931,-2.7984,-2.8259,-2.8874,-2.8056,-2.7105,-2.6109,-2.5709,-2.5708,-2.6153,-2.5879,-2.6026,-2.6591,-2.63,-2.63,-2.6591,-2.6591,-2.6591,-2.2191,-2.4031,-2.5569,-2.5785,-2.6335,-2.688,-2.7154,-2.7222,-2.7378,0.0,0.0,0.0,0.0,0.0,-3.2833,-3.4318,0.0,-3.5954,-3.6723,-3.7252,-3.7757,0.0,0.0,-3.9205,-3.8824,-3.8995,-3.8995,-3.8712,-3.8585,-3.8526,-3.8661,-3.8616,-3.8596,-3.8596,-3.844,-3.8261,-3.7878,-3.7976,-3.8036,-3.8118,-3.7938,-3.7758,-3.7637,-3.7275,-3.7093,-3.7132,-3.6992,-3.6712,-3.6401,-3.6609,-3.6167,-3.5356,-3.5541,-3.5232,-3.461,-3.4423,-3.4047,-3.3607,-3.3418,-3.3418,-3.3418,-3.3418,-3.3292,-3.3165,-3.3355,-3.2912,-3.2549,-3.3607,-3.3387,-3.2956,-3.3737,-3.3493,-3.3144,-3.3379,-3.3544,-3.3607,-3.3607,-3.3922,-3.3726,-3.2446,-3.2289,-3.1875,-3.0232,-2.9804,-2.9568,-2.9331,-2.9094,-2.8975,-2.8975,-2.8874,-2.8636,-2.8277,-2.7902,-2.7747,-2.8002,-2.7825,-2.7878,-2.8174,-2.7776,-2.711,-2.6144,-2.5592,-2.5496,-2.5942,-2.5785,-2.5898,-2.6354,-2.6354,-2.6464,-2.6591,-2.6591,-2.6591,-2.2244,-2.4131,-2.5947,-2.6648,-2.7463,-2.8234,-2.8856,-2.9037,-2.915,-2.9512,0.0,0.0,0.0,-3.2577,0.0,-3.5252,-3.612,-3.6723,-3.7132,-3.7248,-3.7436,-3.7844,-3.8156,-3.8138,-3.7864,-3.7962,-3.796,-3.7713,-3.7644,-3.7721,-3.7947,-3.8059,-3.8127,-3.8178,-3.8081,-3.7758,-3.7193,-3.7193,-3.7275,-3.7577,-3.7275,-3.7193,-3.7132,-3.6606,-3.6545,-3.6767,-3.632,-3.6022,-3.5767,-3.5897,-3.5453,-3.4797,-3.5046,-3.4797,-3.4235,-3.3985,-3.367,-3.3418,-3.3418,-3.3355,-3.3292,-3.3292,-3.3058,-3.2867,-3.3102,-3.2613,-3.223,-3.3355,-3.3,-3.2498,-3.3497,-3.3277,-3.2851,-3.3066,-3.3125,-3.3144,-3.3262,-3.347,-3.3358,-3.2366,-3.2229,-3.1875,-3.0585,-3.0079,-2.9745,-2.9509,-2.9213,-2.8993,-2.8856,-2.8576,-2.8397,-2.8397,-2.7683,-2.7441,-2.8039,-2.7878,-2.7605,-2.7369,-2.7293,-2.6906,-2.6087,-2.5508,-2.541,-2.5618,-2.5617,-2.5734,-2.6026,-2.6245,-2.6409,-2.6409,-2.6464,-2.6482,-2.2878,-2.4627,-2.6217,-2.6748,-2.7575,-2.8706,-3.0334,-3.0268,-3.0199,-3.1587,0.0,0.0,0.0,-3.3791,-3.4822,-3.5173,-3.633,-3.7156,-3.718,0.0,-3.7601,-3.7649,-3.7807,-3.7809,-3.7557,-3.7303,-3.7265,-3.7406,-3.6725,-3.6712,-3.761,-3.7406,-3.7332,-3.7495,-3.7154,-3.685,-3.6484,-3.6484,-3.6484,-3.6484,-3.6484,-3.6484,-3.6484,-3.6423,-3.6423,-3.6423,-3.638,-3.6013,-3.5418,-3.5438,-3.5087,-3.4423,-3.4485,-3.4235,-3.3922,-3.3922,-3.367,-3.3418,-3.3418,-3.3165,-3.2931,-3.2931,-3.274,-3.2422,-3.2485,-3.2422,-3.2422,-3.2867,-3.2623,-3.244,-3.3142,-3.306,-3.2695,-3.2344,-3.2266,-3.2363,-3.2754,-3.2832,-3.2777,-3.2326,-3.2391,-3.2096,-3.0644,-3.0626,-3.049,-2.9627,-2.9213,-2.8874,-2.8576,-2.8259,-2.802,-2.802,-2.7902,-2.798,-2.8308,-2.84,-2.7979,-2.7013,-2.6654,-2.5978,-2.4988,-2.4881,-2.4958,-2.5273,-2.5238,-2.5404,-2.5734,-2.5734,-2.5734,-2.5789,-2.6008,-2.6136,-2.2368,-2.4385,-2.6296,-2.6966,-2.8207,-2.9482,-3.049,-3.0845,-3.1337,-3.2366,-3.2485,-3.2511,0.0,0.0,-3.5781,-3.572,-3.6833,-3.7685,-3.7685,-3.7613,-3.7596,-3.7596,-3.7331,-3.7099,-3.7014,-3.6576,-3.6314,-3.6407,-3.6364,-3.6347,-3.6391,-3.6699,-3.6691,-3.6264,-3.6086,-3.5789,-3.5311,-3.5526,-3.5552,-3.539,-3.5846,-3.6116,-3.6116,-3.587,-3.5788,-3.5788,-3.5541,-3.5232,-3.4797,-3.4984,-3.4548,-3.3733,-3.3544,-3.3544,-3.3544,-3.3355,-3.3355,-3.3355,-3.3165,-3.3165,-3.3165,-3.2975,-3.2676,-3.2422,-3.2422,-3.2102,-3.1955,-3.2676,-3.2625,-3.2511,-3.3184,-3.2917,-3.2422,-3.2539,-3.2363,-3.2207,-3.2363,-3.2402,-3.2285,-3.1855,-3.1878,-3.1682,-3.0859,-3.0626,-3.045,-3.0098,-2.9627,-2.9213,-2.8874,-2.8319,-2.808,-2.8277,-2.8313,-2.8142,-2.777,-2.7804,-2.7552,-2.696,-2.6561,-2.5926,-2.4847,-2.4812,-2.4868,-2.4979,-2.5128,-2.5276,-2.5386,-2.5624,-2.5679,-2.5679,-2.5953,-2.6118,-2.2259,-2.4307,-2.6388,-2.6989,-2.8545,-3.0129,-3.0896,-3.1526,-3.23,-3.3529,-3.3577,-3.3482,-3.3689,0.0,0.0,0.0,-3.7135,-3.7892,-3.7892,-3.7625,-3.7435,-3.7328,-3.6928,-3.6657,-3.6603,-3.6004,-3.5676,-3.5676,-3.5747,-3.5694,-3.5575,-3.5925,-3.5858,-3.5371,-3.5253,-3.496,-3.4428,-3.4888,-3.4937,-3.4634,-3.5249,-3.5601,-3.5726,-3.5418,-3.5232,-3.5232,-3.4859,-3.4548,-3.4235,-3.436,-3.3922,-3.3102,-3.3038,-3.3102,-3.3228,-3.3228,-3.3228,-3.3228,-3.2975,-3.2912,-3.2867,-3.2676,-3.2358,-3.2102,-3.2102,-3.1846,-3.1699,-3.2422,-3.2485,-3.2549,-3.3102,-3.2828,-3.2363,-3.2383,-3.2168,-3.1953,-3.1953,-3.1953,-3.1875,-3.1582,-3.1523,-3.1387,-3.0957,-3.0704,-3.0509,-3.045,-2.9804,-2.9213,-2.8916,-2.8199,-2.7804,-2.7979,-2.8206,-2.8068,-2.7387,-2.7293,-2.71,-2.677,-2.6324,-2.5691,-2.4847,-2.4812,-2.4812,-2.4812,-2.5072,-2.5165,-2.5072,-2.5404,-2.5569,-2.5569,-2.5844,-2.6008,-2.2833,-2.4575,-2.6348,-2.6826,-2.8588,-3.0531,-3.1819,-3.2298,-3.3078,-3.5182,-3.4962,-3.4501,-3.4772,-3.5017,0.0,-3.6597,-3.7239,-3.7596,-3.7596,-3.7304,-3.7036,-3.6766,-3.6688,-3.6603,-3.6332,-3.573,-3.5423,-3.5423,-3.4869,-3.4731,-3.5168,-3.4926,-3.4855,-3.4976,-3.4703,-3.4428,-3.4111,-3.4588,-3.4634,-3.4329,-3.4634,-3.5004,-3.5356,-3.5046,-3.4922,-3.4859,-3.4548,-3.4173,-3.3859,-3.3544,-3.2975,-3.2485,-3.3102,-3.3165,-3.2975,-3.3607,-3.3481,-3.2912,-3.2867,-3.2485,-3.1929,-3.1929,-3.1653,-3.1377,-3.1377,-3.1653,-3.191,-3.1929,-3.2102,-3.2485,-3.2804,-3.2874,-3.2578,-3.1719,-3.1523,-3.1523,-3.1504,-3.1504,-3.1504,-3.1504,-3.1504,-3.1387,-3.0957,-3.0898,-3.0762,-3.045,-2.9627,-2.8916,-2.854,-2.7659,-2.7039,-2.688,-2.7551,-2.786,-2.7429,-2.7158,-2.6807,-2.6406,-2.5794,-2.5206,-2.483,-2.4812,-2.4812,-2.4812,-2.5072,-2.5072,-2.4812,-2.5072,-2.5221,-2.5221,-2.5569,-2.5844,-2.3128,-2.5053,-2.693,-2.7722,0.0,0.0,-3.2437,-3.303,-3.3743,0.0,-3.5535,-3.5524,-3.5639,-3.6152,0.0,-3.653,-3.7157,-3.7542,-3.7304,-3.7036,-3.6796,-3.6688,-3.6332,-3.6114,-3.6277,-3.5566,-3.5202,-3.5368,-3.5156,-3.4928,-3.4731,-3.4753,-3.4576,-3.404,-3.3753,-3.3487,-3.312,-3.3649,-3.3919,-3.3799,-3.4309,-3.4613,-3.4652,-3.4533,-3.4389,-3.4173,-3.3859,-3.3481,-3.3165,-3.2613,-3.2485,-3.274,-3.2422,-3.2549,-3.2867,-3.2613,-3.2549,-3.2485,-3.2294,-3.223,-3.223,-3.1974,-3.1653,-3.1377,-3.1377,-3.1313,-3.1267,-3.18,-3.1974,-3.2102,-3.2485,-3.2518,-3.2401,-3.2066,-3.1738,-3.1445,-3.1133,-3.1074,-3.1074,-3.1074,-3.1074,-3.0976,-3.0587,-3.0762,-3.0762,-3.045,-3.0157,-2.9627,-2.8659,-2.7822,-2.7262,-2.6939,-2.7551,-2.792,-2.7764,-2.7244,-2.6875,-2.6752,-2.5817,-2.5138,-2.483,-2.4812,-2.4812,-2.4812,-2.4868,-2.4868,-2.4812,-2.5072,-2.5221,-2.5221,-2.5734,-2.6008,-2.3341,-2.534,-2.7356,-2.8379,-3.0136,-3.1926,-3.3338,0.0,0.0,0.0,-3.5904,-3.6053,-3.626,-3.6521,0.0,-3.6703,-3.7009,-3.7143,-3.6982,-3.6796,-3.6657,-3.6549,-3.6332,-3.6114,-3.6114,-3.5533,-3.5202,-3.5257,-3.5055,-3.4818,-3.4534,-3.4515,-3.4253,-3.3636,-3.3353,-3.3033,-3.2669,-3.3323,-3.3535,-3.3415,-3.3942,-3.4138,-3.4047,-3.4099,-3.4057,-3.3859,-3.3544,-3.3102,-3.2676,-3.2294,-3.223,-3.2485,-3.2038,-3.2166,-3.2485,-3.2166,-3.2166,-3.2166,-3.1974,-3.1846,-3.1782,-3.1589,-3.1267,-3.1009,-3.1009,-3.0944,-3.1009,-3.1396,-3.1589,-3.1782,-3.2102,-3.2166,-3.215,-3.1996,-3.1772,-3.1422,-3.1016,-3.0898,-3.084,-3.0704,-3.082,-3.0762,-3.045,-3.0567,-3.0645,-3.045,-2.9962,-2.9313,-2.8421,-2.7702,-2.7271,-2.6986,-2.7399,-2.7561,-2.7352,-2.6848,-2.6451,-2.6294,-2.5531,-2.4962,-2.4812,-2.4812,-2.4812,-2.4812,-2.4812,-2.4812,-2.4812,-2.4979,-2.5183,-2.5404,-2.5789,-2.6081,-2.3515,-2.5444,-2.7554,-2.8852,-3.0352,0.0,-3.4246,-3.5368,-3.5951,-3.5999,0.0,-3.625,-3.6725,-3.6409,-3.6284,-3.6965,-3.6874,-3.6712,-3.6657,-3.6657,-3.6603,-3.6332,-3.6495,-3.6386,-3.584,-3.5533,-3.5257,-3.5035,-3.4702,-3.4479,-3.4479,-3.4199,-3.3918,-3.3579,-3.3296,-3.3033,-3.2669,-3.3264,-3.3415,-3.3115,-3.3537,-3.3607,-3.3418,-3.3694,-3.3757,-3.3733,-3.3481,-3.2975,-3.2358,-3.2358,-3.2166,-3.1929,-3.1846,-3.1846,-3.191,-3.223,-3.2102,-3.18,-3.18,-3.1396,-3.0879,-3.0879,-3.062,-3.0378,-3.0378,-3.0555,-3.0815,-3.0815,-3.1102,-3.1405,-3.1717,-3.179,-3.1675,-3.1546,-3.1539,-3.143,-3.0898,-3.084,-3.0762,-3.045,-3.0645,-3.0762,-3.0392,-3.0392,-3.045,-3.0392,-2.9313,-2.8361,-2.808,-2.7461,-2.7039,-2.7073,-2.7039,-2.6945,-2.6567,-2.6148,-2.5771,-2.5451,-2.5018,-2.4812,-2.4812,-2.4812,-2.4812,-2.4812,-2.4812,-2.4812,-2.4812,-2.4868,-2.5145,-2.5679,-2.5734,-2.6026,-2.3633,-2.5338,0.0,0.0,-3.0714,-3.2676,-3.414,-3.4983,-3.5577,-3.6185,-3.6626,-3.6925,-3.7032,-3.6925,-3.6841,-3.6796,-3.6766,-3.6657,-3.644,-3.6386,-3.6386,-3.6332,-3.595,-3.5676,-3.5808,-3.5146,-3.4813,-3.498,-3.4702,-3.4423,-3.4199,-3.3861,-3.3579,-3.3296,-3.2955,-3.2784,-3.2669,-3.3028,-3.3175,-3.3115,-3.3344,-3.3466,-3.3418,-3.3066,-3.2855,-3.274,-3.2931,-3.2613,-3.1993,-3.1993,-3.1974,-3.1846,-3.1589,-3.1653,-3.1864,-3.1717,-3.1377,-3.1138,-3.1138,-3.0879,-3.0508,-3.0508,-3.023,-3.0018,-3.0296,-3.023,-3.0083,-3.0426,-3.0534,-3.061,-3.0983,-3.0874,-3.0593,-3.0859,-3.1233,-3.1309,-3.0348,-3.0528,-3.0704,-3.0098,-3.047,-3.0704,-3.0098,-3.047,-3.0704,-3.045,-2.9313,-2.848,-2.8421,-2.7379,-2.673,-2.7039,-2.6799,-2.6695,-2.6863,-2.6265,-2.5887,-2.5809,-2.5203,-2.4812,-2.4812,-2.4812,-2.4812,-2.4812,-2.5017,-2.5017,-2.4812,-2.5255,-2.5459,-2.5331,-2.5789,-2.6063,-2.3406,0.0,0.0,-2.9956,0.0,-3.265,-3.4113,-3.4722,-3.5245,-3.6016,-3.647,-3.6766,-3.685,-3.6657,-3.6495,-3.6495,-3.6277,-3.6059,-3.6059,-3.595,-3.584,-3.584,-3.5588,-3.5423,-3.5423,-3.4869,-3.4534,-3.459,-3.4423,-3.4255,-3.4086,-3.3918,-3.3692,-3.3409,-3.3069,-3.2887,-3.2806,-3.3011,-3.3156,-3.3194,-3.3355,-3.3292,-3.3165,-3.2932,-3.2656,-3.2422,-3.2613,-3.2358,-3.1929,-3.1929,-3.1929,-3.1846,-3.1506,-3.1506,-3.1653,-3.1442,-3.1184,-3.0879,-3.0879,-3.0555,-3.01,-3.01,-2.9822,-2.9626,-2.9839,-2.9822,-2.9822,-3.0018,-3.0219,-3.037,-3.0631,-3.0573,-3.0473,-3.0277,-3.0592,-3.0759,-3.0232,-3.0274,-3.0352,-2.9981,-3.0176,-3.0294,-2.9804,-2.9981,-3.0157,-2.9981,-2.8969,-2.8264,-2.8462,-2.7329,-2.653,-2.6807,-2.6456,-2.6323,-2.6614,-2.6002,-2.5668,-2.5793,-2.5155,-2.4812,-2.4812,-2.4812,-2.4812,-2.4812,-2.4923,-2.4923,-2.4812,-2.5145,-2.5238,-2.5221,-2.5679,-2.5953,-2.2879,0.0,-2.8196,-3.1229,-3.2041,0.0,-3.3897,-3.4443,-3.4871,-3.5567,-3.6079,-3.644,-3.6603,-3.6168,-3.5895,-3.6277,-3.5785,-3.5478,-3.5753,-3.5588,-3.5423,-3.5423,-3.5368,-3.5257,-3.5035,-3.4646,-3.4367,-3.4086,-3.403,-3.3974,-3.3918,-3.3918,-3.3805,-3.3466,-3.3239,-3.3048,-3.2901,-3.3053,-3.3155,-3.3287,-3.3348,-3.3228,-3.2975,-3.2867,-3.2676,-3.2422,-3.2422,-3.223,-3.1929,-3.1929,-3.1846,-3.1782,-3.1506,-3.1377,-3.1377,-3.1377,-3.1184,-3.0879,-3.0879,-3.0408,-2.9805,-2.9805,-2.9561,-2.9316,-2.9316,-2.9495,-2.9691,-2.9691,-2.9982,-3.0225,-3.0278,-3.0477,-3.041,-2.9815,-2.9819,-2.9938,-3.0116,-3.0098,-2.9922,-2.9804,-2.9804,-2.9804,-2.9627,-2.9568,-2.9549,-2.9474,-2.859,-2.7993,-2.8305,-2.7128,-2.6365,-2.653,-2.6179,-2.6047,-2.6243,-2.5926,-2.5769,-2.5879,-2.5311,-2.4979,-2.4979,-2.4923,-2.4868,-2.4812,-2.4868,-2.4868,-2.4812,-2.4868,-2.4979,-2.5128,-2.5514,-2.5789,-2.2045,0.0,-2.8277,0.0,-3.1786,-3.2365,0.0,0.0,-3.4267,0.0,-3.5848,-3.6603,-3.6386,-3.6059,-3.5895,-3.6277,-3.5785,-3.5478,-3.5753,-3.5588,-3.5423,-3.5423,-3.5202,-3.5035,-3.498,-3.4479,-3.4142,-3.4086,-3.3861,-3.3579,-3.3296,-3.3296,-3.3182,-3.2841,-3.2784,-3.2819,-3.2901,-3.3053,-3.3155,-3.3287,-3.3348,-3.3355,-3.3292,-3.274,-3.2422,-3.2422,-3.2422,-3.223,-3.1929,-3.1929,-3.1717,-3.1442,-3.1442,-3.1377,-3.1377,-3.1377,-3.1184,-3.0879,-3.0879,-3.0408,-2.9805,-2.9805,-2.9561,-2.9316,-2.9316,-2.9316,-2.9382,-2.9382,-2.9336,-2.9404,-2.98,-2.9598,-2.94,-2.9617,-2.9416,-2.9168,-2.9172,-2.9804,-3.0098,-2.9272,-2.9509,-2.9863,-2.9863,-2.9863,-2.9749,-2.939,-2.8523,-2.7911,-2.7833,-2.6676,-2.6097,-2.6712,-2.6412,-2.6279,-2.6601,-2.6769,-2.6755,-2.6518,-2.6118,-2.5806,-2.5569,-2.5293,-2.5017,-2.4812,-2.5017,-2.5017,-2.4812,-2.5017,-2.5072,-2.4868,-2.5459,-2.5734,-2.2891,-2.5209,-2.7547,0.0,-3.0606,-3.0928,-3.2661,0.0,-3.3434,-3.4393,-3.5363,-3.6095,-3.6263,-3.6004,-3.584,-3.6004,-3.5533,-3.5202,-3.5312,-3.5091,-3.4869,-3.4702,-3.459,-3.4423,-3.4255,-3.3861,-3.3579,-3.3579,-3.3466,-3.3296,-3.3203,-3.3203,-3.3126,-3.2955,-3.2784,-3.2646,-3.2608,-3.2934,-3.3214,-3.3332,-3.3403,-3.3418,-3.3355,-3.274,-3.2422,-3.2358,-3.2038,-3.1782,-3.1653,-3.1653,-3.1506,-3.1377,-3.1377,-3.1377,-3.1377,-3.1377,-3.1073,-3.062,-3.062,-3.0165,-2.9495,-2.9495,-2.943,-2.9316,-2.9316,-2.9179,-2.9008,-2.9008,-2.9017,-2.8995,-2.9215,-2.9363,-2.9446,-2.9368,-2.9519,-2.9628,-2.9415,-2.9498,-2.9509,-2.9094,-2.939,-2.9627,-2.945,-2.9686,-2.9806,-2.9442,-2.8867,-2.8447,-2.8425,-2.7377,-2.6729,-2.6831,-2.6608,-2.6567,-2.683,-2.6646,-2.6628,-2.6826,-2.6391,-2.6081,-2.5898,-2.5953,-2.5789,-2.5311,-2.5238,-2.5072,-2.4812,-2.5072,-2.5072,-2.4812,-2.5421,-2.5624,-2.3389,-2.501,-2.6451,-2.8919,-2.9395,-2.9851,0.0,0.0,-3.2814,0.0,-3.4653,-3.523,-3.5848,-3.5859,-3.5808,-3.5808,-3.5368,-3.498,-3.498,-3.4646,-3.4311,-3.4142,-3.403,-3.3861,-3.3636,-3.3353,-3.3203,-3.3203,-3.3146,-3.3069,-3.3069,-3.3069,-3.3069,-3.3069,-3.2841,-3.2588,-3.2372,-3.2695,-3.301,-3.3262,-3.3262,-3.3257,-3.3228,-3.2676,-3.2358,-3.223,-3.1635,-3.1377,-3.1377,-3.1313,-3.1313,-3.1377,-3.1184,-3.1184,-3.1249,-3.1249,-3.0944,-3.049,-3.0426,-3.0035,-2.9513,-2.9233,-2.9185,-2.9185,-2.9053,-2.8867,-2.8629,-2.8544,-2.851,-2.8493,-2.852,-2.8948,-2.9305,-2.894,-2.952,-3.0067,-2.9788,-2.9402,-2.9104,-2.9012,-2.9272,-2.939,-2.8934,-2.939,-2.9707,-2.9359,-2.8981,-2.8735,-2.8763,-2.7919,-2.7233,-2.7011,-2.6893,-2.6884,-2.7081,-2.6772,-2.6772,-2.7314,-2.6826,-2.65,-2.6445,-2.6609,-2.6445,-2.5953,-2.5624,-2.5238,-2.4812,-2.5017,-2.5017,-2.4812,-2.5348,-2.5459,-2.2598,-2.3919,-2.5138,-2.7063,-2.8509,0.0,0.0,0.0,-3.2764,-3.3798,-3.3845,-3.4032,-3.5009,-3.5523,-3.5808,-3.5808,-3.5368,-3.498,-3.498,-3.4479,-3.4086,-3.4086,-3.3805,-3.3636,-3.3636,-3.3353,-3.3203,-3.3203,-3.2898,-3.2727,-3.2727,-3.2727,-3.2727,-3.2727,-3.2727,-3.2588,-3.2372,-3.2295,-3.2444,-3.2832,-3.2832,-3.284,-3.2912,-3.2549,-3.223,-3.191,-3.157,-3.1377,-3.1377,-3.1073,-3.112,-3.1313,-3.0685,-3.062,-3.0944,-3.0944,-3.0879,-3.0815,-3.0426,-3.0296,-3.0183,-2.9168,-2.8856,-2.8741,-2.8461,-2.8312,-2.8229,-2.7865,-2.7766,-2.7748,-2.7798,-2.8048,-2.8277,-2.8174,-2.8986,-2.9785,-3.0055,-2.9804,-2.9434,-2.9048,-2.9272,-2.9272,-2.8636,-2.9094,-2.9378,-2.8909,-2.8621,-2.8376,-2.8274,-2.7687,-2.7296,-2.7195,-2.7196,-2.7234,-2.7352,-2.7638,-2.7906,-2.8194,-2.796,-2.7638,-2.7368,-2.7098,-2.6826,-2.6554,-2.6227,-2.5641,-2.4812,-2.4812,-2.4812,-2.4812,-2.5072,-2.5221,-2.1627,-2.2574,0.0,-2.548,-2.6939,-2.8271,-2.9648,-3.0788,-3.1823,-3.2833,-3.3115,-3.3345,-3.4003,-3.4441,-3.4769,-3.5201,-3.4613,-3.4085,-3.423,-3.3792,-3.3431,-3.3369,-3.3056,-3.2903,-3.2991,-3.2784,-3.2659,-3.2686,-3.2675,-3.2659,-3.2517,-3.2618,-3.2669,-3.2669,-3.2669,-3.2588,-3.2372,-3.1959,-3.1973,-3.2402,-3.2656,-3.2685,-3.2527,-3.2435,-3.223,-3.1864,-3.157,-3.1249,-3.1073,-3.1184,-3.1073,-3.075,-3.075,-3.0685,-3.0555,-3.0555,-3.0426,-3.0148,-3.0018,-2.9709,-2.9333,-2.8922,-2.8659,-2.8477,-2.8329,-2.8097,-2.7882,-2.771,-2.7546,-2.7352,-2.7365,-2.7449,-2.7664,-2.8077,-2.8772,-2.9395,-2.9428,-2.9739,-2.9721,-2.8823,-2.8934,-2.8975,-2.8259,-2.8897,-2.9316,-2.895,-2.905,-2.9053,-2.9021,-2.867,-2.818,-2.7618,-2.7902,-2.7902,-2.7444,-2.7691,-2.796,-2.8014,-2.796,-2.7853,-2.7745,-2.7799,-2.7584,-2.7098,-2.6989,-2.6391,-2.5366,-2.5183,-2.5072,-2.5072,-2.5404,-2.5404,-2.1024,-2.1644,0.0,0.0,0.0,-2.6612,-2.8296,0.0,-3.0651,-3.1586,-3.2143,-3.2627,-3.2999,-3.3019,-3.3346,-3.4515,-3.4161,-3.3744,-3.3693,-3.3161,-3.2696,-3.2526,-3.2238,-3.2086,-3.2117,-3.2169,-3.2184,-3.2155,-3.2457,-3.2659,-3.2496,-3.2561,-3.2498,-3.2383,-3.2268,-3.216,-3.2034,-3.1525,-3.1523,-3.1953,-3.2226,-3.2273,-3.2128,-3.2163,-3.2035,-3.1717,-3.1506,-3.1111,-3.0699,-3.0954,-3.0725,-3.0183,-3.0307,-3.0296,-3.023,-3.023,-3.0018,-2.9805,-2.9691,-2.9316,-2.8939,-2.8527,-2.8263,-2.8064,-2.7932,-2.7752,-2.7491,-2.7389,-2.7208,-2.6964,-2.6915,-2.7039,-2.7349,-2.8225,-2.8713,-2.9092,-2.9279,-2.9723,-2.9701,-2.8541,-2.8696,-2.8797,-2.814,-2.8719,-2.9213,-2.9035,-2.9213,-2.9331,-2.9331,-2.9153,-2.8663,-2.7914,-2.8219,-2.8127,-2.7335,-2.7638,-2.7906,-2.7906,-2.796,-2.8014,-2.8014,-2.8194,-2.8121,-2.7691,-2.7476,-2.7043,-2.6282,-2.5679,-2.5386,-2.5386,-2.5459,-2.5514,0.0,0.0,0.0,0.0,0.0,0.0,-2.7148,0.0,-2.9353,-3.0141,-3.0964,-3.1672,-3.1933,-3.1344,-3.1622,-3.3798,-3.4085,-3.3922,-3.342,-3.2629,-3.206,-3.1831,-3.1504,-3.123,-3.0956,-3.1587,-3.1855,-3.161,-3.2287,-3.2669,-3.2649,-3.242,-3.2133,-3.1787,-3.1441,-3.1325,-3.1325,-3.1054,-3.1094,-3.1504,-3.1504,-3.159,-3.1797,-3.1816,-3.1645,-3.1377,-3.1359,-3.0966,-3.032,-3.0413,-3.013,-2.9747,-2.9422,-2.9495,-2.9805,-2.9805,-2.9805,-2.9739,-2.943,-2.9316,-2.9102,-2.8048,-2.77,-2.765,-2.7334,-2.72,-2.7121,-2.6756,-2.6665,-2.6566,-2.6569,-2.6778,-2.7347,-2.8443,-2.868,-2.8902,-2.9588,-2.9708,-2.9331,-2.824,-2.8517,-2.8737,-2.808,-2.8558,-2.8975,-2.8975,-2.8993,-2.8975,-2.8975,-2.8975,-2.8682,-2.7932,-2.8068,-2.7903,-2.7082,-2.753,-2.7906,-2.7906,-2.8121,-2.8301,-2.8301,-2.8301,-2.8301,-2.8301,-2.7691,-2.7441,-2.7422,-2.6282,-2.5734,-2.5679,-2.5386,-2.5569,-2.0276,0.0,0.0,0.0,0.0,0.0,0.0,0.0,-2.7605,-2.9351,-2.9389,-2.9465,-3.0754,-3.0756,-3.099,-3.2118,-3.1883,-3.1646,-3.1966,-3.1561,-3.1233,-3.1305,-3.1025,-3.0934,-3.123,-3.1552,-3.1731,0.0,-3.2327,-3.2525,-3.2194,-3.2027,-3.1903,-3.1787,-3.1441,-3.1325,-3.1325,-3.1054,-3.082,-3.0683,-3.1249,-3.1315,-3.1052,-3.1539,-3.1645,-3.1359,-3.1084,-3.071,-3.032,-3.0653,-3.0065,-2.9124,-2.9488,-2.9518,-2.9374,-2.9717,-2.9648,-2.9391,-2.9344,-2.8988,-2.8461,-2.7915,-2.7517,-2.7334,-2.72,-2.72,-2.714,-2.6713,-2.6472,-2.62,-2.5654,-2.5905,-2.6455,-2.6756,-2.7611,-2.8386,-2.8525,-2.8965,-2.9116,-2.8219,-2.8154,-2.808,-2.7496,-2.8097,-2.8576,-2.8319,-2.8677,-2.8975,-2.8975,-2.8975,-2.8792,-2.8278,-2.8234,-2.8014,-2.7492,-2.772,-2.7906,-2.7906,-2.8121,-2.8301,-2.8301,-2.8301,-2.8301,-2.8301,-2.814,-2.8033,-2.8033,-2.6935,-2.6227,-2.5953,-2.5679,-2.5898,-2.0521,0.0,0.0,0.0,0.0,0.0,0.0,-2.4914,-2.5793,0.0,-2.7832,-2.816,-2.9283,-2.9485,-2.9618,-3.0166,-2.9817,-2.9913,-3.1295,-3.0999,-3.0652,-3.0611,-3.0494,-3.0438,-3.0599,-3.1162,-3.1429,-3.1271,-3.204,-3.2317,-3.1767,-3.1647,-3.1556,-3.146,-3.1228,-3.1112,-3.1112,-3.0995,-3.0704,-3.0392,-3.0819,-3.0809,-3.0437,-3.1052,-3.1164,-3.0882,-3.0809,-3.0419,-2.9833,-3.0212,-2.9829,-2.9025,-2.9077,-2.906,-2.9042,-2.912,-2.9004,-2.8802,-2.8983,-2.8659,-2.7981,-2.7783,-2.7451,-2.7169,-2.7026,-2.711,-2.7064,-2.6552,-2.6296,-2.6055,-2.5448,-2.5778,-2.63,-2.6326,-2.7125,-2.8043,-2.8334,-2.8513,-2.8449,-2.8174,-2.8306,-2.8215,-2.7392,-2.8097,-2.8576,-2.808,-2.8558,-2.8934,-2.8815,-2.8916,-2.8828,-2.8443,-2.8309,-2.7995,-2.7493,-2.7614,-2.7691,-2.7691,-2.796,-2.8174,-2.8301,-2.8301,-2.8301,-2.8301,-2.8301,-2.8228,-2.8121,-2.7314,-2.6663,-2.6118,-2.6063,-2.6172,-2.1316,-2.0815,0.0,0.0,0.0,0.0,-2.3094,-2.3562,-2.4079,0.0,-2.6238,-2.7129,-2.7608,-2.7672,-2.7778,-2.8071,-2.7942,-2.8561,-3.0891,-3.0631,-3.0161,-2.9964,-2.9984,-2.988,-2.9606,-3.0619,-3.11,-3.057,-3.1568,-3.196,-3.1325,-3.1267,-3.1112,-3.082,-3.0898,-3.0898,-3.082,-3.0898,-3.0704,-3.0333,-3.0392,-3.0268,-3.0023,-3.0395,-3.0458,-3.0222,-3.0453,-3.0091,-2.9245,-2.9498,-2.9467,-2.9189,-2.8559,-2.8501,-2.8729,-2.8426,-2.8314,-2.8219,-2.854,-2.823,-2.77,-2.765,-2.7451,-2.7137,-2.6787,-2.6937,-2.6987,-2.6328,-2.6087,-2.5937,-2.574,-2.6116,-2.6549,-2.6653,-2.7109,-2.7809,-2.8563,-2.8205,-2.7819,-2.8068,-2.8579,-2.8603,-2.7651,-2.8259,-2.8677,-2.802,-2.8498,-2.8797,-2.8517,-2.8755,-2.8847,-2.8498,-2.8325,-2.7957,-2.7326,-2.7361,-2.7425,-2.7387,-2.7691,-2.8014,-2.8247,-2.8301,-2.8301,-2.8301,-2.8301,-2.8174,-2.796,-2.7584,-2.6989,-2.6227,-2.65,-2.6445,-2.2271,-2.165,-2.1431,-2.1888,0.0,0.0,-2.2345,-2.2604,-2.3073,0.0,-2.4405,-2.4552,-2.5637,-2.5658,-2.5721,-2.6364,-2.6412,-2.6982,-2.8964,-2.9281,-2.9396,-2.9722,-2.9764,-2.9704,-2.9618,-3.0331,-3.0859,-3.0805,-3.1511,-3.173,-3.1325,-3.1112,-3.082,-3.0509,-3.0762,-3.0762,-3.0509,-3.0762,-3.0587,-2.9981,-3.0274,-3.013,-2.9702,-2.9775,-2.9935,-3.0185,-2.9683,-2.9621,-2.9915,-2.9391,-2.8967,-2.8747,-2.8914,-2.8799,-2.8641,-2.8626,-2.8415,-2.8086,-2.7944,-2.7802,-2.765,-2.74,-2.7267,-2.7137,-2.6787,-2.6741,-2.6679,-2.5914,-2.5485,-2.5448,-2.5967,-2.6113,-2.6349,-2.6856,-2.7311,-2.7723,-2.8203,-2.8222,-2.8145,-2.8152,-2.8013,-2.7747,-2.7245,-2.7719,-2.808,-2.7642,-2.7942,-2.8259,-2.8457,-2.8576,-2.8659,-2.8883,-2.8575,-2.8171,-2.7748,-2.7623,-2.7417,-2.7116,-2.7584,-2.7906,-2.796,-2.8194,-2.8301,-2.8301,-2.8301,-2.8281,-2.8228,-2.7638,-2.7314,-2.7152,-2.6772,-2.6663,-2.2713,-2.2067,-2.1908,-2.1888,0.0,0.0,0.0,-2.1767,-2.1944,-2.3018,-2.287,-2.2885,-2.3919,-2.3924,-2.3906,-2.4384,-2.4618,-2.5109,-2.6172,-2.7568,-2.864,-2.9119,-2.9283,-2.937,-2.9446,-2.9951,-3.0348,-3.0454,-3.0781,-3.093,-3.0758,-3.0878,-3.082,-3.0645,-3.0645,-3.0645,-3.0645,-3.047,-3.0216,-2.9922,-2.9922,-2.9739,-2.9287,-2.9489,-2.958,-2.9599,-2.9398,-2.9459,-2.9562,-2.9159,-2.8924,-2.8763,-2.8455,-2.8298,-2.8333,-2.8013,-2.777,-2.7604,-2.7713,-2.7687,-2.767,-2.7535,-2.7334,-2.7172,-2.6776,-2.6424,-2.6088,-2.5912,-2.5753,-2.5785,-2.6293,-2.6379,-2.6508,-2.7248,-2.7492,-2.7775,-2.8357,-2.8229,-2.7925,-2.7938,-2.7655,-2.7289,-2.7115,-2.7478,-2.7659,-2.7358,-2.7539,-2.784,-2.796,-2.8277,-2.8576,-2.8755,-2.8509,-2.8223,-2.7858,-2.7566,-2.7271,-2.7027,-2.726,-2.753,-2.7638,-2.796,-2.8174,-2.8301,-2.8301,-2.8228,-2.8121,-2.7906,-2.7691,-2.7368,-2.7422,-2.7206,0.0,0.0,0.0,0.0,0.0,-2.1525,0.0,0.0,0.0,-2.1765,0.0,0.0,0.0,0.0,0.0,0.0,0.0,0.0,0.0,-2.5396,0.0,-2.7911,-2.8342,-2.8663,-2.8906,-2.9394,-2.9749,-3.0093,-2.9967,-2.9998,-3.0252,-3.0566,-3.0684,-3.0704,-3.0509,-3.045,-3.0645,-3.0157,-2.9863,-2.9745,-2.9509,-2.9213,-2.8934,-2.9185,-2.9167,-2.8934,-2.9263,-2.9227,-2.8916,-2.8993,-2.8975,-2.8916,-2.8122,-2.7895,-2.8009,-2.7395,-2.712,-2.7039,-2.7435,-2.7587,-2.7637,-2.7801,-2.7602,-2.7258,-2.6939,-2.6391,-2.5865,-2.6163,-2.6183,-2.6296,-2.668,-2.6692,-2.681,-2.7634,-2.7684,-2.7849,-2.8631,-2.8185,-2.7648,-2.7667,-2.7297,-2.6985,-2.701,-2.7177,-2.728,-2.7133,-2.7237,-2.7401,-2.7521,-2.796,-2.8337,-2.8397,-2.8346,-2.8159,-2.774,-2.7413,-2.7123,-2.6865,-2.6918,-2.7098,-2.7314,-2.7745,-2.8067,-2.8301,-2.8301,-2.8174,-2.796,-2.8174,-2.8014,-2.7476,-2.8014,-2.7745,0.0,0.0,0.0,0.0,-2.3682,0.0,0.0,0.0,-2.1115,-2.082,0.0,0.0,0.0,0.0,0.0,0.0,0.0,0.0,-2.156,-2.2209,-2.3473,-2.5664,-2.6499,-2.7091,-2.7672,-2.8354,-2.926,-3.0422,-2.9501,-2.9332,-3.0497,-3.0159,-2.9949,-3.0039,-3.0274,-3.0157,-2.9686,-2.9804,-2.9627,-2.9094,-2.9035,-2.8874,-2.8576,-2.8313,-2.8313,-2.8576,-2.863,-2.8612,-2.8576,-2.8874,-2.8975,-2.8993,-2.8856,-2.8475,-2.797,-2.7591,-2.7129,-2.6678,-2.7107,-2.7261,-2.7393,-2.8015,-2.7966,-2.7621,-2.7603,-2.7131,-2.6599,-2.6599,-2.644,-2.6344,-2.6987,-2.6874,-2.6871,-2.7891,-2.7882,-2.7921,-2.8618,-2.8,-2.735,-2.7617,-2.716,-2.6686,-2.6655,-2.6692,-2.6813,-2.7073,-2.6874,-2.6874,-2.7461,-2.7581,-2.7702,-2.802,-2.8044,-2.7866,-2.7475,-2.7373,-2.7035,-2.6415,-2.6756,-2.6989,-2.7043,-2.7799,-2.8301,-2.8301,-2.8301,-2.8301,-2.8228,-2.8301,-2.8121,-2.7853,-2.7906,-2.8014,0.0,0.0,0.0,0.0,0.0,0.0,-2.2308,0.0,-2.0387,0.0,0.0,0.0,0.0,0.0,0.0,0.0,-1.9504,0.0,0.0,0.0,-2.1637,0.0,0.0,0.0,-2.6208,-2.6594,-2.7201,-2.8086,-2.8115,-2.8416,-2.907,-2.9836,-3.0121,-2.9852,-3.0023,-2.9981,-2.9745,-2.9509,-2.9272,-2.8975,-2.9213,-2.8975,-2.8517,-2.8737,-2.8856,-2.8815,-2.8815,-2.8815,-2.8815,-2.8916,-2.8874,-2.8714,-2.895,-2.8637,-2.796,-2.7478,-2.7234,-2.7238,-2.742,-2.7741,-2.8125,-2.8279,-2.8211,-2.7977,-2.7523,-2.7344,-2.7294,-2.7294,-2.7376,-2.7442,-2.7802,-2.7556,-2.744,-2.808,-2.7945,-2.7844,-2.8422,-2.7816,-2.718,-2.7142,-2.6687,-2.6264,-2.6027,-2.6205,-2.6449,-2.677,-2.6344,-2.6327,-2.7177,-2.7297,-2.7358,-2.7702,-2.79,-2.786,-2.7429,-2.7213,-2.6918,-2.6581,-2.6829,-2.6989,-2.6989,-2.7691,-2.8067,-2.8067,-2.8228,-2.8301,-2.8301,-2.8301,-2.8228,-2.8121,-2.8281,-2.8354,-3.0149,0.0,0.0,0.0,0.0,0.0,0.0,0.0,0.0,0.0,0.0,0.0,0.0,0.0,0.0,0.0,0.0,-1.872,0.0,0.0,0.0,0.0,0.0,0.0,0.0,-2.4987,-2.5358,-2.6317,-2.6693,-2.7202,-2.799,-2.9159,-2.9729,-2.9584,-2.9696,-2.9745,-2.9627,-2.9213,-2.8916,-2.8737,-2.9153,-2.9035,-2.8517,-2.9094,-2.9213,-2.8975,-2.8975,-2.8934,-2.8874,-2.8984,-2.8919,-2.8835,-2.8929,-2.8727,-2.8278,-2.7748,-2.7614,-2.7622,-2.7887,-2.8405,-2.8909,-2.8641,-2.854,-2.8452,-2.7931,-2.7866,-2.798,-2.798,-2.8114,-2.8329,-2.8329,-2.7982,-2.7785,-2.8196,-2.7982,-2.7785,-2.8196,-2.772,-2.7101,-2.6744,-2.6372,-2.5937,-2.5552,-2.5839,-2.6205,-2.6449,-2.6144,-2.6083,-2.677,-2.7012,-2.7133,-2.722,-2.7539,-2.7614,-2.7333,-2.7064,-2.6853,-2.6675,-2.694,-2.7065,-2.6989,-2.7584,-2.7853,-2.7745,-2.814,-2.8247,-2.8174,-2.8247,-2.8301,-2.8301,-2.8514,-2.8568,0.0,0.0,0.0,-2.8894,0.0,0.0,0.0,0.0,-2.0755,0.0,0.0,0.0,0.0,0.0,0.0,0.0,0.0,0.0,0.0,0.0,0.0,0.0,0.0,0.0,0.0,-2.3771,-2.443,-2.6172,-2.5386,-2.5803,-2.8095,-2.7957,-2.8167,-2.8991,-2.937,-2.9331,-2.9035,-2.8975,-2.8677,-2.802,-2.8677,-2.8856,-2.848,-2.8856,-2.8975,-2.8975,-2.8975,-2.8815,-2.8553,-2.8931,-2.9258,-2.9538,-2.8906,-2.8922,-2.9092,-2.8797,-2.8232,-2.7777,-2.8486,-2.8991,-2.9299,-2.9233,-2.9233,-2.9299,-2.9233,-2.9036,-2.879,-2.879,-2.8527,-2.8329,-2.8329,-2.7981,-2.7833,-2.8196,-2.7981,-2.7833,-2.8196,-2.772,-2.7101,-2.6744,-2.6372,-2.5875,-2.5228,-2.5656,-2.6067,-2.6128,-2.6388,-2.6449,-2.6189,-2.6692,-2.6952,-2.6631,-2.6952,-2.7133,-2.7116,-2.6994,-2.6848,-2.6693,-2.6992,-2.7142,-2.7008,-2.7584,-2.7745,-2.7422,-2.8033,-2.8174,-2.7906,-2.8174,-2.8301,-2.8301,-2.8301,-2.8601,-3.4622,-3.4379,-3.38,-3.1624,0.0,0.0,0.0,0.0,0.0,0.0,0.0,0.0,0.0,0.0,0.0,0.0,0.0,0.0,0.0,0.0,0.0,0.0,0.0,0.0,0.0,0.0,0.0,-2.4242,-2.4493,-2.5199,-2.6537,-2.7661,-2.8165,-2.7941,-2.8726,-2.8991,-2.859,-2.8847,-2.8737,-2.8337,-2.9035,-2.9153,-2.8856,-2.9153,-2.9331,-2.935,-2.937,-2.9198,-2.8931,-2.9328,-2.9305,-2.9048,-2.9295,-2.92,-2.8864,-2.8478,-2.8357,-2.8439,-2.8683,-2.8903,-2.8922,-2.8725,-2.879,-2.9005,-2.9005,-2.9053,-2.9053,-2.8873,-2.8741,-2.8527,-2.8048,-2.7981,-2.8048,-2.7915,-2.7783,-2.7716,-2.7849,-2.7178,-2.6435,-2.6408,-2.5866,-2.5391,-2.5167,-2.5472,-2.5839,-2.6067,-2.6022,-2.6161,-2.6692,-2.6405,-2.6344,-2.6891,-2.683,-2.6891,-2.7073,-2.6952,-2.6795,-2.65,-2.7148,-2.7323,-2.6792,-2.7784,-2.7997,-2.7441,-2.796,-2.8247,-2.8174,-2.852,-2.8711,-2.8711,-2.9004,-2.9312,-3.645,-3.6216,-3.5562,-3.3099,-3.144,-2.9828,-2.7357,0.0,-2.5117,0.0,0.0,0.0,0.0,0.0,0.0,0.0,0.0,0.0,0.0,-1.7271,0.0,0.0,0.0,0.0,0.0,0.0,-2.1295,-2.2741,-2.3658,0.0,0.0,-2.7092,-2.7784,-2.7486,-2.8397,-2.8841,-2.8737,-2.891,-2.8874,-2.8696,-2.9213,-2.9331,-2.9053,-2.9498,-2.9733,-2.9692,-2.9799,-2.9617,-2.9328,-2.96,-2.9466,-2.914,-2.9509,-2.9409,-2.9116,-2.8875,-2.8879,-2.8943,-2.8854,-2.8873,-2.8922,-2.8609,-2.8725,-2.8988,-2.8988,-2.9119,-2.925,-2.9053,-2.8873,-2.8708,-2.8229,-2.8229,-2.823,-2.7949,-2.7883,-2.7849,-2.77,-2.706,-2.6446,-2.636,-2.577,-2.5282,-2.526,-2.5488,-2.5672,-2.59,-2.5839,-2.6022,-2.6631,-2.6144,-2.6022,-2.6692,-2.6631,-2.677,-2.7073,-2.7133,-2.6998,-2.6789,-2.7391,-2.7555,-2.7098,-2.794,-2.8161,-2.7712,-2.826,-2.8587,-2.8587,-2.8969,-2.9141,-2.916,-2.959,-2.9928]},{"header":{"parameterUnit":"m.s-1","parameterCategory":1,"la1":30.6,"la2":29.2853,"lo1":-89.7004,"lo2":-87.6739,"dy":0.0162,"dx":0.0183,"nx":112,"ny":82,"refTime":"2026-05-18T00:00:00:Z","depth":0,"parameterNumber":3,"parameterNumberName":"V-component_of_WINDS"},"data":[0.0,0.0,0.0,0.0,0.0,0.0,0.0,0.0,0.0,0.0,0.0,0.0,0.0,0.0,0.0,0.0,0.0,0.0,0.0,0.0,0.0,0.0,0.0,0.0,0.0,0.0,0.0,0.0,0.0,0.0,0.0,0.0,0.0,0.0,0.0,0.0,0.0,0.0,0.0,0.0,0.0,0.0,0.0,0.0,0.0,0.0,0.0,0.0,0.0,0.0,0.0,0.0,0.0,0.0,0.0,0.0,0.0,0.0,0.0,0.0,0.0,0.0,0.0,0.0,0.0,0.0,0.0,0.0,0.0,0.0,0.0,0.0,0.0,0.0,0.0,0.0,0.0,0.0,0.0,0.0,0.0,0.0,0.0,0.0,0.0,0.0,0.0,0.0,0.0,0.0,0.0,3.5416,3.7533,3.8617,3.8034,3.841,3.725,3.3895,0.0,0.0,0.0,0.0,0.0,0.0,0.0,0.0,0.0,0.0,0.0,0.0,0.0,0.0,0.0,0.0,0.0,0.0,0.0,0.0,0.0,0.0,0.0,0.0,0.0,0.0,0.0,0.0,0.0,0.0,0.0,0.0,0.0,0.0,0.0,0.0,0.0,0.0,0.0,0.0,0.0,0.0,0.0,0.0,0.0,0.0,0.0,0.0,0.0,0.0,0.0,0.0,0.0,0.0,0.0,0.0,0.0,0.0,0.0,0.0,0.0,0.0,0.0,0.0,0.0,0.0,0.0,0.0,0.0,0.0,0.0,0.0,0.0,0.0,0.0,0.0,0.0,0.0,0.0,0.0,0.0,0.0,0.0,0.0,0.0,0.0,0.0,0.0,0.0,0.0,0.0,0.0,0.0,0.0,0.0,0.0,0.0,0.0,0.0,0.0,0.0,0.0,0.0,0.0,3.5392,3.8401,3.9893,4.0158,3.8834,3.9139,3.7527,3.3085,0.0,0.0,0.0,0.0,0.0,0.0,0.0,0.0,0.0,0.0,0.0,0.0,0.0,0.0,0.0,0.0,0.0,0.0,0.0,0.0,0.0,0.0,0.0,0.0,0.0,0.0,0.0,0.0,0.0,0.0,0.0,0.0,0.0,0.0,0.0,0.0,0.0,0.0,0.0,0.0,0.0,0.0,0.0,0.0,0.0,0.0,0.0,0.0,0.0,0.0,0.0,0.0,0.0,0.0,0.0,0.0,0.0,0.0,0.0,0.0,0.0,0.0,0.0,0.0,0.0,0.0,0.0,0.0,0.0,0.0,0.0,0.0,0.0,0.0,0.0,0.0,0.0,0.0,0.0,0.0,0.0,0.0,0.0,0.0,0.0,0.0,0.0,0.0,0.0,0.0,0.0,0.0,0.0,0.0,0.0,0.0,0.0,0.0,0.0,0.0,0.0,0.0,0.0,3.5018,3.7024,3.9723,4.0556,4.0527,3.9633,3.9434,3.7815,3.4127,3.1847,0.0,0.0,0.0,0.0,0.0,0.0,0.0,0.0,0.0,0.0,0.0,0.0,0.0,0.0,0.0,0.0,0.0,0.0,0.0,0.0,0.0,0.0,0.0,0.0,0.0,0.0,0.0,0.0,0.0,0.0,0.0,0.0,0.0,0.0,0.0,0.0,0.0,0.0,0.0,0.0,0.0,0.0,0.0,0.0,0.0,0.0,0.0,0.0,0.0,0.0,0.0,0.0,0.0,0.0,0.0,0.0,0.0,0.0,0.0,0.0,0.0,0.0,0.0,0.0,0.0,0.0,0.0,0.0,0.0,0.0,0.0,0.0,0.0,0.0,0.0,0.0,0.0,0.0,0.0,0.0,0.0,0.0,0.0,0.0,0.0,0.0,0.0,0.0,0.0,0.0,0.0,0.0,0.0,0.0,0.0,0.0,0.0,0.0,0.0,0.0,0.0,0.0,3.7138,3.8584,4.0915,4.0896,4.064,4.0421,3.9511,3.7736,3.4836,3.188,0.0,0.0,0.0,0.0,0.0,0.0,0.0,0.0,0.0,0.0,0.0,0.0,0.0,0.0,0.0,0.0,0.0,0.0,0.0,0.0,0.0,0.0,0.0,0.0,0.0,0.0,0.0,0.0,0.0,0.0,0.0,0.0,0.0,0.0,0.0,0.0,0.0,0.0,0.0,0.0,0.0,0.0,0.0,0.0,0.0,0.0,0.0,0.0,0.0,0.0,0.0,0.0,0.0,0.0,0.0,0.0,0.0,0.0,0.0,0.0,0.0,0.0,0.0,0.0,0.0,0.0,0.0,0.0,0.0,0.0,0.0,0.0,0.0,0.0,0.0,0.0,0.0,0.0,0.0,0.0,0.0,0.0,0.0,0.0,0.0,0.0,0.0,0.0,0.0,0.0,0.0,0.0,0.0,0.0,0.0,0.0,0.0,0.0,0.0,0.0,0.0,0.0,3.8482,3.9929,4.2718,4.1611,4.0871,4.1288,3.9421,3.6962,3.39,3.0973,0.0,0.0,0.0,0.0,0.0,0.0,0.0,0.0,0.0,0.0,0.0,0.0,0.0,0.0,0.0,0.0,0.0,0.0,0.0,0.0,0.0,0.0,0.0,0.0,0.0,0.0,0.0,0.0,0.0,0.0,0.0,0.0,0.0,0.0,0.0,0.0,0.0,0.0,0.0,0.0,0.0,0.0,0.0,0.0,0.0,0.0,0.0,0.0,0.0,0.0,0.0,0.0,0.0,0.0,0.0,0.0,0.0,0.0,0.0,0.0,0.0,0.0,0.0,0.0,0.0,0.0,0.0,0.0,0.0,0.0,0.0,0.0,0.0,0.0,0.0,0.0,0.0,0.0,0.0,0.0,0.0,0.0,0.0,0.0,0.0,0.0,0.0,0.0,0.0,0.0,0.0,0.0,0.0,0.0,0.0,0.0,0.0,0.0,0.0,0.0,0.0,0.0,3.9491,4.1271,0.0,4.2191,4.1739,4.2228,4.0306,3.7768,3.4677,0.0,0.0,0.0,0.0,0.0,0.0,0.0,0.0,0.0,0.0,0.0,0.0,0.0,0.0,0.0,0.0,0.0,0.0,0.0,0.0,0.0,0.0,0.0,0.0,0.0,0.0,0.0,0.0,0.0,0.0,0.0,0.0,0.0,0.0,0.0,0.0,0.0,0.0,0.0,0.0,0.0,0.0,0.0,0.0,0.0,0.0,0.0,0.0,0.0,0.0,0.0,0.0,0.0,0.0,0.0,0.0,0.0,0.0,0.0,0.0,0.0,0.0,0.0,0.0,0.0,0.0,0.0,0.0,0.0,0.0,0.0,0.0,0.0,0.0,0.0,0.0,0.0,0.0,0.0,0.0,0.0,0.0,0.0,0.0,0.0,0.0,0.0,0.0,0.0,0.0,0.0,0.0,0.0,0.0,0.0,0.0,0.0,0.0,0.0,0.0,0.0,0.0,3.8495,4.0383,4.2142,0.0,4.2708,4.2223,4.2952,4.0805,3.8148,3.5118,0.0,0.0,0.0,0.0,0.0,0.0,0.0,0.0,0.0,0.0,0.0,0.0,0.0,0.0,0.0,0.0,0.0,0.0,0.0,0.0,0.0,0.0,0.0,0.0,0.0,0.0,0.0,0.0,0.0,0.0,0.0,0.0,0.0,0.0,0.0,0.0,0.0,0.0,0.0,0.0,0.0,0.0,0.0,0.0,0.0,0.0,0.0,0.0,0.0,0.0,0.0,0.0,0.0,0.0,0.0,0.0,0.0,0.0,0.0,0.0,0.0,0.0,0.0,0.0,0.0,0.0,0.0,0.0,0.0,0.0,0.0,0.0,0.0,0.0,0.0,0.0,0.0,0.0,0.0,0.0,0.0,0.0,0.0,0.0,0.0,0.0,0.0,0.0,0.0,0.0,0.0,0.0,0.0,0.0,0.0,0.0,0.0,0.0,0.0,0.0,0.0,0.0,4.0565,4.1256,4.2441,4.5121,4.3228,4.227,4.3423,4.0824,3.7845,0.0,0.0,0.0,0.0,0.0,0.0,0.0,0.0,0.0,0.0,0.0,0.0,0.0,0.0,0.0,0.0,0.0,0.0,0.0,0.0,0.0,0.0,0.0,0.0,0.0,0.0,0.0,0.0,0.0,0.0,0.0,0.0,0.0,0.0,0.0,0.0,0.0,0.0,0.0,0.0,0.0,0.0,0.0,0.0,0.0,0.0,0.0,0.0,0.0,0.0,0.0,0.0,0.0,0.0,0.0,0.0,0.0,0.0,0.0,0.0,0.0,0.0,0.0,0.0,0.0,0.0,0.0,0.0,0.0,0.0,0.0,0.0,0.0,0.0,0.0,0.0,0.0,0.0,0.0,0.0,0.0,0.0,0.0,0.0,0.0,0.0,0.0,0.0,0.0,0.0,0.0,0.0,0.0,0.0,0.0,0.0,0.0,0.0,0.0,0.0,0.0,0.0,0.0,4.0327,4.2341,4.3939,4.4804,4.3902,4.3434,4.4073,4.2068,3.9792,3.7463,0.0,0.0,0.0,0.0,0.0,0.0,0.0,0.0,0.0,0.0,0.0,0.0,0.0,0.0,0.0,0.0,0.0,0.0,0.0,0.0,0.0,0.0,0.0,0.0,0.0,0.0,0.0,0.0,0.0,0.0,0.0,0.0,0.0,0.0,0.0,0.0,0.0,0.0,0.0,0.0,0.0,0.0,0.0,0.0,0.0,0.0,0.0,0.0,0.0,0.0,0.0,0.0,0.0,0.0,0.0,0.0,0.0,0.0,0.0,0.0,0.0,0.0,0.0,0.0,0.0,0.0,0.0,0.0,0.0,0.0,0.0,0.0,0.0,0.0,0.0,0.0,0.0,0.0,0.0,0.0,0.0,0.0,0.0,0.0,0.0,0.0,0.0,0.0,0.0,0.0,0.0,0.0,0.0,0.0,0.0,0.0,0.0,0.0,0.0,0.0,0.0,0.0,4.0917,4.3116,4.4756,4.5331,4.4918,4.4592,4.4516,4.3044,4.1171,3.8822,0.0,0.0,0.0,0.0,0.0,0.0,0.0,0.0,0.0,0.0,0.0,0.0,0.0,0.0,0.0,0.0,0.0,0.0,0.0,0.0,0.0,0.0,0.0,0.0,0.0,0.0,0.0,0.0,0.0,0.0,0.0,0.0,0.0,0.0,0.0,0.0,0.0,0.0,0.0,0.0,0.0,0.0,0.0,0.0,0.0,0.0,0.0,0.0,0.0,0.0,0.0,0.0,0.0,0.0,0.0,0.0,0.0,0.0,0.0,0.0,0.0,0.0,0.0,0.0,0.0,0.0,0.0,0.0,0.0,0.0,0.0,0.0,0.0,0.0,0.0,0.0,0.0,0.0,0.0,0.0,0.0,0.0,0.0,0.0,0.0,0.0,0.0,0.0,0.0,0.0,0.0,0.0,0.0,0.0,0.0,0.0,0.0,0.0,0.0,0.0,0.0,0.0,4.1935,4.3576,4.5024,4.629,4.6085,4.5575,4.493,4.3905,4.2175,3.9648,0.0,0.0,0.0,0.0,0.0,0.0,0.0,0.0,0.0,0.0,0.0,0.0,0.0,0.0,0.0,0.0,0.0,0.0,0.0,0.0,0.0,0.0,0.0,0.0,0.0,0.0,0.0,0.0,0.0,0.0,0.0,0.0,0.0,0.0,0.0,0.0,0.0,0.0,0.0,0.0,0.0,0.0,0.0,0.0,0.0,0.0,0.0,0.0,0.0,0.0,0.0,0.0,0.0,0.0,0.0,0.0,0.0,0.0,0.0,0.0,2.6975,0.0,0.0,0.0,0.0,0.0,0.0,0.0,0.0,0.0,0.0,0.0,0.0,0.0,0.0,0.0,0.0,0.0,0.0,0.0,0.0,0.0,0.0,0.0,0.0,0.0,0.0,0.0,0.0,0.0,0.0,0.0,0.0,0.0,0.0,0.0,0.0,0.0,0.0,0.0,0.0,0.0,4.1858,4.3691,4.5123,4.5901,4.6109,4.6152,4.6102,4.5227,4.4062,4.2599,3.9526,0.0,0.0,0.0,0.0,0.0,0.0,0.0,0.0,0.0,0.0,0.0,0.0,0.0,0.0,0.0,0.0,0.0,0.0,0.0,0.0,0.0,0.0,0.0,0.0,0.0,0.0,0.0,0.0,0.0,0.0,0.0,0.0,0.0,0.0,0.0,0.0,0.0,0.0,0.0,0.0,0.0,0.0,0.0,0.0,0.0,0.0,0.0,0.0,0.0,0.0,0.0,0.0,0.0,0.0,0.0,0.0,0.0,0.0,0.0,3.1423,2.9512,0.0,0.0,0.0,0.0,0.0,0.0,0.0,0.0,0.0,0.0,0.0,0.0,0.0,0.0,0.0,0.0,0.0,0.0,0.0,0.0,0.0,0.0,0.0,0.0,0.0,0.0,0.0,0.0,0.0,0.0,0.0,0.0,0.0,0.0,0.0,0.0,0.0,0.0,0.0,0.0,4.2297,4.453,4.6302,4.7272,4.7263,4.7283,4.7438,4.6622,4.5623,4.4397,4.1925,0.0,0.0,0.0,0.0,0.0,0.0,0.0,0.0,0.0,0.0,0.0,0.0,0.0,0.0,0.0,0.0,0.0,0.0,0.0,0.0,0.0,0.0,0.0,0.0,0.0,0.0,0.0,0.0,0.0,0.0,0.0,0.0,0.0,0.0,0.0,0.0,0.0,0.0,0.0,0.0,0.0,0.0,0.0,0.0,0.0,0.0,0.0,0.0,0.0,0.0,0.0,0.0,0.0,3.7374,3.831,3.9298,3.906,3.9301,3.9702,3.6081,3.4099,3.3336,3.2217,0.0,0.0,0.0,0.0,0.0,0.0,0.0,0.0,0.0,0.0,0.0,0.0,0.0,0.0,0.0,0.0,0.0,0.0,0.0,0.0,0.0,0.0,4.028,4.0691,4.27,4.326,3.8641,0.0,0.0,0.0,0.0,0.0,0.0,0.0,0.0,0.0,0.0,0.0,4.3182,4.572,4.783,4.9194,4.8861,4.8556,4.8686,4.7861,4.6862,4.5765,4.4265,4.2472,0.0,0.0,0.0,0.0,0.0,0.0,0.0,0.0,0.0,0.0,0.0,0.0,0.0,0.0,0.0,0.0,0.0,0.0,0.0,0.0,0.0,0.0,0.0,0.0,0.0,0.0,0.0,0.0,0.0,0.0,0.0,0.0,2.9953,2.9433,0.0,0.0,0.0,0.0,0.0,0.0,0.0,0.0,0.0,0.0,0.0,0.0,0.0,3.6613,3.7034,3.8054,3.8649,3.8803,3.9836,4.0674,4.1332,4.1671,4.1893,4.1991,4.1595,0.0,3.7089,3.5885,0.0,0.0,0.0,0.0,0.0,0.0,0.0,0.0,0.0,0.0,0.0,0.0,0.0,0.0,0.0,0.0,0.0,0.0,0.0,0.0,0.0,0.0,4.3963,4.521,4.6485,4.7207,4.6288,4.3333,4.0467,3.9265,3.9134,0.0,0.0,0.0,0.0,0.0,0.0,0.0,4.4904,4.6938,4.8693,5.0092,4.9923,4.9617,4.9454,4.8551,4.7773,4.7307,4.604,4.4478,4.2578,4.1319,0.0,0.0,0.0,0.0,0.0,0.0,0.0,0.0,0.0,0.0,0.0,0.0,0.0,0.0,0.0,0.0,0.0,0.0,0.0,0.0,0.0,0.0,0.0,0.0,0.0,0.0,0.0,0.0,0.0,3.0811,3.1736,3.1606,3.1707,3.1857,0.0,0.0,0.0,0.0,0.0,0.0,0.0,0.0,0.0,3.7528,3.8246,3.8755,3.9044,3.9865,4.0263,4.0292,4.1762,4.2581,4.2847,4.3677,4.4018,4.4058,4.4258,4.343,4.1741,3.9821,3.8343,3.7185,0.0,0.0,0.0,0.0,3.3271,3.3686,3.4481,3.5303,3.6004,3.6405,0.0,0.0,0.0,0.0,0.0,0.0,0.0,3.9281,4.1372,4.4235,4.6716,4.7437,4.8329,4.9058,4.9092,4.7736,4.5839,0.0,4.3166,4.2435,4.014,0.0,0.0,0.0,0.0,4.4838,4.6615,4.8364,4.9926,5.1061,5.0324,4.9919,5.0355,4.9357,4.8473,4.7928,4.7007,4.587,4.4537,4.309,4.0922,0.0,0.0,0.0,0.0,0.0,0.0,0.0,0.0,0.0,0.0,0.0,0.0,0.0,0.0,0.0,0.0,0.0,0.0,0.0,0.0,0.0,0.0,0.0,0.0,0.0,0.0,0.0,0.0,3.2472,3.3441,3.3311,3.398,3.4306,0.0,0.0,0.0,0.0,0.0,0.0,3.7644,3.8313,3.8966,3.9481,4.0325,4.0804,4.0844,4.1512,4.1831,4.186,4.3248,4.4027,4.4204,4.5126,4.5585,4.5668,4.5906,4.5789,4.5169,4.3196,4.1694,4.0509,4.0136,3.9305,3.826,3.8381,3.8606,3.8958,4.0113,4.1064,4.1801,4.2057,4.2061,4.1587,3.9721,0.0,0.0,0.0,0.0,4.3055,4.4147,4.6692,4.9038,4.911,4.9842,5.0577,5.0646,5.0583,4.9757,0.0,4.6901,4.6309,4.4223,0.0,0.0,0.0,0.0,4.7406,4.8365,4.9859,5.1162,5.2067,5.1061,5.0456,5.0957,5.0031,4.9131,4.8511,4.7638,4.6751,4.5936,4.4448,4.2717,4.0694,0.0,0.0,0.0,0.0,0.0,0.0,0.0,0.0,0.0,0.0,0.0,0.0,0.0,0.0,0.0,0.0,0.0,0.0,0.0,0.0,0.0,0.0,0.0,0.0,0.0,0.0,0.0,0.0,0.0,3.4027,3.6191,0.0,0.0,0.0,0.0,3.863,3.8707,3.9361,4.0804,4.0758,4.1035,4.1877,4.2347,4.2665,4.2847,4.3515,4.3834,4.3834,4.4334,4.4899,4.5532,4.602,4.6316,4.6539,4.6808,4.6691,4.6192,4.5624,4.4603,4.3507,4.4458,4.4309,4.3609,4.4444,4.4877,4.5023,4.4903,4.518,4.5629,4.6144,4.5929,4.5539,4.5376,4.4291,0.0,0.0,4.6271,4.6571,4.8239,4.9782,5.0864,5.0864,5.1602,5.2238,5.2023,5.1605,5.0819,0.0,4.9693,4.9427,4.7104,0.0,4.7439,4.6421,4.7209,4.853,5.0159,5.133,5.2303,5.3044,5.2539,5.1829,5.1057,5.0443,4.9885,4.9441,4.803,4.6947,4.6466,4.5326,4.3978,4.2404,4.2043,0.0,0.0,0.0,0.0,0.0,0.0,0.0,0.0,0.0,0.0,0.0,0.0,0.0,0.0,0.0,0.0,0.0,0.0,0.0,0.0,0.0,0.0,0.0,0.0,0.0,0.0,0.0,0.0,3.642,3.7214,0.0,3.772,3.8457,3.9458,4.081,4.1151,4.1673,4.2651,4.2666,4.271,4.3055,4.3343,4.3545,4.3631,4.3863,4.3979,4.4008,4.4832,4.5341,4.565,4.6526,4.6993,4.7049,4.7292,4.7395,4.7402,4.7364,4.6637,4.5565,4.6268,4.632,4.6095,4.6686,4.6969,4.7038,4.6931,4.7038,4.7182,4.736,4.7334,4.7188,4.7231,4.684,4.6513,4.7389,4.8004,4.8588,4.9323,5.0843,5.2236,5.2313,5.2693,5.3,5.2927,5.247,5.1879,5.1383,5.079,5.0126,4.9294,4.9759,5.0124,4.9757,5.0422,5.1224,5.1963,5.2471,5.2977,5.3349,5.274,5.2165,5.1862,5.0779,4.9859,4.9236,4.8485,4.7529,4.6295,4.63,4.5277,4.3062,4.3173,4.166,0.0,0.0,0.0,0.0,0.0,0.0,0.0,0.0,0.0,0.0,0.0,0.0,0.0,0.0,0.0,0.0,0.0,0.0,0.0,0.0,0.0,0.0,0.0,0.0,0.0,0.0,3.6899,3.7718,3.8427,3.8952,3.9236,4.0182,4.134,4.2651,4.2854,4.3214,4.392,4.3718,4.3647,4.3719,4.3965,4.4168,4.4298,4.4414,4.453,4.4647,4.5507,4.5931,4.6004,4.7092,4.7725,4.7899,4.824,4.862,4.8889,4.8814,4.8326,4.7629,4.7446,4.7269,4.7238,4.7325,4.7348,4.7418,4.7862,4.8268,4.8573,4.8573,4.8573,4.8573,4.8656,4.8649,4.8674,4.898,4.9592,5.0314,5.0838,5.2107,5.3278,5.3507,5.3456,5.3364,5.3361,5.2834,5.244,5.26,5.1744,5.0987,5.1055,5.1418,5.1717,5.1856,5.2289,5.2694,5.2972,5.311,5.328,5.3484,5.301,5.2604,5.2334,5.0947,4.9796,4.9052,4.8401,4.7421,4.6022,4.6312,4.5554,4.3561,4.3718,4.2191,3.8901,0.0,0.0,0.0,0.0,0.0,0.0,0.0,0.0,0.0,0.0,0.0,0.0,0.0,0.0,0.0,0.0,0.0,0.0,0.0,0.0,0.0,0.0,0.0,3.6693,3.7278,3.7681,3.7709,3.9882,4.1083,4.0236,4.1638,4.3041,4.411,4.3801,4.392,4.4553,4.3977,4.3791,4.4037,4.4177,4.4493,4.4908,4.5322,4.564,4.594,4.6358,4.6609,4.6653,4.7747,4.8531,4.904,4.9664,5.0201,5.0605,4.9959,4.9682,4.9558,4.8204,4.7569,4.7313,4.667,4.6496,4.6668,4.7947,4.9111,4.9955,4.9955,4.9955,4.9955,4.9955,4.9923,5.0018,5.0753,5.1232,5.1724,5.2863,5.3518,5.3967,5.4344,5.3927,5.3394,5.328,5.2828,5.2569,5.3082,5.2613,5.2224,5.2407,5.2263,5.2194,5.2518,5.2589,0.0,5.3144,5.3179,5.3247,5.3484,5.3518,5.3179,5.2401,5.098,4.983,4.912,4.7848,4.6724,4.5838,4.5507,4.491,4.4023,4.3811,4.2706,4.0602,0.0,0.0,0.0,0.0,0.0,0.0,0.0,0.0,0.0,0.0,0.0,0.0,0.0,0.0,0.0,0.0,0.0,0.0,0.0,0.0,0.0,3.5749,3.6844,3.7932,3.8725,3.934,3.9789,4.0591,4.1227,4.1426,4.2024,4.278,4.3811,4.3979,4.4224,4.4715,4.4891,4.494,4.4805,4.5203,4.538,4.5335,4.5644,4.5911,4.6135,4.6269,4.658,4.7092,4.7197,4.7905,4.8979,4.849,4.8784,4.9641,4.9457,4.9524,4.9693,4.9418,4.9305,4.9336,4.9978,5.0309,5.0473,5.0866,5.1209,5.1448,5.1448,5.1448,5.1448,5.1448,5.0601,4.9724,4.9913,4.9371,4.8934,4.9864,5.1411,5.2932,5.3684,5.4063,5.4324,5.4849,5.3993,5.3298,5.3989,5.3878,5.3511,5.3198,5.2669,5.2338,5.2445,5.2659,0.0,5.2972,5.3246,5.3416,5.3518,5.3518,5.3416,5.3179,5.2266,5.1386,5.0642,4.9977,4.9218,4.835,4.7975,4.7224,4.6028,4.4962,4.3895,0.0,0.0,0.0,0.0,0.0,0.0,0.0,0.0,0.0,0.0,0.0,0.0,0.0,0.0,0.0,0.0,0.0,0.0,0.0,0.0,0.0,0.0,3.7214,3.8252,3.9341,3.9662,4.0097,4.0997,4.1182,4.1636,4.254,4.2713,4.3182,4.4008,4.4413,4.4693,4.4908,4.5413,4.5549,4.5276,4.5685,4.585,4.564,4.5911,4.6135,4.6358,4.6447,4.6712,4.7135,4.7672,4.8429,4.9435,4.9442,4.9921,5.0695,5.0389,5.0383,5.0482,0.0,0.0,0.0,0.0,5.0622,5.1204,5.1287,5.1641,5.2017,5.2017,5.2017,5.2017,5.2017,5.1367,5.0646,5.096,5.0698,5.054,5.1399,5.2799,5.4168,5.4638,5.4656,5.4651,5.5226,5.4311,5.3695,5.4646,5.4576,0.0,5.4324,5.3427,5.2702,5.2513,5.2624,5.2834,5.3007,5.3246,5.3416,5.3518,5.3518,5.3518,5.3518,5.2503,0.0,0.0,0.0,5.0256,4.9539,4.8655,0.0,0.0,0.0,0.0,0.0,0.0,0.0,0.0,4.2449,4.2242,0.0,0.0,0.0,0.0,0.0,0.0,0.0,0.0,0.0,0.0,0.0,0.0,0.0,0.0,0.0,0.0,3.8878,3.9928,4.0673,4.0407,4.0463,4.1502,4.1671,4.2177,4.3385,4.3497,4.375,4.4369,4.4862,4.511,4.511,4.5595,0.0,0.0,0.0,4.6027,4.6027,4.631,4.6608,4.686,4.7007,4.7139,4.7257,4.8671,4.9598,5.0208,5.1319,5.2108,5.2544,5.1959,5.1744,5.1682,5.0187,4.9555,4.9426,4.8932,4.9508,5.058,5.0746,0.0,0.0,5.2238,5.2238,5.2238,5.2238,5.2102,5.2102,5.2765,5.3254,5.3817,5.4656,5.544,5.6021,5.6159,5.5358,5.4675,5.5094,5.4364,5.3989,5.5226,5.5076,5.4957,5.5483,5.4278,5.3126,5.2751,5.2655,5.2764,5.311,5.3213,5.3314,5.3484,0.0,0.0,5.3518,5.2266,5.1553,5.1713,5.1256,5.0659,5.0017,4.8626,4.7557,4.6942,4.7111,4.7273,4.7429,4.8076,4.833,4.8216,4.5093,4.4765,0.0,0.0,0.0,0.0,0.0,0.0,0.0,0.0,0.0,0.0,0.0,0.0,0.0,0.0,0.0,3.8003,3.945,4.0701,4.1362,4.1783,4.1924,4.1643,4.2064,4.2683,4.3413,4.3497,4.375,4.4369,4.4862,4.511,4.511,4.5595,4.5895,4.585,4.6541,4.694,4.694,4.774,4.8233,4.846,4.8324,0.0,4.9088,4.9224,4.9959,5.1039,5.0764,5.1111,5.1898,5.1744,5.2021,5.2421,5.1765,5.1896,5.2536,5.266,5.2981,5.3332,5.3375,5.3523,5.3692,5.3692,5.3692,5.3692,5.3692,5.2776,0.0,5.1926,5.1294,5.069,5.1426,5.2605,5.3862,5.4637,5.4972,5.5358,5.62,5.5742,5.5416,5.6277,5.6382,5.6117,5.5648,5.4357,5.3331,5.3271,5.3026,5.2868,5.2938,5.3246,5.3484,5.3518,5.3518,5.3518,5.3518,5.3247,5.3078,5.3111,5.314,5.2588,5.1381,5.1283,5.0917,5.0223,4.9853,4.9458,4.8885,4.8889,4.8618,4.8127,4.7681,4.7618,0.0,0.0,0.0,0.0,0.0,0.0,0.0,0.0,0.0,0.0,0.0,3.5934,3.6696,0.0,3.853,3.8952,4.004,4.1041,4.1531,4.2237,4.2705,4.2542,4.2851,4.3273,4.3891,4.3947,4.4088,4.4397,4.4862,4.511,4.511,4.5595,4.5895,4.5895,4.6913,4.7417,4.7417,4.8429,4.8983,4.9119,4.9119,4.9299,4.9613,4.9975,5.0577,5.1297,5.1297,5.1645,5.2206,5.2206,5.2421,5.2667,5.2595,5.2834,5.3277,5.3496,5.3758,5.3931,5.406,5.4103,5.4103,5.4103,5.4103,5.4103,5.4103,5.3512,5.2891,5.2891,5.2596,5.2327,5.2758,5.3721,5.4677,5.5147,5.5384,5.5666,5.6393,5.604,5.5852,5.6547,5.668,5.6581,5.6216,5.5256,5.4262,5.3533,5.3126,5.2903,5.2903,5.3246,5.3518,5.3518,5.3518,5.3518,5.3518,5.3651,5.3718,5.3618,5.3816,5.3671,5.2983,5.2417,5.2015,5.1785,5.0789,5.0139,4.9841,4.9589,4.9296,4.9,4.9139,4.9094,0.0,0.0,0.0,0.0,0.0,0.0,0.0,0.0,3.5019,3.649,3.6932,3.7432,3.8803,3.9441,3.98,3.9913,4.0633,4.1354,4.1787,4.254,4.3279,4.3719,4.3712,4.3909,4.4509,4.449,4.449,4.4537,4.4954,4.5184,4.5184,4.5685,4.5956,4.603,4.7211,4.7894,4.794,4.9073,4.9689,4.9734,4.9915,5.005,5.0095,5.0894,5.1332,5.1511,5.2107,5.2518,5.2698,5.2698,5.2698,5.2819,5.3042,5.3131,5.3188,5.3409,5.3627,5.3876,5.406,5.4103,5.4103,5.4103,5.4103,5.4103,5.4103,5.4103,5.4103,5.4103,5.4444,5.4822,5.4989,5.5523,5.6046,5.6086,5.5902,5.587,5.6348,5.6134,5.5984,5.6581,5.668,5.668,5.668,5.6084,5.5185,5.403,5.3425,5.3138,5.3138,5.3347,5.3518,5.3518,5.3518,5.3518,5.3518,5.3751,5.3849,5.3717,5.398,5.4143,5.4175,5.2903,5.2337,5.2611,5.1089,5.0385,5.05,5.0178,4.9963,4.9825,4.9963,4.985,3.4311,3.4819,3.5386,3.5561,3.5152,3.5364,0.0,0.0,3.7455,3.9276,3.9683,3.9741,3.9905,4.0354,4.0572,4.0383,4.1213,4.2077,4.2656,4.3279,4.3993,4.4801,4.4517,4.448,4.4972,4.4862,4.4844,4.5,4.5321,4.5458,4.5458,4.5911,4.6269,4.6491,4.7985,4.8864,4.9119,5.0391,5.1083,5.1315,5.1361,5.1499,5.1713,5.2048,5.2139,5.2184,5.2532,5.2653,5.2698,5.2698,5.2833,5.3086,5.3086,5.3188,5.3377,5.3659,5.3919,5.406,5.4103,5.4103,5.4103,5.4103,5.4103,5.4103,5.4103,5.4103,5.4103,5.4103,5.4444,5.4813,5.4813,5.5351,5.5846,5.6046,5.6218,5.6381,5.6641,5.6614,5.6581,5.668,5.668,5.668,5.668,5.6084,5.5516,5.535,5.4489,5.3872,5.3872,5.3651,5.3518,5.3518,5.3518,5.3518,5.3518,5.3517,5.3584,5.3684,5.375,5.3849,5.4013,5.3352,5.3001,5.3032,5.1588,5.0832,5.0828,5.0613,5.018,4.9564,5.0214,5.0292,3.5394,3.6616,3.7579,0.0,3.6505,3.7011,3.7742,3.7606,3.7817,3.9584,4.0039,4.0398,4.1435,4.1427,4.1475,0.0,4.2267,4.2725,4.3519,4.3665,4.397,4.4735,4.4368,4.4326,4.5035,4.4908,4.4862,4.5064,4.5367,4.5549,4.573,4.6046,4.6579,4.7318,4.7985,4.882,4.9823,5.0499,5.1118,5.1572,5.1895,5.2079,5.22,5.2427,5.2518,5.2563,5.2653,5.2698,5.2698,5.2863,5.2997,5.3131,5.3233,5.3409,5.3627,5.3746,5.3876,5.3931,5.406,5.4103,5.4103,5.4103,5.4103,5.4103,5.4103,5.4103,5.4146,5.4242,5.4412,5.4655,5.4906,5.5278,5.5645,5.6006,5.6244,5.648,5.6641,5.668,5.668,5.668,5.668,5.6719,5.6834,5.664,5.6478,5.6592,5.5138,5.4043,5.4149,5.3787,5.3518,5.3518,5.3518,5.3518,5.3518,5.3584,5.3618,5.3584,5.3651,5.3783,5.398,5.3293,5.2978,5.3072,5.2135,5.1558,5.1374,5.1401,5.1264,5.0956,5.1264,5.1085,3.637,0.0,0.0,3.7353,3.7688,3.8426,3.8158,3.8089,3.8542,4.0123,4.055,4.1036,4.2289,4.2132,4.2077,4.2868,4.2754,4.2941,4.3979,4.3741,4.3774,4.454,4.424,4.4276,4.5006,4.4932,4.5,4.5321,4.5504,4.573,4.5956,4.6355,4.7007,4.7882,4.8283,4.9119,5.0333,5.0697,5.1182,5.1803,5.2124,5.2352,5.2397,5.2608,5.2698,5.2698,5.2698,5.2698,5.2698,5.2997,5.3131,5.3188,5.3409,5.3671,5.3876,5.3876,5.3876,5.3919,5.406,5.4103,5.4103,5.4103,5.4103,5.4103,5.4189,5.4157,5.4231,5.4454,5.4539,5.4665,5.5031,5.5319,5.5604,5.5927,5.6205,5.6408,5.6564,5.6641,5.668,5.668,5.6719,5.6768,5.6682,5.6725,5.6838,5.7063,5.5554,5.445,5.4591,5.3956,5.3518,5.3518,5.3518,5.3484,5.3551,5.3651,5.3684,5.3651,5.3717,5.3849,5.398,5.3434,5.319,5.3352,5.266,5.2189,5.1938,5.2096,5.2024,5.1788,5.1819,5.1442,0.0,0.0,3.9809,3.8692,3.878,3.9479,4.0699,4.0466,4.0408,4.1744,4.2034,4.2063,4.2121,4.2092,4.2129,4.2296,4.2338,4.268,4.3681,4.3519,4.3642,4.4496,4.4598,4.4642,0.0,4.5039,4.5321,4.585,4.5895,4.5956,4.618,4.7035,4.7658,4.7882,4.9357,5.0274,5.0577,5.1241,5.1773,5.2306,5.2306,5.2442,5.2698,5.2698,5.2698,5.2698,5.2698,5.2698,5.2698,5.2997,5.3188,5.3421,5.3702,5.3919,5.4103,5.4103,5.4103,5.4103,5.4103,5.4103,5.4103,5.4103,5.4103,5.4146,5.4327,5.4412,5.4454,5.4697,5.4938,5.5072,5.5113,5.5442,5.5766,5.5839,5.6126,5.6402,5.6441,5.6564,5.668,5.668,5.6872,5.6787,5.6088,5.6103,5.6288,5.6508,5.5869,5.5364,5.5364,5.426,5.3518,5.3518,5.3518,5.3551,5.3684,5.3717,5.3783,5.398,5.398,5.398,5.398,5.398,5.3946,5.3979,5.3067,5.2595,5.2595,5.2595,5.209,5.1217,5.141,5.1002,3.8555,0.0,4.0389,3.9953,4.0247,4.0675,4.0704,4.0208,4.0052,4.1204,4.0757,4.0583,4.186,4.1744,4.1877,4.3214,4.3445,4.3834,4.5014,4.4729,4.4471,4.4791,4.4687,0.0,0.0,0.0,0.0,4.5595,4.564,4.5933,4.6567,4.7254,4.7894,4.8565,4.9238,4.9929,5.0577,5.1001,5.1562,5.2306,5.2473,5.2608,5.2698,5.2698,5.2698,5.2729,5.2908,5.2997,5.2997,5.3396,5.3615,5.3671,5.3888,5.4017,5.4103,5.4103,5.4103,5.4103,5.4103,5.4157,5.4285,5.4285,5.4444,5.4603,5.4655,5.4655,5.4697,5.4906,5.5031,5.5113,5.5278,5.5442,5.5604,5.5766,5.6006,5.6244,5.6402,5.6564,5.6719,5.6872,5.6583,5.6296,5.6288,5.5962,5.56,5.5272,5.5442,5.5442,5.4936,5.4092,5.3518,5.3518,5.3518,5.3551,5.3684,5.3717,5.3783,5.398,5.3882,5.3915,5.4143,5.4045,5.4045,5.4143,5.3838,5.354,5.3343,5.3343,5.2936,5.2124,5.2189,5.1543,3.9099,3.9861,4.0533,4.0187,4.0403,4.0666,4.0412,3.9896,3.975,4.0644,4.0246,4.0169,4.1656,4.1558,4.1738,4.3369,4.3748,4.4182,4.5178,4.4991,4.482,4.482,4.4731,4.482,0.0,0.0,0.0,4.564,4.564,4.5949,4.6703,4.7299,4.794,4.8671,4.9374,4.9975,5.0381,5.1091,5.1819,5.2442,5.2608,5.2698,5.2698,5.2698,5.2743,5.2863,5.3042,5.3144,5.3233,5.3659,5.3789,5.3833,5.4017,5.4103,5.4103,5.4189,5.42,5.42,5.42,5.4285,5.4412,5.4497,5.4655,5.4813,5.4896,5.4938,5.498,5.5155,5.5237,5.5237,5.5369,5.5409,5.545,5.5604,5.5886,5.6126,5.6284,5.6486,5.6757,5.6949,5.6458,5.6007,5.6102,5.5537,5.5002,5.4668,5.5006,5.504,5.4296,5.3788,5.3518,5.3518,5.3551,5.3651,5.3783,5.3849,5.3948,5.4078,5.3948,5.3948,5.411,5.4045,5.4045,5.4143,5.4143,5.398,5.3717,5.3445,5.3038,5.2498,5.1955,5.1208,3.9074,3.9691,4.0248,3.9715,3.9563,3.9671,4.0091,3.9857,3.9748,4.0324,4.0558,4.086,0.0,0.0,4.1726,4.2773,4.3343,4.3774,4.4228,4.4493,4.4627,0.0,0.0,0.0,0.0,0.0,0.0,4.5969,0.0,4.612,4.6594,4.7228,4.7822,4.8297,4.9779,5.0411,4.9998,5.1574,5.2442,5.2698,5.2698,5.2698,5.2698,5.2698,5.2863,5.3086,5.3131,5.3233,5.3421,5.3702,5.3833,5.3833,5.4017,5.4103,5.4146,5.4327,5.4412,5.4412,5.4454,5.4454,5.4497,5.4697,5.4813,5.4854,5.5072,5.5113,5.5155,5.5328,5.5409,5.5409,5.5409,5.5409,5.5409,5.5409,5.5766,5.6086,5.602,5.6408,5.6757,5.6954,5.6542,5.599,5.5398,5.4867,5.4532,5.4532,5.4532,5.4296,5.3653,5.3518,5.3518,5.3518,5.3617,5.3783,5.398,5.4143,5.4207,5.4207,5.4207,5.4143,5.4013,5.4013,5.4013,5.4013,5.4013,5.3881,5.3649,5.2969,5.2464,5.2164,5.0744,5.0067,3.9949,4.0054,4.0068,4.0571,4.0689,4.0757,4.0952,4.0583,4.0353,4.0969,4.0353,3.9913,0.0,0.0,0.0,4.231,4.3267,0.0,4.5309,4.5109,0.0,4.5486,0.0,4.5126,4.5665,4.5824,0.0,0.0,4.6398,4.6295,4.6745,4.7419,4.7956,4.8193,4.9749,5.0501,5.0232,5.1798,5.2608,5.2698,5.2698,5.2698,5.2729,5.2908,5.3042,5.3131,5.3484,5.3659,5.3702,5.3931,5.4017,5.4017,5.4103,5.4157,5.4327,5.4412,5.4539,5.4697,5.4864,5.4948,5.4948,5.4989,5.5113,5.5278,5.5287,5.5328,5.5328,5.5369,5.5409,5.5409,5.5409,5.5409,5.5409,5.5409,5.5766,5.5922,5.5398,5.6161,5.682,5.6475,5.6099,5.5441,5.4193,5.3889,5.3788,5.3788,5.3788,5.3957,5.4398,5.389,5.3517,5.3617,5.3684,5.3783,5.398,5.4143,5.4271,5.4399,5.4271,5.4239,5.4367,5.4239,5.4143,5.4143,5.4143,5.3739,5.2901,5.2665,5.1921,5.0642,5.027,4.9796,3.9968,3.9984,3.9854,4.0241,4.0196,3.9971,3.9672,3.9385,3.9307,3.9631,3.951,0.0,0.0,0.0,0.0,0.0,0.0,0.0,4.4908,4.5198,4.5459,0.0,4.5547,0.0,4.6379,4.6573,4.6972,0.0,4.6796,4.6533,4.7222,4.7392,4.7717,4.8369,4.9658,5.065,5.1339,5.1932,5.2421,5.2698,5.2819,5.2908,5.2877,5.31,5.3277,5.344,5.3702,5.3833,5.3962,5.406,5.4103,5.4103,5.42,5.4285,5.4454,5.4623,5.4822,5.4948,5.5155,5.5237,5.5237,5.5237,5.5287,5.5409,5.5409,5.5409,5.5409,5.5409,5.5409,5.5409,5.5409,5.5409,5.5409,5.5409,5.5766,5.5929,5.5286,5.5842,5.6296,5.552,5.5538,5.5243,5.3754,5.3518,5.3518,5.3518,5.3518,5.372,5.4228,5.3889,5.3618,5.3684,5.3783,5.3915,5.4078,5.4175,5.4303,5.4463,5.4399,5.4367,5.4529,5.4399,5.4335,5.4335,5.4239,5.3701,5.2726,5.2321,5.1475,5.0227,4.9794,4.9483,3.951,3.9696,3.9631,3.9361,3.9018,3.8521,3.7597,3.7579,3.7778,3.7688,0.0,3.9784,4.0957,4.0819,4.095,4.2256,0.0,4.3338,4.4051,4.5097,4.5779,4.5866,4.5808,4.613,4.707,4.7372,4.7877,4.8584,4.7342,4.6933,4.7852,4.748,4.776,4.8859,4.9742,5.1009,5.2698,5.2144,5.2144,5.2698,5.2997,5.3086,5.3131,5.3365,5.3584,5.3789,5.3833,5.3856,5.3902,5.4071,5.404,5.3976,5.4295,5.4412,5.4497,5.4948,5.5113,5.5155,5.5328,5.5409,5.5409,5.545,5.5409,5.5409,5.545,5.545,5.545,5.5491,5.545,5.545,5.545,5.5409,5.5409,5.5409,5.5766,5.5929,5.5402,5.5591,5.5539,5.4523,5.5003,5.5141,5.3754,5.3518,5.3518,5.3518,5.3518,5.3551,5.3651,5.3684,5.3684,5.3717,5.3882,5.4045,5.4175,5.4207,5.4335,5.456,5.4494,5.4494,5.456,5.4494,5.4463,5.4463,5.4303,5.3764,5.275,5.1941,5.1097,5.0215,4.9416,4.9168,3.9451,3.9589,3.9546,3.8968,3.8897,3.8641,3.7499,3.7846,0.0,0.0,3.9126,4.0334,3.9722,4.072,4.1791,4.2261,0.0,0.0,0.0,0.0,4.5256,0.0,0.0,0.0,0.0,0.0,0.0,0.0,4.8798,4.8312,4.7911,4.8552,4.9404,5.0546,5.1114,5.1809,5.2698,5.2606,5.2606,5.2698,5.2997,5.3086,5.3131,5.3528,5.3746,5.3789,5.4005,5.3627,5.2995,5.3765,5.3627,5.3027,5.402,5.4539,5.4739,5.4989,5.5237,5.5328,5.5369,5.5409,5.545,5.5645,5.5604,5.545,5.5886,5.5846,5.5766,5.5927,5.5846,5.5726,5.5726,5.5564,5.5409,5.5409,5.5645,5.573,5.5369,5.5421,5.5297,5.47,5.4667,5.4532,5.3653,5.3518,5.3518,5.3518,5.3518,5.3518,5.3517,5.3517,5.3584,5.3684,5.3882,5.4013,5.4045,5.4271,5.4526,5.4717,5.4592,5.4592,5.4749,5.4592,5.4399,5.4271,5.4367,5.3616,5.193,5.1794,5.0949,4.9403,4.9236,4.9199,3.9696,3.9455,3.9129,3.8897,3.8463,3.7905,3.7216,0.0,0.0,0.0,0.0,3.9425,3.9632,0.0,0.0,0.0,0.0,0.0,0.0,0.0,0.0,0.0,0.0,0.0,0.0,0.0,0.0,4.9911,5.008,4.9789,4.9133,4.9794,5.0456,5.1149,5.1843,5.239,5.2698,5.2698,5.2698,5.2698,5.31,5.3277,5.3277,5.3758,5.3962,5.3931,5.406,5.3871,5.3501,5.403,5.4009,5.364,5.4453,5.4864,5.4948,5.5196,5.5287,5.5409,5.5409,5.5409,5.545,5.5846,5.5806,5.5645,5.5886,5.5927,5.5966,5.6086,5.6006,5.5966,5.5966,5.5846,5.5766,5.5645,5.5632,5.5665,5.561,5.5579,5.5476,5.5208,5.4871,5.4465,5.4126,5.3754,5.3517,5.3584,5.3551,5.3551,5.3618,5.3551,5.3551,5.3684,5.3882,5.4013,5.411,5.4239,5.4463,5.478,5.4717,5.4686,5.478,5.4745,5.462,5.4367,5.4052,5.3232,5.185,5.1412,5.0567,4.935,4.935,4.9381,3.9884,3.9264,3.8525,3.8698,3.7897,3.6965,3.6815,3.6659,0.0,0.0,3.7591,3.8528,3.9464,0.0,0.0,0.0,0.0,0.0,0.0,0.0,0.0,0.0,0.0,0.0,0.0,0.0,0.0,5.0478,5.1041,5.1036,5.0527,5.088,5.121,5.1511,5.2287,5.2698,5.2698,5.2774,5.2819,5.2788,5.3277,5.3496,5.3496,5.3931,5.4103,5.4103,5.4103,5.3965,5.3839,5.4179,5.4232,5.4189,5.48,5.5072,5.5113,5.5328,5.5409,5.5409,5.5409,5.545,5.5564,5.5927,5.5927,5.5806,5.5927,5.6086,5.6165,5.6205,5.6205,5.6165,5.6165,5.6126,5.6046,5.5886,5.5817,5.5819,5.5879,5.5856,5.5746,5.5512,5.5142,5.4804,5.4465,5.4093,5.3788,5.3684,5.3651,5.3618,5.3684,5.3651,5.3651,5.375,5.3915,5.4045,5.4143,5.4239,5.4431,5.4811,5.4811,5.4811,5.4904,5.493,5.4838,5.4592,5.377,5.295,5.2035,5.1097,5.0283,4.953,4.953,4.959,3.9681,3.8931,3.7831,3.7967,3.7134,3.6259,3.6069,0.0,0.0,3.6268,3.7776,3.8905,3.8309,3.9385,4.0659,0.0,0.0,4.2839,0.0,0.0,0.0,0.0,0.0,0.0,0.0,0.0,0.0,5.0656,5.1246,5.1542,5.1435,5.1319,5.1528,5.2184,5.2532,5.2698,5.2698,5.2953,5.3086,5.3086,5.3528,5.3746,5.3789,5.3974,5.4103,5.4103,5.4103,5.3596,5.289,5.3776,5.3766,5.3344,5.4431,5.4938,5.5113,5.5328,5.5409,5.5409,5.5409,5.5564,5.5766,5.5806,5.5839,5.5886,5.6447,5.6486,5.6408,5.6564,5.6486,5.6402,5.6402,5.6244,5.6086,5.6086,5.6179,5.6261,5.5942,5.6003,5.5861,5.4869,5.5348,5.5417,5.4024,5.4463,5.4666,5.3852,5.3849,5.3882,5.3717,5.3849,5.3948,5.398,5.398,5.4013,5.4013,5.4303,5.462,5.4961,5.4873,5.4934,5.5139,5.493,5.4811,5.478,5.3898,5.3011,5.2188,5.1313,5.0433,4.9679,4.9679,4.9679,3.909,3.8102,3.7034,3.7301,3.64,3.5707,3.662,0.0,3.624,3.6825,3.7431,3.7873,3.781,3.8639,3.9644,4.072,4.1082,4.1691,0.0,0.0,0.0,0.0,0.0,0.0,0.0,0.0,4.9385,5.0587,5.1515,5.185,5.1455,5.1727,5.2076,5.2563,5.2653,5.2774,5.2953,5.3042,5.3144,5.3277,5.3659,5.3789,5.3789,5.4017,5.4103,5.4103,5.4103,5.3681,5.2997,5.4073,5.4114,5.3583,5.47,5.5237,5.5287,5.5369,5.5491,5.5645,5.5645,5.5806,5.6006,5.6126,5.6165,5.6205,5.648,5.6525,5.6603,5.668,5.6641,5.6564,5.6564,5.6408,5.6284,5.6284,5.6408,5.6575,5.6545,5.6482,5.6306,5.5986,5.5586,5.5077,5.4465,5.4428,5.4355,5.4047,5.4013,5.4013,5.4013,5.4013,5.398,5.398,5.4078,5.411,5.411,5.4463,5.478,5.4992,5.5022,5.5079,5.5199,5.5079,5.4752,5.4087,5.3264,5.2412,5.1563,5.0745,5.014,4.9708,4.983,4.983,3.8745,3.7734,3.6632,3.7075,3.6195,3.5615,0.0,0.0,3.6334,3.7291,3.721,3.7125,3.7468,3.8053,3.8877,4.0081,4.0397,4.0994,4.2401,0.0,0.0,0.0,0.0,0.0,0.0,4.9356,5.0034,5.0759,5.1728,5.2046,5.1448,5.2029,5.2518,5.2698,5.2698,5.2863,5.3086,5.3144,5.3321,5.354,5.3758,5.3876,5.3919,5.4017,5.3976,5.3818,5.4094,5.364,5.2912,5.422,5.4365,5.383,5.4906,5.5328,5.5409,5.5523,5.5645,5.5839,5.5879,5.6006,5.6205,5.6362,5.6408,5.6486,5.6564,5.6641,5.668,5.668,5.668,5.668,5.668,5.6564,5.6486,5.6486,5.6525,5.668,5.7025,5.685,5.664,5.6562,5.6028,5.5349,5.4735,5.4526,5.4383,5.4242,5.4175,5.4143,5.4207,5.4175,5.4143,5.4143,5.4271,5.4335,5.4207,5.4592,5.4873,5.4992,5.5109,5.5229,5.5259,5.5199,5.4669,5.3727,5.2904,5.2052,5.1139,5.0472,5.0063,4.9913,5.0005,4.9947,3.8903,3.7966,3.6692,3.7466,3.6662,3.6036,0.0,3.6911,3.6479,3.7499,3.7331,3.703,3.718,3.7902,3.8756,3.9568,4.0419,4.1291,4.2239,0.0,0.0,0.0,0.0,0.0,0.0,5.0788,5.15,5.1314,5.1909,0.0,5.1744,5.2329,5.2698,5.2698,5.2698,5.2863,5.3086,5.3321,5.354,5.3789,5.3974,5.4103,5.4103,5.4103,5.3755,5.3155,5.4041,5.3492,5.2185,5.4029,5.4365,5.3798,5.4741,5.5237,5.5409,5.5685,5.5799,5.5839,5.6006,5.6244,5.6402,5.6402,5.6525,5.6719,5.6949,5.6872,5.668,5.668,5.668,5.668,5.668,5.668,5.668,5.668,5.6525,5.6564,5.7176,5.7139,5.6817,5.6161,5.6678,5.6611,5.4552,5.4987,5.5292,5.4342,5.4367,5.4399,5.4239,5.4367,5.4494,5.4494,5.4686,5.4655,5.4239,5.4592,5.4873,5.4992,5.5109,5.5259,5.5478,5.5174,5.4644,5.3908,5.2964,5.2077,5.1315,5.0695,5.0369,5.0369,5.0257,5.012,3.6411,3.5847,3.5271,3.5636,3.5416,3.5495,3.6794,3.6619,3.645,3.732,3.721,3.6969,3.6877,3.7467,3.8234,3.9204,3.9952,4.0958,0.0,0.0,0.0,0.0,0.0,0.0,0.0,0.0,5.185,5.1359,5.2074,5.239,5.1933,5.2118,5.237,5.2698,5.2908,5.3055,5.3321,5.354,5.3758,5.4017,5.406,5.4157,5.4327,5.4327,5.4274,5.4284,5.4517,5.4019,5.3057,5.4438,5.4489,5.383,5.4906,5.5483,5.5685,5.5766,5.5966,5.6244,5.6284,5.6441,5.6603,5.6757,5.6834,5.6949,5.7139,5.6987,5.668,5.668,5.6796,5.6872,5.6719,5.668,5.668,5.668,5.6641,5.668,5.7025,5.7252,5.7077,5.5987,5.6303,5.6199,5.4482,5.4574,5.4738,5.4434,5.4463,5.4463,5.4399,5.4463,5.4526,5.4686,5.4749,5.4686,5.4431,5.4838,5.5053,5.4992,5.5234,5.5448,5.5507,5.4685,5.3873,5.3107,5.2166,5.1315,5.0553,5.0367,5.0235,5.012,5.0063,5.0068,3.4977,3.5002,3.5023,3.5134,3.5222,3.5458,3.6322,3.6356,3.635,3.6685,3.6615,3.6503,3.6503,3.6848,3.7554,3.8808,3.965,4.0659,0.0,0.0,0.0,0.0,0.0,0.0,0.0,5.1605,5.1893,5.1829,5.2147,5.2325,5.2405,5.2436,5.2577,5.2935,5.2852,5.3072,5.354,5.3746,5.3919,5.4103,5.4103,5.42,5.4412,5.4412,5.4411,5.4397,5.4768,5.4237,0.0,5.4654,5.4736,5.4043,5.515,5.5685,5.5927,5.6006,5.6244,5.6525,5.6603,5.6757,5.6949,5.7063,5.7176,5.7252,5.7289,5.7139,5.6911,5.6834,5.6949,5.7063,5.6757,5.6757,5.6796,5.6719,5.668,5.6757,5.7063,5.7364,5.726,5.6128,5.6201,5.6024,5.4578,5.4399,5.4494,5.4494,5.4494,5.4494,5.4494,5.4494,5.4454,5.4364,5.4668,5.4672,5.4174,5.4757,5.5079,5.5022,5.5234,5.5448,5.5507,5.4475,5.3554,5.2782,5.1813,5.0963,5.0257,5.0257,5.0206,5.0063,5.0063,5.0068,0.0,3.507,3.545,3.5619,3.571,3.5769,3.5905,3.6147,0.0,3.578,3.5705,3.5821,3.6242,3.6291,3.6841,3.8546,3.9535,4.0532,0.0,0.0,0.0,0.0,0.0,0.0,5.1342,5.1403,5.1768,5.2667,5.2113,5.2184,5.31,5.3113,5.3201,5.3421,5.2797,5.2852,5.3789,5.3789,5.3919,5.4103,5.4103,5.42,5.4454,5.4454,5.423,5.3862,5.4741,5.4218,5.2973,5.4697,5.5021,5.4583,5.5425,5.5927,5.6126,5.6362,5.6525,5.6757,5.6949,5.7139,5.7289,5.7327,5.7476,5.7588,5.7402,5.7327,5.7289,5.7063,5.7176,5.7214,5.6834,5.6872,5.6987,5.6796,5.6719,5.6834,5.7214,5.7439,5.7296,5.6337,5.6337,5.6058,5.4738,5.4494,5.4494,5.4494,5.4494,5.4494,5.4494,5.4494,5.4281,5.3775,5.4483,5.4652,5.3771,5.4513,5.5022,5.4992,5.5109,5.5259,5.5408,5.4371,5.3514,5.2828,5.1738,5.0922,5.0369,5.0369,5.0313,5.0206,5.0206,5.012,3.2249,0.0,3.3534,3.4175,3.478,3.5224,0.0,3.5604,3.5911,3.6289,3.6077,3.6161,3.7157,3.728,3.7764,3.9535,4.044,4.134,0.0,0.0,0.0,4.9469,5.052,5.1417,5.2301,5.2362,5.2544,5.2966,5.2843,5.3033,5.3615,5.3083,5.315,5.3899,5.3269,5.3227,5.3789,5.3931,5.406,5.4103,5.4103,5.4316,5.4697,5.4697,5.481,5.502,5.509,5.4879,5.4548,5.5026,5.5181,5.5223,5.562,5.6006,5.6362,5.6402,5.6603,5.6949,5.6987,5.7139,5.7327,5.7476,5.7662,5.7808,5.7772,5.7662,5.7476,5.7289,5.7252,5.7289,5.7176,5.7176,5.7214,5.7176,5.7025,5.6949,5.7063,5.7214,5.704,5.5919,5.603,5.5891,5.4707,5.4494,5.4494,5.4494,5.4494,5.4494,5.4494,5.4494,5.452,5.4656,5.4887,5.4922,5.4687,5.4944,5.5109,5.5022,5.5109,5.4979,5.4595,5.3533,5.2654,5.1917,5.0945,5.0373,5.0263,5.0263,5.0178,5.0068,5.0068,5.004,3.2015,3.2606,3.3259,3.4066,3.485,3.5476,3.5556,3.5915,3.6206,0.0,0.0,3.6626,3.7343,3.7681,3.844,4.0194,4.1158,0.0,0.0,0.0,0.0,0.0,5.0529,5.1379,0.0,5.2414,5.2626,5.3201,5.2953,5.3053,5.3789,5.3412,5.3467,5.4071,5.3755,5.3713,5.3962,5.406,5.4103,5.4103,5.42,5.4444,5.4813,5.4896,5.5113,5.5369,5.4841,5.4947,5.5369,5.4964,5.5199,5.5854,5.6046,5.6284,5.6525,5.6641,5.6872,5.7139,5.7252,5.7402,5.7588,5.7698,5.7808,5.7881,5.7881,5.7808,5.7662,5.7402,5.7439,5.7514,5.7252,5.7289,5.7402,5.7327,5.7214,5.7176,5.7252,5.7364,5.7113,5.5988,5.603,5.5824,5.4578,5.4431,5.4494,5.4494,5.4494,5.4494,5.4494,5.4494,5.4482,5.4444,5.4783,5.4852,5.4504,5.4874,5.5053,5.4934,5.5053,5.4994,5.4723,5.3783,5.2665,5.1466,5.0702,5.0235,5.0092,5.0092,5.0063,5.0011,5.0011,5.0011,3.2523,3.3195,3.3778,3.4484,3.5289,3.5915,3.5888,0.0,0.0,0.0,0.0,0.0,3.7683,3.824,0.0,0.0,0.0,0.0,0.0,0.0,0.0,4.9181,5.023,0.0,5.194,5.2002,5.2443,5.339,5.2828,5.2864,5.3801,5.3876,5.3974,5.4146,5.4189,5.4231,5.4231,5.4189,5.4189,5.4231,5.437,5.4613,5.4854,5.5031,5.5237,5.5336,5.4592,5.4851,5.5733,5.4915,5.5259,5.6402,5.6402,5.6525,5.6757,5.6949,5.7139,5.7364,5.7588,5.7772,5.7881,5.7881,5.7881,5.7881,5.7881,5.7918,5.7845,5.7476,5.7625,5.7772,5.7252,5.7364,5.7588,5.7439,5.7364,5.7402,5.7551,5.7588,5.7223,5.6128,5.5996,5.5689,5.4415,5.4335,5.4431,5.4494,5.4494,5.4494,5.4494,5.4494,5.4378,5.4027,5.4578,5.4683,5.4022,5.4609,5.493,5.4749,5.4795,5.4804,5.4675,5.3858,5.2665,5.1142,5.0661,5.0263,5.0011,5.004,5.004,5.0011,5.0011,5.0011,3.2426,3.3287,3.4116,3.4424,3.5045,3.5554,3.5447,3.5598,0.0,0.0,0.0,0.0,0.0,4.0347,4.0659,0.0,0.0,4.478,0.0,0.0,4.8635,4.9516,0.0,5.1678,5.2002,5.1989,5.2486,5.364,5.3055,5.3047,5.3985,5.42,5.4327,5.437,5.4571,5.4687,5.4687,5.4454,5.4454,5.4687,5.4729,5.4822,5.5031,5.5072,5.5237,5.5369,5.5067,5.5263,5.5766,5.5393,5.5716,5.6402,5.6402,5.6603,5.6949,5.6987,5.7252,5.7588,5.7772,5.7881,5.7881,5.7881,5.7881,5.7881,5.7881,5.8027,5.8063,5.7662,5.7735,5.7845,5.7588,5.7662,5.7845,5.7808,5.7662,5.7551,5.7588,5.7476,5.7003,5.5952,5.5612,5.5245,5.435,5.4143,5.4175,5.4431,5.4494,5.4494,5.4494,5.4494,5.4586,5.4787,5.4799,5.4803,5.4818,5.4922,5.4869,5.4592,5.4183,5.3485,5.2368,5.1563,5.0865,5.0373,5.0383,5.0263,5.0011,5.012,5.012,5.0011,5.0011,5.0011,3.2668,3.3767,3.4872,3.5247,3.6248,3.7252,3.7632,3.7727,3.7856,0.0,0.0,0.0,0.0,0.0,4.2309,4.3925,0.0,4.6018,4.7004,4.7681,4.8327,0.0,0.0,5.0863,5.1056,5.1514,5.2101,5.2797,5.2986,5.3271,5.3703,5.4263,5.4613,5.4613,5.4771,5.4896,5.5113,5.4998,5.4957,5.4948,5.5072,5.5196,5.5278,5.5523,5.5645,5.5572,5.5102,5.5335,5.6053,5.531,5.5693,5.6719,5.6603,5.6796,5.7176,5.7289,5.7514,5.7772,5.7881,5.7881,5.7881,5.7881,5.7954,5.8027,5.7918,5.8171,5.8419,5.7772,5.7538,5.7516,5.756,5.7431,5.7408,5.7814,5.7808,5.7772,5.7772,5.7588,5.7113,5.5916,5.5646,5.5209,5.4121,5.4045,5.4175,5.4303,5.4431,5.4494,5.4494,5.4592,5.4717,5.4904,5.4613,5.4604,5.4957,5.4609,5.4274,5.4121,5.3931,5.3351,5.2437,5.1752,5.1277,5.1052,5.0606,5.0285,5.0092,5.0092,5.0034,5.0011,5.0011,5.0011,3.3056,3.4223,3.5468,3.6261,3.7455,3.8683,3.9535,3.9692,3.9755,3.9974,0.0,0.0,0.0,4.2359,0.0,4.5426,4.6335,4.7004,4.7527,4.7783,4.8132,4.8656,4.9501,5.0154,5.0361,5.1069,5.1653,5.2027,5.2654,5.3127,5.3446,5.4227,5.4704,5.4906,5.5021,5.5196,5.5531,5.5531,5.5523,5.5319,5.5523,5.5531,5.5572,5.5966,5.6006,5.5814,5.5266,5.5601,5.6414,5.5542,5.5919,5.7063,5.6911,5.7063,5.7402,5.7551,5.7735,5.7881,5.7881,5.7918,5.7954,5.7954,5.8133,5.8241,5.8063,5.8384,5.8596,5.7918,5.7446,5.7148,5.7294,5.706,5.69,5.7273,5.7374,5.7408,5.7611,5.7535,5.7058,5.5918,5.5681,5.5209,5.3922,5.3848,5.4078,5.4207,5.4367,5.4529,5.4557,5.4749,5.4842,5.4842,5.433,5.4147,5.4587,5.4274,5.3887,5.357,5.3565,5.3235,5.2466,5.2011,5.1668,5.1522,5.0823,5.0369,5.0263,5.0149,5.0063,5.0063,5.0034,5.0068,3.3523,3.4446,3.5511,3.7155,3.7954,3.8529,3.9354,3.9895,4.0534,4.1445,0.0,0.0,0.0,4.3642,4.4771,4.5734,4.6815,4.7558,4.7588,0.0,4.8893,4.8955,4.9719,5.0403,5.064,5.0875,5.129,5.22,5.1965,5.2309,5.3588,5.392,5.4446,5.5328,5.5604,5.5806,5.6046,5.6046,5.6046,5.6046,5.6046,5.6046,5.6046,5.6086,5.6086,5.6086,5.602,5.6257,5.668,5.6575,5.6839,5.7289,5.7252,5.7402,5.7588,5.7588,5.7735,5.7881,5.7881,5.8027,5.8205,5.8205,5.8312,5.849,5.8455,5.849,5.849,5.8241,5.7661,5.7046,5.6687,5.6689,5.663,5.6021,5.5886,5.6055,5.6731,5.6867,5.6628,5.585,5.5542,5.5036,5.3888,5.3584,5.3617,5.4143,5.4367,5.4592,5.4749,5.4869,5.4992,5.4992,5.4174,5.3606,5.3521,5.4267,5.4179,5.2874,5.2881,5.2389,5.1092,5.1013,5.0889,5.069,5.062,5.0537,5.0369,5.0369,5.0369,5.0341,5.0228,5.0206,3.3161,3.4665,3.6276,3.7286,3.8557,3.9752,4.0462,4.1026,4.1585,4.2275,4.2528,4.2852,0.0,0.0,4.6004,4.6447,4.7463,4.8235,4.8235,4.8687,4.8996,4.8996,4.954,4.9909,5.0021,5.0342,5.0676,5.1041,5.1933,5.2516,5.258,5.3648,5.4268,5.4273,5.4391,5.4587,5.4897,5.5363,5.5671,5.582,5.6132,5.6284,5.6284,5.6441,5.6447,5.6447,5.6603,5.6796,5.7063,5.6949,5.7214,5.7698,5.7808,5.7808,5.7808,5.7918,5.7918,5.7918,5.8027,5.8027,5.8027,5.8135,5.8348,5.849,5.849,5.8666,5.8702,5.8348,5.8108,5.7904,5.7476,5.6727,5.6156,5.6359,5.6055,5.5784,5.6055,5.6122,5.5919,5.5175,5.4937,5.4599,5.372,5.3584,5.3684,5.3882,5.4143,5.4367,5.4592,5.4838,5.4961,5.4904,5.4533,5.3917,5.2922,5.3697,5.3783,5.277,5.284,5.2284,5.0943,5.0873,5.0846,5.0792,5.0675,5.0557,5.0502,5.0425,5.0397,5.0397,5.0257,5.0171,3.3234,3.4958,3.674,3.7318,3.8842,4.044,4.1281,4.1931,4.2669,4.3499,4.3561,4.3733,4.4606,0.0,0.0,0.0,4.8069,4.8718,4.8718,4.8924,4.9118,4.92,4.9452,4.9653,4.9693,5.0129,5.0363,5.0363,5.1649,5.2301,5.2004,5.3136,5.3792,5.3693,5.377,5.3962,5.4303,5.5028,5.5506,5.5696,5.6002,5.6288,5.6486,5.668,5.6796,5.6796,5.7025,5.7214,5.7402,5.7327,5.7588,5.8063,5.8099,5.8063,5.7991,5.7991,5.7991,5.7991,5.8135,5.8171,5.8241,5.8348,5.8525,5.8666,5.8666,5.8806,5.884,5.849,5.8455,5.8419,5.8063,5.7004,5.6055,5.6089,5.5716,5.5344,5.5344,5.5344,5.5209,5.4702,5.46,5.4363,5.3619,5.3584,5.3651,5.3684,5.4045,5.4367,5.4526,5.49,5.5013,5.4618,5.4765,5.4352,5.3033,5.3565,5.3619,5.2823,5.2653,5.2096,5.0943,5.0873,5.0873,5.0873,5.0702,5.0612,5.0702,5.0537,5.0453,5.0453,5.0313,5.0228,3.3931,3.5342,3.6769,3.7435,3.8811,4.0333,4.1562,4.2474,4.3598,4.5233,4.5256,4.5166,4.604,4.605,0.0,4.7694,4.8531,4.8996,4.8996,4.9169,4.9372,4.9573,4.9582,4.9693,4.9892,5.0324,5.0589,5.0589,5.0972,5.1491,5.2139,5.2395,5.2911,5.3858,5.4081,5.4303,5.4456,5.5218,5.5696,5.5884,5.5696,5.6017,5.6719,5.6911,5.6987,5.7025,5.7214,5.7439,5.7625,5.7808,5.8135,5.8455,5.8063,5.8027,5.8135,5.7772,5.7845,5.8171,5.8241,5.8455,5.8805,5.8805,5.8909,5.9012,5.9012,5.8909,5.8771,5.8805,5.8666,5.8455,5.8277,5.7518,5.6427,5.4938,5.46,5.46,5.4566,5.4566,5.4566,5.4566,5.4566,5.4363,5.3619,5.3518,5.3551,5.3684,5.4143,5.4526,5.4679,5.5174,5.5133,5.4209,5.466,5.4678,5.3977,5.4027,5.3766,5.2962,5.2306,5.1681,5.0908,5.0873,5.0873,5.0873,5.0702,5.0702,5.0873,5.0702,5.0585,5.0585,5.0453,5.0313,3.3731,3.5532,3.7408,3.7895,0.0,0.0,4.2368,4.3046,4.3975,0.0,4.5998,4.64,4.6656,4.6903,0.0,4.804,4.8643,4.9037,4.9169,4.9372,4.9501,4.9582,4.9892,5.005,4.9931,5.0441,5.0743,5.0628,5.1391,5.1782,5.1491,5.2135,5.2486,5.2417,5.2602,5.2818,5.3003,5.4376,5.5081,5.5155,5.6263,5.6901,5.7105,5.6492,5.6671,5.7439,5.7625,5.7845,5.8027,5.8384,5.8455,5.8312,5.849,5.8419,5.8241,5.8384,5.8419,5.8455,5.8561,5.8596,5.8596,5.8736,5.8909,5.9012,5.9012,5.9047,5.9115,5.8875,5.8736,5.8666,5.8455,5.8213,5.7562,5.582,5.4972,5.4465,5.3923,5.3822,5.3822,5.3822,5.3822,5.3788,5.3651,5.3551,5.3551,5.3684,5.3849,5.4143,5.4617,5.5048,5.4979,5.418,5.466,5.4648,5.3762,5.3326,5.3032,5.2788,5.164,5.0974,5.0908,5.0873,5.0873,5.0873,5.0846,5.0846,5.0873,5.0702,5.0585,5.0585,5.0369,5.0228,3.42,3.619,3.8352,3.906,4.0727,4.256,4.3842,0.0,0.0,0.0,4.6897,4.752,4.7362,4.7703,0.0,4.8596,4.9001,4.9291,4.9412,4.9501,4.9653,4.9733,4.9892,5.005,5.005,5.0512,5.0743,5.0705,5.1365,5.162,5.1199,5.1777,5.1997,5.1794,5.1977,5.2227,5.2409,5.398,5.4859,5.4932,5.6211,5.7096,5.7514,5.6891,5.6962,5.7625,5.7808,5.8063,5.8348,5.8561,5.8596,5.8455,5.8701,5.8631,5.8455,5.8631,5.8631,5.8631,5.8736,5.8806,5.884,5.8944,5.9115,5.9251,5.9251,5.9285,5.9251,5.9047,5.8944,5.884,5.8666,5.8631,5.8149,5.6265,5.5449,5.4839,5.3721,5.3518,5.3551,5.3584,5.3517,5.3551,5.3684,5.3617,5.3618,5.3684,5.3913,5.4269,5.4741,5.5109,5.5149,5.4723,5.4954,5.483,5.3973,5.3265,5.2764,5.245,5.1347,5.0757,5.0873,5.0873,5.0873,5.0873,5.0873,5.0873,5.0873,5.0792,5.0647,5.0537,5.0341,5.0235,3.5026,3.7021,3.917,4.0356,4.1586,0.0,4.5653,4.6617,4.6959,4.7021,0.0,4.8545,4.8186,4.8426,4.8812,4.9278,4.9493,4.9613,4.9653,4.9653,4.9693,4.9892,4.9773,4.9852,5.0246,5.0512,5.0705,5.0858,5.1086,5.1237,5.1237,5.1424,5.161,5.1831,5.2013,5.2227,5.2409,5.4017,5.4932,5.5113,5.5953,5.6912,5.7881,5.7631,5.7594,5.7698,5.7845,5.8135,5.8525,5.8525,5.8631,5.8805,5.8806,5.8806,5.8771,5.8596,5.8666,5.8875,5.8875,5.9047,5.9319,5.9319,5.9453,5.9621,5.9621,5.9486,5.9352,5.9352,5.9114,5.8909,5.8875,5.8702,5.8187,5.6474,5.603,5.5553,5.3923,5.3551,5.3551,5.3684,5.3618,5.3551,5.3717,5.3717,5.3684,5.3717,5.4269,5.4772,5.4961,5.5229,5.5437,5.5507,5.5437,5.5092,5.432,5.3612,5.2839,5.2039,5.1294,5.0873,5.0873,5.0873,5.0873,5.0873,5.0873,5.0873,5.0873,5.0846,5.071,5.0397,5.0369,5.0263,3.471,3.6525,0.0,0.0,4.1319,4.3559,4.5927,4.6955,4.7536,4.791,4.8604,4.9113,4.9032,4.9113,4.9224,4.9501,4.9573,4.9653,4.9812,4.9852,4.9852,4.9892,5.0168,5.0363,5.0317,5.0781,5.101,5.0896,5.1086,5.1275,5.1424,5.1647,5.1831,5.2013,5.223,5.2338,5.2409,5.4161,5.5077,5.5113,5.6749,5.7673,5.7881,5.7273,5.7484,5.8312,5.8205,5.8384,5.877,5.877,5.8736,5.8806,5.8944,5.8909,5.884,5.8875,5.9012,5.9183,5.9183,5.9319,5.9554,5.9554,5.9652,5.9716,5.9619,5.9652,5.9683,5.9553,5.897,5.849,5.9044,5.8218,5.7085,5.6541,5.6201,5.5621,5.419,5.3685,5.3584,5.3882,5.3718,5.3584,5.3882,5.3718,5.3584,5.3684,5.4269,5.471,5.4741,5.4615,5.4805,5.5437,5.4946,5.4431,5.4174,5.3554,5.2783,5.1906,5.1247,5.0873,5.0873,5.0873,5.0873,5.0873,5.0729,5.0729,5.0873,5.0655,5.0509,5.053,5.0341,5.02,3.4864,0.0,0.0,4.0762,0.0,4.3823,4.5996,4.6711,4.7199,4.8232,4.9062,4.9573,4.9461,4.9653,4.9773,4.9773,4.9931,5.0089,5.0089,5.0168,5.0246,5.0246,5.0473,5.0589,5.0589,5.0972,5.1199,5.1162,5.1275,5.1387,5.1499,5.161,5.1758,5.1941,5.2158,5.2503,5.3014,5.44,5.5317,5.5794,5.7195,5.7954,5.8027,5.762,5.7867,5.849,5.8384,5.8525,5.8805,5.8805,5.8805,5.8806,5.8944,5.8944,5.8909,5.8978,5.9115,5.9319,5.9319,5.9486,5.9718,5.9718,5.9814,5.9911,5.9849,5.9814,5.9814,5.9716,5.9307,5.8967,5.9315,5.873,5.7767,5.6943,5.6197,5.5348,5.4121,5.3783,5.3784,5.3948,5.3883,5.3817,5.4045,5.3948,5.3849,5.3948,5.4055,5.4295,5.4676,5.4072,5.3946,5.4811,5.4244,5.3526,5.2945,5.2726,5.2194,5.1172,5.101,5.0873,5.0873,5.0873,5.0873,5.0873,5.0819,5.0819,5.0873,5.071,5.062,5.0585,5.0397,5.0257,3.4979,0.0,3.9529,4.2493,4.3301,0.0,4.5913,4.6335,4.6698,4.8176,4.9206,4.9812,4.9693,5.001,5.0207,4.9931,5.0285,5.055,5.0356,5.0473,5.0589,5.0589,5.0628,5.0705,5.0858,5.1124,5.1312,5.1499,5.1536,5.1573,5.161,5.161,5.1684,5.1904,5.205,5.2633,5.369,5.4603,5.559,5.6511,5.7471,5.7991,5.8135,5.8241,5.8348,5.849,5.849,5.8596,5.8805,5.8805,5.8806,5.884,5.8944,5.9012,5.9012,5.9012,5.9115,5.9319,5.9319,5.9518,5.9779,5.9779,5.9943,6.0107,6.0107,5.9975,5.9879,5.9879,5.9646,5.948,5.9584,5.9175,5.8418,5.7274,5.6081,5.4996,5.4051,5.3882,5.398,5.4045,5.4045,5.4045,5.4143,5.4175,5.4141,5.4004,5.377,5.3775,5.4229,5.3385,5.3026,5.3946,5.3379,5.2529,5.1644,5.1717,5.1403,5.0383,5.0627,5.0792,5.0792,5.0819,5.0846,5.0873,5.0846,5.0846,5.0873,5.0846,5.0792,5.0675,5.0481,5.0341,3.4355,0.0,3.9279,0.0,4.2956,4.3839,0.0,0.0,4.6949,0.0,4.8891,4.9693,4.9852,5.0089,5.0207,4.9931,5.0285,5.055,5.0356,5.0473,5.0589,5.0589,5.0743,5.0858,5.0896,5.1237,5.1462,5.1499,5.1647,5.1831,5.2013,5.2013,5.2086,5.2302,5.2338,5.2776,5.369,5.4603,5.559,5.6511,5.7471,5.7918,5.7954,5.8312,5.849,5.849,5.849,5.8596,5.8805,5.8805,5.8875,5.8978,5.8978,5.9012,5.9012,5.9012,5.9115,5.9319,5.9319,5.9518,5.9779,5.9779,5.9943,6.0107,6.0107,6.0107,6.0075,6.0075,5.9488,5.8975,5.9606,5.8089,5.6478,5.6893,5.5764,5.4569,5.4434,5.4045,5.3882,5.4335,5.4207,5.4013,5.4013,5.4013,5.3808,5.3158,5.3363,5.3333,5.2624,5.2213,5.2199,5.2852,5.2259,5.1714,5.1373,5.1286,5.0852,5.0005,5.0171,5.0376,5.0453,5.0592,5.0729,5.0873,5.0729,5.0729,5.0873,5.0729,5.0702,5.0846,5.0509,5.0369,3.4831,3.6851,3.8888,0.0,4.1933,4.2471,4.4543,0.0,4.5913,4.6906,4.8229,4.934,4.9797,5.0129,5.0246,5.0129,5.0512,5.0743,5.0666,5.082,5.0972,5.1086,5.1162,5.1275,5.1387,5.1647,5.1831,5.1831,5.1904,5.2013,5.2119,5.2119,5.2122,5.223,5.2338,5.2884,5.3868,5.4675,5.5828,5.7299,5.771,5.7881,5.7918,5.8312,5.849,5.8525,5.8701,5.884,5.8909,5.8909,5.8944,5.9012,5.9012,5.9012,5.9012,5.9012,5.9217,5.9453,5.9453,5.9685,5.9975,5.9975,6.0008,6.0107,6.0107,5.9826,5.9475,5.9475,5.9166,5.8959,5.9243,5.8733,5.7947,5.7329,5.6856,5.6314,5.5322,5.4613,5.4207,5.4431,5.4271,5.4143,5.4239,5.411,5.391,5.3665,5.3444,5.336,5.346,5.2731,5.2317,5.266,5.1941,5.1171,5.0459,5.0512,5.0345,4.9796,5.0028,5.0235,5.0285,5.0257,5.0341,5.0627,5.062,5.0702,5.0873,5.0702,5.0702,5.0873,5.0572,5.0425,3.4922,3.6561,3.8129,4.0356,4.0832,4.137,0.0,0.0,4.5061,0.0,4.7587,4.8713,4.9567,5.0041,5.0317,5.0317,5.0628,5.0896,5.0896,5.1124,5.135,5.1462,5.1536,5.1647,5.1794,5.1977,5.2119,5.2119,5.2155,5.2158,5.2158,5.2158,5.2158,5.2158,5.2302,5.2919,5.401,5.4819,5.6039,5.7611,5.7611,5.7749,5.7991,5.8348,5.8525,5.8596,5.8875,5.9012,5.9012,5.9047,5.9047,5.9012,5.9115,5.9115,5.9081,5.9081,5.9285,5.952,5.9553,5.9751,6.001,6.0104,6.0171,6.0171,6.0234,5.9847,5.9354,5.9179,5.9108,5.9073,5.88,5.9026,5.8937,5.7416,5.7471,5.7452,5.5876,5.5152,5.4736,5.4563,5.4335,5.4271,5.456,5.4271,5.4009,5.3933,5.3516,5.3338,5.3811,5.3065,5.2453,5.2304,5.1661,5.0828,4.9747,4.9825,4.9825,4.953,4.9796,4.9971,4.9999,4.9913,4.9999,5.0257,5.0425,5.062,5.0873,5.0729,5.0729,5.0873,5.0564,5.0509,3.39,3.513,3.6662,3.856,3.9785,0.0,0.0,0.0,4.5096,4.6518,4.7014,4.7601,4.8968,4.9801,5.0317,5.0317,5.0628,5.0896,5.0896,5.1237,5.1499,5.1499,5.1684,5.1794,5.1794,5.1977,5.2119,5.2119,5.2266,5.2373,5.2373,5.2373,5.2373,5.2373,5.2373,5.2919,5.401,5.51,5.6053,5.6867,5.6867,5.7313,5.8171,5.8419,5.8596,5.8771,5.8909,5.9012,5.9012,5.9217,5.9149,5.9047,5.9419,5.9453,5.9285,5.9285,5.9319,5.9352,5.9553,5.9619,5.972,6.0135,6.0329,6.0427,6.0516,6.0543,6.0366,5.9588,5.9375,5.9168,5.828,5.7987,5.7658,5.6663,5.6735,5.6761,5.5644,5.5468,5.5357,5.4632,5.4335,5.4335,5.4717,5.4431,5.3967,5.3244,5.3266,5.3087,5.2211,5.2347,5.2156,5.1282,5.1149,5.0686,4.9599,4.935,4.9199,4.908,4.9168,4.935,4.95,4.9649,4.9796,4.9942,5.0114,5.046,5.0873,5.0873,5.0873,5.0873,5.0702,5.0585,3.3463,3.4431,0.0,3.7422,3.8742,4.0003,4.1564,4.2669,4.3801,4.5191,4.6,4.6748,4.767,4.8509,4.9425,5.0506,5.001,4.971,5.0273,5.0098,5.0152,5.0896,5.1146,5.1523,5.2161,5.2338,5.2139,5.143,5.2037,5.2139,5.1536,5.2073,5.2409,5.2409,5.2409,5.2919,5.401,5.4663,5.5378,5.6122,5.6562,5.7042,5.7491,5.8214,5.8596,5.884,5.8909,5.9081,5.9217,5.9115,5.9217,5.9386,5.9386,5.9419,5.9486,5.9486,5.9553,5.965,5.9716,5.9914,6.0142,6.0297,6.0423,6.0552,6.0578,6.0255,5.9623,5.8754,5.8572,5.8491,5.7534,5.7711,5.7998,5.7408,5.7238,5.692,5.5934,5.6079,5.6044,5.4928,5.456,5.4494,5.4869,5.4491,5.4134,5.402,5.3923,5.3788,5.345,5.3639,5.328,5.1942,5.1657,5.099,4.9637,4.932,4.9168,4.9138,4.9168,4.9229,4.929,4.926,4.9381,4.9649,4.9708,5.0028,5.0599,5.0647,5.0702,5.0702,5.0537,5.0537,3.2922,3.3731,0.0,0.0,0.0,3.8541,4.0224,0.0,4.2479,4.3876,4.5062,4.606,4.6801,4.7265,4.818,5.022,4.9705,4.9328,5.007,4.9628,4.9515,5.0326,5.0603,5.0977,5.1649,5.1984,5.1883,5.121,5.1943,5.2139,5.1503,5.2108,5.2516,5.2587,5.2657,5.2998,5.3711,5.4057,5.46,5.5344,5.5818,5.6467,5.7222,5.7874,5.8391,5.8875,5.8944,5.8977,5.8972,5.9147,5.9179,5.9238,5.9482,5.9619,5.9652,5.9652,5.9716,5.9779,5.9879,6.0107,6.0333,6.0485,6.0609,6.0701,6.0762,6.0372,5.9804,5.8904,5.8515,5.8155,5.7229,5.717,5.7499,5.8031,5.7747,5.7251,5.6848,5.6794,5.6452,5.5119,5.4686,5.4589,5.493,5.4586,5.4367,5.4463,5.4367,5.4303,5.4303,5.4399,5.3908,5.236,5.1974,5.1268,4.9697,4.935,4.9199,4.9199,4.9168,4.9138,4.9138,4.908,4.9077,4.932,4.9441,4.9679,5.0086,5.0397,5.0502,5.0502,5.0509,5.0481,0.0,0.0,0.0,0.0,0.0,0.0,3.95,0.0,4.1151,4.2747,4.4221,4.5442,4.6354,4.6142,4.6662,4.9291,4.971,4.9821,5.0253,4.9886,4.9604,4.9844,5.0051,5.0222,5.0392,5.092,5.1352,5.1457,5.2049,5.2409,5.2376,5.2518,5.2694,5.2903,5.311,5.3179,5.3179,5.3382,5.3856,5.4566,5.4566,5.5552,5.7363,5.7397,5.7981,5.9012,5.8978,5.87,5.8245,5.9208,5.9133,5.8539,5.9663,5.9975,5.9779,5.9779,5.9779,5.9811,6.0008,6.0107,6.0167,6.0666,6.0782,6.0848,6.1034,6.1093,6.0915,6.0094,5.9193,5.8294,5.7304,5.63,5.6069,5.8316,5.8156,5.7653,5.8226,5.7682,5.6646,5.5274,5.478,5.462,5.4961,5.4714,5.4494,5.4494,5.4529,5.4494,5.4494,5.4494,5.3942,5.2394,5.21,5.139,4.988,4.9411,4.9199,4.9199,4.9077,4.9018,4.9018,4.9018,4.9018,4.9018,4.932,4.9505,4.9471,5.0086,5.0369,5.0397,5.0502,5.0453,3.3662,0.0,0.0,0.0,0.0,0.0,0.0,0.0,3.9516,4.1917,4.2462,4.3073,4.4747,4.5597,4.638,4.7505,4.7381,4.7586,4.8873,4.8484,4.8324,4.9021,4.9291,4.9625,5.0222,5.0988,5.1153,0.0,5.1609,5.2177,5.1647,5.2392,5.2834,5.2903,5.311,5.3179,5.3179,5.3382,5.3653,5.3956,5.4398,5.5349,5.6747,5.7192,5.7981,5.8978,5.8461,5.8217,5.8245,5.904,5.9166,5.8895,5.9631,5.9529,5.9077,5.9604,5.9464,5.9112,5.9832,6.0266,6.0516,6.0727,6.0908,6.1034,6.1093,6.1093,6.0778,5.93,5.8766,5.8331,5.6949,5.6191,5.5934,5.657,5.7243,5.7561,5.7056,5.7622,5.7764,5.6291,5.5405,5.4961,5.5299,5.4996,5.4749,5.4838,5.4652,5.4494,5.4494,5.4494,5.4149,5.3184,5.241,5.1596,5.0635,4.9752,4.9199,4.9199,4.9077,4.9018,4.9018,4.9018,4.9018,4.9018,4.9111,4.9172,4.9172,4.9737,5.0114,5.0257,5.0397,5.0285,3.4153,0.0,0.0,0.0,0.0,0.0,0.0,3.7286,3.806,0.0,4.0877,4.1552,4.3008,4.3816,4.4431,4.5146,4.5049,4.5734,4.8191,4.7964,4.7769,4.8398,4.8564,4.8829,4.9327,5.0357,5.0788,5.0289,5.165,5.2352,5.2094,5.2669,5.3041,5.3144,5.328,5.3348,5.3348,5.3416,5.3584,5.3717,5.4059,5.4872,5.6059,5.6747,5.7398,5.8081,5.7943,5.7664,5.7309,5.8037,5.8542,5.8857,5.8962,5.8927,5.8892,5.9376,5.9303,5.9053,5.9921,6.0423,6.0696,6.0788,6.0938,6.1022,6.0701,6.0535,6.0256,5.8944,5.8374,5.784,5.6657,5.6077,5.5921,5.6297,5.687,5.7338,5.7456,5.7977,5.8008,5.6663,5.5854,5.5375,5.5394,5.4996,5.4749,5.4961,5.4714,5.456,5.4623,5.4526,5.4218,5.3494,5.2547,5.1695,5.1034,4.9945,4.932,4.932,4.9168,4.9046,4.9018,4.9018,4.9018,4.9018,4.9018,4.9015,4.9077,4.953,4.9884,5.0171,5.02,5.0143,3.4446,3.4386,0.0,0.0,0.0,0.0,3.6513,3.6631,3.6901,0.0,3.9361,4.0316,4.1123,4.1316,4.1573,4.2411,4.2823,4.4191,4.7568,4.7736,4.7572,4.7836,4.7869,4.7934,4.8195,4.936,5.0257,5.0627,5.1895,5.2799,5.3179,5.3213,5.3348,5.3517,5.3518,5.3518,5.3517,5.3518,5.3584,5.375,5.3717,5.4324,5.5439,5.6126,5.6536,5.684,5.7425,5.7042,5.603,5.6515,5.7367,5.8384,5.7911,5.8114,5.8741,5.8932,5.9029,5.9162,6.0004,6.0538,6.0782,6.0848,6.0938,6.095,6.0165,5.9799,5.9562,5.8788,5.7911,5.7079,5.6481,5.6007,5.5976,5.6834,5.6835,5.7017,5.8562,5.8475,5.7837,5.676,5.6241,5.5834,5.5309,5.4869,5.4652,5.4992,5.4745,5.4589,5.478,5.4655,5.4253,5.3598,5.2716,5.1894,5.1257,5.0262,4.9603,4.9535,4.932,4.9138,4.9049,4.9018,4.9018,4.9018,4.9018,4.9046,4.9168,4.9381,4.9708,5.0114,4.9971,4.9999,3.6974,3.6481,3.6112,3.6248,0.0,0.0,3.6197,3.6174,3.648,0.0,3.7761,3.7898,3.9103,3.9416,3.9701,4.0308,4.1161,4.2558,4.4814,4.5632,4.6254,4.688,4.6946,4.7307,4.8096,4.8895,4.9625,5.0393,5.1929,5.2938,5.3179,5.3348,5.3517,5.3651,5.3551,5.3551,5.3651,5.3551,5.3651,5.3948,5.3783,5.4356,5.5568,5.5706,5.6152,5.6771,5.6418,5.645,5.656,5.5423,5.5646,5.6725,5.721,5.7137,5.6823,5.7573,5.7938,5.8229,5.9249,6.0134,6.0848,6.1004,6.1064,6.095,6.0165,5.9886,5.9572,5.8203,5.7239,5.6657,5.6979,5.6482,5.6027,5.6782,5.6781,5.6842,5.7825,5.851,5.8677,5.7719,5.6961,5.6265,5.5553,5.5144,5.4961,5.5139,5.4987,5.4869,5.4811,5.4749,5.4617,5.4322,5.3601,5.2843,5.205,5.1142,5.0365,4.9683,4.9381,4.9199,4.9168,4.908,4.9018,4.9018,4.9018,4.8984,4.9015,4.935,4.953,4.9619,4.9825,4.9884,3.7894,3.7369,3.71,3.7158,0.0,0.0,0.0,3.6047,3.5985,3.6837,3.6423,3.6183,3.7098,3.7373,3.7524,3.7728,3.8923,4.0183,4.1082,4.3482,4.5392,4.6152,4.6187,4.6548,4.7468,4.8166,4.9161,5.056,5.1866,5.264,5.2741,5.3213,5.3517,5.3618,5.3618,5.3618,5.3618,5.3718,5.3816,5.398,5.398,5.4348,5.5081,5.546,5.5632,5.5667,5.5729,5.5697,5.5598,5.4839,5.4831,5.54,5.5997,5.6295,5.6365,5.6961,5.7253,5.755,5.8926,5.9714,6.0195,6.0772,6.1034,6.0849,5.9614,5.9002,5.8595,5.769,5.7504,5.7576,5.7861,5.722,5.6686,5.7287,5.6997,5.6947,5.8141,5.8853,5.9042,5.8083,5.7656,5.7052,5.5748,5.5264,5.5174,5.5324,5.5234,5.5083,5.5022,5.4904,5.4749,5.4655,5.3901,5.308,5.2257,5.1438,5.0621,4.9777,4.956,4.9411,4.935,4.9168,4.9046,4.9018,4.9018,4.9015,4.9077,4.9199,4.932,4.95,4.9471,4.959,0.0,0.0,0.0,0.0,0.0,3.7188,0.0,0.0,0.0,3.5957,0.0,0.0,0.0,0.0,0.0,0.0,0.0,0.0,0.0,4.0741,0.0,4.4558,4.4702,4.51,4.6147,4.704,4.8428,5.0457,5.1257,5.1827,5.2267,5.2942,5.3415,5.3584,5.3651,5.3684,5.3618,5.3849,5.4013,5.4078,5.4207,5.4367,5.456,5.5179,5.5144,5.456,5.5182,5.5113,5.4526,5.4529,5.4494,5.4526,5.4896,5.5493,5.6178,5.648,5.6699,5.717,5.8668,5.9329,5.9608,6.0479,6.0741,6.0511,5.9112,5.8245,5.7754,5.7576,5.8125,5.8716,5.8714,5.8065,5.7494,5.8099,5.7555,5.7258,5.8702,5.9091,5.8956,5.8169,5.8042,5.7541,5.5842,5.5413,5.5319,5.5478,5.5383,5.5259,5.5199,5.5022,5.4873,5.4842,5.4164,5.338,5.2585,5.183,5.1011,5.013,4.9835,4.9649,4.953,4.929,4.9107,4.9018,4.9018,4.9046,4.9168,4.9046,4.9138,4.9441,4.9138,4.929,0.0,0.0,0.0,0.0,3.9317,0.0,0.0,0.0,3.6388,3.5791,0.0,0.0,0.0,0.0,0.0,0.0,0.0,0.0,3.5442,3.651,3.8118,4.0479,4.1198,4.2118,4.3647,4.5156,4.6939,4.9161,4.9219,5.0045,5.2034,5.2501,5.307,5.3915,5.3783,5.3849,5.411,5.4045,5.4143,5.4431,5.4463,5.4592,5.4749,5.4973,5.4973,5.4749,5.4852,5.4818,5.4749,5.4592,5.4494,5.4529,5.4557,5.4845,5.5192,5.5339,5.6088,5.7211,5.8131,5.8964,5.9763,6.0423,6.0144,5.9572,5.9365,5.8852,5.8365,5.8365,5.8523,5.8823,5.939,5.897,5.8455,5.8971,5.8456,5.8048,5.8839,5.8703,5.8319,5.8063,5.7588,5.6905,5.5883,5.5648,5.559,5.5507,5.5561,5.5561,5.5229,5.5169,5.5109,5.4992,5.4892,5.4544,5.3778,5.2865,5.2072,5.1425,5.0321,4.9708,4.9679,4.926,4.9018,4.9018,4.9018,4.9018,4.9015,4.9018,4.9077,4.9229,4.9199,4.9138,0.0,0.0,0.0,0.0,0.0,0.0,3.8541,0.0,3.6219,0.0,0.0,0.0,0.0,0.0,0.0,0.0,3.3529,0.0,0.0,0.0,3.5395,0.0,0.0,0.0,4.1337,4.2663,4.4171,4.6057,4.6907,4.8001,4.9474,5.1289,5.2568,5.3169,5.3611,5.3948,5.4078,5.4207,5.4335,5.4494,5.4367,5.4494,5.478,5.462,5.4557,5.4623,5.4623,5.4623,5.4623,5.4526,5.4592,5.4721,5.517,5.5157,5.5022,5.5264,5.5994,5.6946,5.7811,5.8653,5.9465,6.03,5.9986,5.9319,5.9531,5.9313,5.9035,5.9035,5.9384,5.987,6.0134,5.9602,5.9182,5.9875,5.9421,5.9037,5.9757,5.9481,5.8958,5.8373,5.7723,5.6972,5.6135,5.5879,5.5764,5.5654,5.5857,5.5822,5.5413,5.5354,5.5324,5.5109,5.5053,5.4678,5.3977,5.3123,5.2264,5.1471,5.0326,4.9708,4.9708,4.932,4.9107,4.9107,4.9015,4.9018,4.9018,4.9018,4.9015,4.9077,4.8984,4.8987,4.6094,0.0,0.0,0.0,0.0,0.0,0.0,0.0,0.0,0.0,0.0,0.0,0.0,0.0,0.0,0.0,0.0,3.3257,0.0,0.0,0.0,0.0,0.0,0.0,0.0,3.9891,4.1178,4.3156,4.4206,4.5496,4.7164,4.9875,5.1622,5.2289,5.3435,5.4078,5.4143,5.4367,5.4526,5.462,5.4399,5.4463,5.478,5.4431,5.4367,5.4494,5.4494,5.456,5.4592,5.4799,5.4966,5.5098,5.6018,5.6078,5.5649,5.5959,5.646,5.7108,5.7978,5.8725,5.9436,6.0215,6.0004,5.9483,5.9729,5.976,5.9663,5.9663,6.0118,6.0578,6.0578,6.018,5.9927,6.0468,6.018,5.9927,6.0468,6.0129,5.9467,5.8685,5.7868,5.7079,5.6395,5.6049,5.5879,5.5764,5.5908,5.5936,5.5654,5.5537,5.5478,5.5348,5.5234,5.4934,5.4376,5.3549,5.2561,5.1379,5.0533,4.9978,4.9708,4.9381,4.9229,4.929,4.9111,4.9049,4.9046,4.9049,4.9018,4.9018,4.8894,4.8863,0.0,0.0,0.0,4.4813,0.0,0.0,0.0,0.0,3.6684,0.0,0.0,0.0,0.0,0.0,0.0,0.0,0.0,0.0,0.0,0.0,0.0,0.0,0.0,0.0,0.0,3.6868,3.8163,4.1082,4.1023,4.2417,4.596,4.8179,5.0039,5.1503,5.3259,5.4303,5.4463,5.4494,5.4652,5.4992,5.4652,5.4557,5.471,5.4557,5.4494,5.4494,5.4494,5.4623,5.4849,5.5577,5.5758,5.5699,5.7039,5.7381,5.7251,5.7444,5.7724,5.8074,5.873,5.944,6.0072,6.0104,6.0104,6.0072,6.0104,6.0199,6.036,6.036,6.0485,6.0578,6.0578,6.0696,6.0722,6.064,6.0696,6.0722,6.064,6.0129,5.9467,5.8685,5.7868,5.7107,5.6498,5.6134,5.5901,5.5872,5.5793,5.5764,5.5844,5.5648,5.5566,5.5677,5.5566,5.5478,5.5443,5.4589,5.3265,5.1413,5.1168,5.0646,4.9742,4.9381,4.929,4.9471,4.9172,4.9046,4.9199,4.9046,4.9018,4.9018,4.9018,4.8798,5.1329,5.121,5.0704,4.835,0.0,0.0,0.0,0.0,0.0,0.0,0.0,0.0,0.0,0.0,0.0,0.0,0.0,0.0,0.0,0.0,0.0,0.0,0.0,0.0,0.0,0.0,0.0,3.8144,3.8632,4.0034,4.2883,4.5584,4.7695,4.9135,5.1293,5.2843,5.377,5.4253,5.462,5.4873,5.4463,5.4399,5.4557,5.4399,5.4303,5.4338,5.4948,5.5349,5.5577,5.6339,5.6747,5.701,5.7805,5.8247,5.837,5.7907,5.8141,5.8796,5.9632,6.009,6.0297,6.0392,6.036,6.0301,6.0301,6.0234,6.0234,6.0364,6.0427,6.0485,6.0666,6.0696,6.0666,6.0727,6.0788,6.0818,6.0757,6.0333,5.9724,5.8795,5.8096,5.7366,5.6525,5.6217,5.6049,5.5901,5.5964,5.5943,5.5648,5.5828,5.5857,5.5596,5.5625,5.5596,5.5507,5.4653,5.3597,5.2434,5.2013,5.1523,5.0788,5.0253,4.9865,4.9505,4.9168,4.9049,4.9046,4.9523,4.9729,4.9729,5.0236,5.0012,5.3912,5.3693,5.3097,5.0605,4.9351,4.7967,4.5083,0.0,4.2962,0.0,0.0,0.0,0.0,0.0,0.0,0.0,0.0,0.0,0.0,3.0217,0.0,0.0,0.0,0.0,0.0,0.0,3.3027,3.544,3.643,0.0,0.0,4.378,4.624,4.7368,5.0447,5.2435,5.3204,5.4086,5.4592,5.4686,5.4367,5.4303,5.4497,5.4613,5.4619,5.4686,5.5604,5.6144,5.6339,5.7166,5.7674,5.7971,5.8704,5.9147,5.9204,5.8713,5.8885,5.9506,6.0156,6.0364,6.0297,6.0489,6.0392,6.0266,6.0266,6.0202,6.0139,6.0234,6.0364,6.0356,6.0194,6.0366,6.0538,6.0281,6.0484,6.0757,6.0782,6.06,6.0103,5.8859,5.8394,5.7798,5.6569,5.6253,5.6169,5.6021,5.6049,5.5964,5.5677,5.5908,5.5964,5.5648,5.5677,5.5654,5.5507,5.4869,5.415,5.3294,5.2899,5.2373,5.1642,5.1192,5.0803,5.0381,5.0076,4.989,4.989,5.0302,5.0473,5.0507,5.1251,5.119]}]]